[[{"header":{"parameterUnit":"m.s-1","parameterCategory":1,"la1":31.0,"la2":29.5877,"lo1":-88.7671,"lo2":-86.6584,"dy":0.0162,"dx":0.0185,"nx":115,"ny":88,"refTime":"2023-03-20T06:00:00:Z","depth":0,"parameterNumber":2,"parameterNumberName":"U-component_of_WINDS"},"data":[0.0,0.0,0.0,0.0,0.0,0.0,0.0,0.0,0.0,0.0,0.0,0.0,0.0,0.0,0.0,0.0,0.0,0.0,0.0,0.0,0.0,0.0,0.0,0.0,0.0,0.0,0.0,0.0,0.0,0.0,0.0,0.0,0.0,0.0,0.0,0.0,0.0,0.0,0.0,0.0,0.0,0.0,0.0,0.0,0.0,0.0,0.0,0.0,0.0,0.0,0.0,0.0,0.0,0.0,0.0,0.0,0.0,0.0,0.0,0.0,0.0,0.0,0.0,0.0,0.0,0.0,0.0,0.0,0.0,0.0,0.0,0.0,0.0,0.0,0.0,0.0,0.0,0.0,0.0,0.0,0.0,0.0,0.0,0.0,0.0,0.0,0.0,0.0,0.0,0.0,0.0,0.0,0.0,0.0,0.0,0.0,0.0,0.0,0.0,0.0,0.0,0.0,0.0,0.0,0.0,0.0,0.0,0.0,0.0,0.0,0.0,0.0,0.0,0.0,0.0,0.0,0.0,0.0,0.0,0.0,0.0,0.0,0.0,0.0,0.0,0.0,0.0,0.0,0.0,0.0,0.0,0.0,0.0,0.0,0.0,0.0,0.0,0.0,0.0,0.0,0.0,0.0,0.0,0.0,0.0,0.0,0.0,0.0,0.0,0.0,0.0,0.0,0.0,0.0,0.0,0.0,0.0,0.0,0.0,0.0,0.0,0.0,0.0,0.0,0.0,0.0,0.0,0.0,0.0,0.0,0.0,0.0,0.0,0.0,0.0,0.0,0.0,0.0,0.0,0.0,0.0,0.0,0.0,0.0,0.0,0.0,0.0,0.0,0.0,0.0,0.0,0.0,0.0,0.0,0.0,0.0,0.0,0.0,0.0,0.0,0.0,0.0,0.0,0.0,0.0,0.0,0.0,0.0,0.0,0.0,0.0,0.0,0.0,0.0,0.0,0.0,0.0,0.0,0.0,0.0,0.0,0.0,0.0,0.0,0.0,0.0,0.0,0.0,0.0,0.0,0.0,0.0,0.0,0.0,0.0,0.0,0.0,0.0,0.0,0.0,0.0,0.0,0.0,0.0,0.0,0.0,0.0,0.0,0.0,0.0,0.0,0.0,0.0,0.0,0.0,0.0,0.0,0.0,0.0,0.0,0.0,0.0,0.0,0.0,0.0,0.0,0.0,0.0,0.0,0.0,0.0,0.0,0.0,0.0,0.0,0.0,0.0,0.0,0.0,0.0,0.0,0.0,0.0,0.0,0.0,0.0,0.0,0.0,0.0,0.0,0.0,0.0,0.0,0.0,0.0,0.0,0.0,0.0,0.0,0.0,0.0,0.0,0.0,0.0,0.0,0.0,0.0,0.0,0.0,0.0,0.0,0.0,0.0,0.0,0.0,0.0,0.0,0.0,0.0,0.0,0.0,0.0,0.0,0.0,0.0,0.0,0.0,0.0,0.0,0.0,0.0,0.0,0.0,0.0,0.0,0.0,0.0,0.0,0.0,0.0,0.0,0.0,0.0,0.0,0.0,0.0,0.0,0.0,0.0,0.0,0.0,0.0,0.0,0.0,0.0,0.0,0.0,0.0,0.0,0.0,0.0,0.0,0.0,0.0,0.0,0.0,0.0,0.0,0.0,0.0,0.0,0.0,0.0,0.0,0.0,0.0,0.0,0.0,0.0,0.0,0.0,0.0,0.0,0.0,0.0,0.0,0.0,0.0,0.0,0.0,0.0,0.0,0.0,0.0,0.0,0.0,0.0,0.0,0.0,0.0,0.0,0.0,0.0,0.0,0.0,0.0,0.0,0.0,0.0,0.0,0.0,0.0,0.0,0.0,0.0,0.0,0.0,0.0,0.0,0.0,0.0,0.0,0.0,0.0,0.0,0.0,0.0,0.0,0.0,0.0,0.0,0.0,0.0,0.0,0.0,0.0,0.0,0.0,0.0,0.0,0.0,0.0,0.0,0.0,0.0,0.0,0.0,0.0,0.0,0.0,0.0,0.0,0.0,0.0,0.0,0.0,0.0,0.0,0.0,0.0,0.0,0.0,0.0,0.0,0.0,0.0,0.0,0.0,0.0,0.0,0.0,0.0,0.0,0.0,0.0,0.0,0.0,0.0,0.0,0.0,0.0,0.0,0.0,0.0,0.0,0.0,0.0,0.0,0.0,0.0,0.0,0.0,0.0,0.0,0.0,0.0,0.0,0.0,0.0,0.0,0.0,0.0,0.0,0.0,0.0,0.0,0.0,0.0,0.0,0.0,0.0,0.0,0.0,0.0,0.0,0.0,0.0,0.0,0.0,0.0,0.0,0.0,0.0,0.0,0.0,0.0,0.0,0.0,0.0,0.0,0.0,0.0,0.0,0.0,0.0,0.0,0.0,0.0,0.0,0.0,0.0,0.0,0.0,0.0,0.0,0.0,0.0,0.0,0.0,0.0,0.0,0.0,0.0,0.0,0.0,0.0,0.0,0.0,0.0,0.0,0.0,0.0,0.0,0.0,0.0,0.0,0.0,0.0,0.0,0.0,0.0,0.0,0.0,0.0,0.0,0.0,0.0,0.0,0.0,0.0,0.0,0.0,0.0,0.0,0.0,0.0,0.0,0.0,0.0,0.0,0.0,0.0,0.0,0.0,0.0,0.0,0.0,0.0,0.0,0.0,0.0,0.0,0.0,0.0,0.0,0.0,0.0,0.0,0.0,0.0,0.0,0.0,0.0,0.0,0.0,0.0,0.0,0.0,0.0,0.0,0.0,0.0,0.0,0.0,0.0,0.0,0.0,0.0,0.0,0.0,0.0,0.0,0.0,0.0,0.0,0.0,0.0,0.0,0.0,0.0,0.0,0.0,0.0,0.0,0.0,0.0,0.0,0.0,0.0,0.0,0.0,0.0,0.0,0.0,0.0,0.0,0.0,0.0,0.0,0.0,0.0,0.0,0.0,0.0,0.0,0.0,0.0,0.0,0.0,0.0,0.0,0.0,0.0,0.0,0.0,0.0,0.0,0.0,0.0,0.0,0.0,0.0,0.0,0.0,0.0,0.0,0.0,0.0,0.0,0.0,0.0,0.0,0.0,0.0,0.0,0.0,0.0,0.0,0.0,0.0,0.0,0.0,0.0,0.0,0.0,0.0,0.0,0.0,0.0,0.0,0.0,0.0,0.0,0.0,0.0,0.0,0.0,0.0,0.0,0.0,0.0,0.0,0.0,0.0,0.0,0.0,0.0,0.0,0.0,0.0,0.0,0.0,0.0,0.0,0.0,0.0,0.0,0.0,0.0,0.0,0.0,0.0,0.0,0.0,0.0,0.0,0.0,0.0,0.0,0.0,0.0,0.0,0.0,0.0,0.0,0.0,0.0,0.0,0.0,0.0,0.0,0.0,0.0,0.0,0.0,0.0,0.0,0.0,0.0,0.0,0.0,0.0,0.0,0.0,0.0,0.0,0.0,0.0,0.0,0.0,0.0,0.0,0.0,0.0,0.0,0.0,0.0,0.0,0.0,0.0,0.0,0.0,0.0,0.0,0.0,0.0,0.0,0.0,0.0,0.0,0.0,0.0,0.0,0.0,0.0,0.0,0.0,0.0,0.0,0.0,0.0,0.0,0.0,0.0,0.0,0.0,0.0,0.0,0.0,0.0,0.0,0.0,0.0,0.0,0.0,0.0,0.0,0.0,0.0,0.0,0.0,0.0,0.0,0.0,0.0,0.0,0.0,0.0,0.0,0.0,0.0,0.0,0.0,0.0,0.0,0.0,0.0,0.0,0.0,0.0,0.0,0.0,0.0,0.0,0.0,0.0,0.0,0.0,0.0,0.0,0.0,0.0,0.0,0.0,0.0,0.0,0.0,0.0,0.0,0.0,0.0,0.0,0.0,0.0,0.0,0.0,0.0,0.0,0.0,0.0,0.0,0.0,0.0,0.0,0.0,0.0,0.0,0.0,0.0,0.0,0.0,0.0,0.0,0.0,0.0,0.0,0.0,0.0,0.0,0.0,0.0,0.0,0.0,0.0,0.0,0.0,0.0,0.0,0.0,0.0,0.0,0.0,0.0,0.0,0.0,0.0,0.0,0.0,0.0,0.0,0.0,0.0,0.0,0.0,0.0,0.0,0.0,0.0,0.0,0.0,0.0,0.0,0.0,0.0,0.0,0.0,0.0,0.0,0.0,0.0,0.0,0.0,0.0,0.0,0.0,0.0,0.0,0.0,0.0,0.0,0.0,0.0,0.0,0.0,0.0,0.0,0.0,0.0,0.0,0.0,0.0,0.0,0.0,0.0,0.0,0.0,-1.0303,0.0,0.0,0.0,0.0,0.0,0.0,0.0,0.0,0.0,0.0,0.0,0.0,0.0,0.0,0.0,0.0,0.0,0.0,0.0,0.0,0.0,0.0,0.0,0.0,0.0,0.0,0.0,0.0,0.0,0.0,0.0,0.0,0.0,0.0,0.0,0.0,0.0,0.0,0.0,0.0,0.0,0.0,0.0,0.0,0.0,0.0,0.0,0.0,0.0,0.0,0.0,0.0,0.0,0.0,0.0,0.0,0.0,0.0,0.0,0.0,0.0,0.0,0.0,0.0,0.0,0.0,0.0,0.0,0.0,0.0,0.0,0.0,0.0,0.0,0.0,0.0,0.0,0.0,0.0,0.0,0.0,0.0,0.0,0.0,0.0,0.0,0.0,0.0,0.0,0.0,0.0,0.0,0.0,0.0,0.0,0.0,0.0,0.0,0.0,0.0,0.0,0.0,0.0,0.0,0.0,0.0,0.0,0.0,0.0,0.0,-0.96,-1.0021,-0.9715,-0.958,-0.9705,0.0,0.0,0.0,0.0,0.0,0.0,0.0,0.0,0.0,0.0,0.0,0.0,0.0,0.0,0.0,0.0,0.0,0.0,0.0,0.0,0.0,0.0,0.0,0.0,0.0,0.0,0.0,0.0,0.0,0.0,0.0,0.0,0.0,0.0,0.0,0.0,0.0,0.0,0.0,0.0,0.0,0.0,0.0,0.0,0.0,0.0,0.0,0.0,0.0,0.0,0.0,0.0,0.0,0.0,0.0,0.0,0.0,0.0,0.0,0.0,0.0,0.0,0.0,0.0,0.0,0.0,0.0,0.0,0.0,0.0,0.0,0.0,0.0,0.0,0.0,0.0,0.0,0.0,0.0,0.0,0.0,0.0,0.0,0.0,0.0,0.0,0.0,0.0,0.0,0.0,0.0,0.0,0.0,0.0,0.0,0.0,0.0,0.0,0.0,0.0,0.0,0.0,0.0,0.0,0.0,0.0,0.0,0.0,0.0,0.0,0.0,0.0,-0.9164,-0.8979,-0.9139,0.0,0.0,0.0,0.0,0.0,0.0,0.0,0.0,0.0,0.0,0.0,0.0,0.0,0.0,0.0,0.0,0.0,0.0,0.0,0.0,0.0,0.0,0.0,0.0,0.0,0.0,0.0,0.0,0.0,0.0,0.0,0.0,0.0,0.0,0.0,0.0,0.0,0.0,0.0,0.0,0.0,0.0,0.0,0.0,0.0,0.0,0.0,0.0,0.0,0.0,0.0,0.0,0.0,0.0,0.0,0.0,0.0,0.0,0.0,0.0,0.0,0.0,0.0,0.0,0.0,0.0,0.0,0.0,0.0,0.0,0.0,0.0,0.0,0.0,0.0,0.0,0.0,0.0,0.0,0.0,0.0,0.0,0.0,0.0,0.0,0.0,0.0,0.0,0.0,0.0,0.0,0.0,0.0,0.0,0.0,0.0,0.0,0.0,0.0,0.0,0.0,0.0,0.0,0.0,0.0,0.0,0.0,0.0,0.0,0.0,-0.8895,-0.8888,-0.8948,0.0,-0.8978,0.0,0.0,0.0,0.0,0.0,0.0,0.0,0.0,0.0,0.0,0.0,0.0,0.0,0.0,0.0,0.0,0.0,0.0,0.0,0.0,0.0,0.0,0.0,0.0,0.0,0.0,0.0,0.0,0.0,0.0,0.0,0.0,0.0,0.0,0.0,0.0,0.0,0.0,0.0,0.0,0.0,0.0,0.0,0.0,0.0,0.0,0.0,0.0,0.0,0.0,0.0,0.0,0.0,0.0,0.0,0.0,0.0,0.0,0.0,0.0,0.0,0.0,0.0,0.0,0.0,0.0,0.0,0.0,0.0,0.0,0.0,0.0,0.0,0.0,0.0,0.0,0.0,0.0,0.0,0.0,0.0,0.0,0.0,0.0,0.0,0.0,0.0,0.0,0.0,0.0,0.0,0.0,0.0,0.0,0.0,0.0,0.0,0.0,0.0,0.0,0.0,0.0,0.0,0.0,0.0,0.0,0.0,0.0,0.0,0.0,-0.8487,-0.8383,-0.855,-0.8513,0.0,0.0,0.0,0.0,0.0,0.0,0.0,0.0,0.0,0.0,0.0,0.0,0.0,0.0,0.0,0.0,0.0,0.0,0.0,0.0,0.0,0.0,0.0,0.0,0.0,0.0,0.0,0.0,0.0,0.0,0.0,0.0,0.0,0.0,0.0,0.0,0.0,0.0,0.0,0.0,0.0,0.0,0.0,0.0,0.0,0.0,0.0,0.0,0.0,0.0,0.0,0.0,0.0,0.0,0.0,0.0,0.0,0.0,0.0,0.0,0.0,0.0,0.0,0.0,0.0,0.0,0.0,0.0,0.0,0.0,0.0,0.0,0.0,0.0,0.0,0.0,0.0,0.0,0.0,0.0,0.0,0.0,0.0,0.0,0.0,0.0,0.0,0.0,0.0,0.0,0.0,0.0,0.0,0.0,0.0,0.0,0.0,0.0,0.0,0.0,0.0,0.0,0.0,0.0,0.0,0.0,0.0,0.0,0.0,0.0,-0.8489,-0.8334,-0.8195,-0.825,-0.8138,-0.7831,0.0,0.0,0.0,0.0,0.0,0.0,0.0,0.0,0.0,0.0,0.0,0.0,0.0,0.0,0.0,0.0,0.0,0.0,0.0,0.0,0.0,0.0,0.0,0.0,0.0,0.0,0.0,0.0,0.0,0.0,0.0,0.0,0.0,0.0,0.0,0.0,0.0,0.0,0.0,0.0,0.0,0.0,0.0,0.0,0.0,0.0,0.0,0.0,0.0,0.0,0.0,0.0,0.0,0.0,0.0,0.0,0.0,0.0,0.0,0.0,0.0,0.0,0.0,0.0,0.0,0.0,0.0,0.0,0.0,0.0,0.0,0.0,0.0,0.0,0.0,0.0,0.0,0.0,0.0,0.0,0.0,0.0,0.0,0.0,0.0,0.0,0.0,0.0,0.0,0.0,0.0,0.0,0.0,0.0,0.0,0.0,0.0,0.0,0.0,0.0,0.0,0.0,0.0,0.0,0.0,0.0,0.0,0.0,-0.8953,-0.8763,-0.8569,-0.8366,-0.8154,-0.8122,0.0,0.0,0.0,0.0,0.0,0.0,0.0,0.0,0.0,0.0,0.0,0.0,0.0,0.0,0.0,0.0,0.0,0.0,0.0,0.0,0.0,0.0,0.0,0.0,0.0,0.0,0.0,0.0,0.0,0.0,0.0,0.0,0.0,0.0,0.0,0.0,0.0,0.0,0.0,0.0,0.0,0.0,0.0,0.0,0.0,0.0,0.0,0.0,0.0,0.0,0.0,0.0,0.0,0.0,0.0,0.0,0.0,0.0,0.0,0.0,0.0,0.0,0.0,0.0,0.0,0.0,0.0,0.0,0.0,0.0,0.0,0.0,0.0,0.0,0.0,0.0,0.0,0.0,0.0,0.0,0.0,0.0,0.0,0.0,0.0,0.0,0.0,0.0,0.0,0.0,0.0,0.0,0.0,0.0,0.0,0.0,0.0,0.0,0.0,0.0,0.0,0.0,0.0,0.0,0.0,0.0,0.0,0.0,0.0,-0.8731,-0.8265,-0.8011,-0.8,-0.7701,-0.7563,0.0,0.0,0.0,0.0,0.0,0.0,0.0,0.0,0.0,0.0,0.0,0.0,0.0,0.0,0.0,0.0,0.0,0.0,0.0,0.0,0.0,0.0,0.0,0.0,0.0,0.0,0.0,0.0,0.0,0.0,0.0,0.0,0.0,0.0,0.0,0.0,0.0,0.0,0.0,0.0,0.0,0.0,0.0,0.0,0.0,0.0,0.0,0.0,0.0,0.0,0.0,0.0,0.0,0.0,0.0,0.0,0.0,0.0,0.0,0.0,0.0,0.0,0.0,0.0,0.0,0.0,0.0,0.0,0.0,0.0,0.0,0.0,0.0,0.0,0.0,0.0,0.0,0.0,0.0,0.0,0.0,0.0,0.0,0.0,0.0,0.0,0.0,0.0,0.0,0.0,0.0,0.0,0.0,0.0,0.0,0.0,0.0,0.0,0.0,0.0,0.0,0.0,0.0,0.0,0.0,0.0,0.0,0.0,0.0,-0.862,0.0,-0.778,-0.779,-0.7584,-0.7428,0.0,0.0,0.0,0.0,0.0,0.0,0.0,0.0,0.0,0.0,0.0,0.0,0.0,0.0,0.0,0.0,0.0,0.0,0.0,0.0,0.0,0.0,0.0,0.0,0.0,0.0,0.0,0.0,0.0,0.0,0.0,0.0,0.0,0.0,0.0,0.0,0.0,0.0,0.0,0.0,0.0,0.0,0.0,0.0,0.0,0.0,0.0,0.0,0.0,0.0,0.0,0.0,0.0,0.0,0.0,0.0,0.0,0.0,0.0,0.0,0.0,0.0,0.0,0.0,0.0,0.0,0.0,0.0,0.0,0.0,0.0,0.0,0.0,0.0,0.0,0.0,0.0,0.0,0.0,0.0,0.0,0.0,0.0,0.0,0.0,0.0,0.0,0.0,0.0,0.0,0.0,0.0,0.0,0.0,0.0,0.0,0.0,0.0,0.0,0.0,0.0,0.0,0.0,0.0,0.0,0.0,0.0,0.0,-0.8898,-0.8699,-0.8273,-0.7981,-0.7822,-0.7763,-0.7732,0.0,0.0,0.0,0.0,0.0,0.0,0.0,0.0,0.0,0.0,0.0,0.0,0.0,0.0,0.0,0.0,0.0,0.0,0.0,0.0,0.0,0.0,0.0,0.0,0.0,0.0,0.0,0.0,0.0,0.0,0.0,0.0,0.0,0.0,0.0,0.0,0.0,0.0,0.0,0.0,0.0,0.0,0.0,0.0,0.0,0.0,0.0,0.0,0.0,0.0,0.0,0.0,0.0,0.0,0.0,0.0,0.0,0.0,0.0,0.0,0.0,0.0,0.0,0.0,0.0,0.0,0.0,0.0,0.0,0.0,0.0,0.0,0.0,0.0,0.0,0.0,0.0,0.0,0.0,0.0,0.0,0.0,0.0,0.0,0.0,0.0,0.0,0.0,0.0,0.0,0.0,0.0,0.0,0.0,0.0,0.0,0.0,0.0,0.0,0.0,0.0,0.0,0.0,0.0,0.0,0.0,0.0,0.0,0.0,-0.8679,-0.8089,-0.7865,-0.8038,-0.7355,-0.7224,0.0,0.0,0.0,0.0,0.0,0.0,0.0,0.0,0.0,0.0,0.0,0.0,0.0,0.0,0.0,0.0,0.0,0.0,0.0,0.0,0.0,0.0,0.0,0.0,0.0,0.0,0.0,0.0,0.0,0.0,0.0,0.0,0.0,0.0,0.0,0.0,0.0,0.0,0.0,0.0,0.0,0.0,0.0,0.0,0.0,0.0,0.0,0.0,0.0,0.0,0.0,0.0,0.0,0.0,0.0,0.0,0.0,0.0,0.0,0.0,0.0,0.0,0.0,0.0,0.0,0.0,0.0,0.0,0.0,0.0,0.0,0.0,0.0,0.0,0.0,0.0,0.0,0.0,0.0,0.0,0.0,0.0,0.0,0.0,0.0,0.0,0.0,0.0,0.0,0.0,0.0,0.0,0.0,0.0,0.0,0.0,0.0,0.0,0.0,0.0,0.0,0.0,0.0,0.0,0.0,0.0,0.0,0.0,0.0,-0.9336,-0.8512,-0.8152,-0.8262,-0.7608,-0.7394,-0.7694,0.0,0.0,0.0,0.0,0.0,0.0,0.0,0.0,0.0,0.0,0.0,0.0,0.0,0.0,0.0,0.0,0.0,0.0,0.0,0.0,0.0,0.0,0.0,0.0,0.0,0.0,0.0,0.0,0.0,0.0,0.0,0.0,0.0,0.0,0.0,0.0,0.0,0.0,0.0,0.0,0.0,0.0,0.0,0.0,0.0,0.0,0.0,0.0,0.0,0.0,0.0,0.0,0.0,0.0,0.0,0.0,0.0,0.0,0.0,0.0,0.0,0.0,0.0,0.0,0.0,0.0,0.0,0.0,0.0,0.0,0.0,0.0,0.0,0.0,0.0,0.0,0.0,0.0,0.0,0.0,0.0,0.0,0.0,0.0,0.0,0.0,0.0,0.0,0.0,0.0,0.0,0.0,0.0,0.0,0.0,0.0,0.0,0.0,0.0,0.0,0.0,0.0,0.0,0.0,0.0,0.0,0.0,0.0,-1.0543,-0.9604,-0.8952,-0.8579,-0.8437,-0.8096,0.0,0.0,0.0,0.0,0.0,0.0,0.0,0.0,0.0,0.0,0.0,0.0,0.0,0.0,0.0,0.0,0.0,0.0,0.0,0.0,0.0,0.0,0.0,0.0,0.0,0.0,0.0,0.0,0.0,0.0,0.0,0.0,0.0,0.0,0.0,0.0,0.0,0.0,0.0,0.0,0.0,0.0,0.0,0.0,0.0,0.0,0.0,0.0,0.0,0.0,0.0,0.0,0.0,0.0,0.0,0.0,0.0,0.0,0.0,0.0,0.0,0.0,0.0,0.0,0.0,0.0,0.0,0.0,0.0,0.0,0.0,0.0,0.0,0.0,0.0,0.0,0.0,0.0,0.0,0.0,0.0,0.0,0.0,0.0,0.0,0.0,0.0,0.0,0.0,0.0,0.0,0.0,0.0,0.0,0.0,0.0,0.0,0.0,0.0,0.0,0.0,0.0,0.0,0.0,0.0,0.0,0.0,0.0,0.0,-1.1105,-1.148,-1.1234,-1.0205,-0.9115,-0.8393,0.0,0.0,0.0,0.0,0.0,0.0,0.0,0.0,0.0,0.0,0.0,0.0,0.0,0.0,0.0,0.0,0.0,0.0,0.0,0.0,0.0,0.0,0.0,0.0,0.0,0.0,0.0,0.0,0.0,0.0,0.0,0.0,0.0,0.0,0.0,0.0,0.0,0.0,0.0,0.0,0.0,0.0,0.0,0.0,0.0,0.0,0.0,0.0,0.0,0.0,0.0,0.0,0.0,0.0,0.0,0.0,0.0,0.0,0.0,0.0,0.0,0.0,0.0,0.0,0.0,0.0,0.0,0.0,0.0,0.0,0.0,0.0,0.0,0.0,0.0,0.0,0.0,0.0,0.0,0.0,0.0,0.0,0.0,0.0,0.0,0.0,0.0,0.0,0.0,0.0,0.0,0.0,0.0,0.0,0.0,0.0,0.0,0.0,0.0,0.0,0.0,0.0,0.0,0.0,0.0,0.0,0.0,0.0,-1.1478,-1.2032,-1.2774,-1.2776,-1.1971,-1.0119,-0.8852,0.0,0.0,0.0,0.0,0.0,0.0,0.0,0.0,0.0,0.0,0.0,0.0,0.0,0.0,0.0,0.0,0.0,0.0,0.0,0.0,0.0,0.0,0.0,0.0,0.0,0.0,0.0,0.0,0.0,0.0,0.0,0.0,0.0,0.0,0.0,0.0,0.0,0.0,0.0,0.0,0.0,0.0,0.0,0.0,0.0,0.0,0.0,0.0,0.0,0.0,0.0,0.0,0.0,0.0,0.0,0.0,0.0,0.0,0.0,0.0,0.0,0.0,0.0,0.0,0.0,0.0,0.0,0.0,0.0,0.0,0.0,0.0,0.0,0.0,0.0,0.0,0.0,0.0,0.0,0.0,0.0,0.0,0.0,0.0,0.0,0.0,0.0,0.0,0.0,0.0,0.0,0.0,0.0,0.0,0.0,0.0,0.0,0.0,0.0,0.0,0.0,0.0,0.0,0.0,0.0,0.0,0.0,0.0,-1.2067,-1.3093,-1.3644,-1.3835,-1.3536,-1.1233,-0.9393,0.0,0.0,0.0,0.0,0.0,0.0,0.0,0.0,0.0,0.0,0.0,0.0,0.0,0.0,0.0,0.0,0.0,0.0,0.0,0.0,0.0,0.0,0.0,0.0,0.0,0.0,0.0,0.0,0.0,0.0,0.0,0.0,0.0,0.0,0.0,0.0,0.0,0.0,0.0,0.0,0.0,0.0,0.0,0.0,0.0,0.0,0.0,0.0,0.0,0.0,0.0,0.0,0.0,0.0,0.0,0.0,0.0,0.0,0.0,0.0,0.0,0.0,0.0,0.0,0.0,0.0,0.0,0.0,0.0,0.0,0.0,0.0,0.0,0.0,0.0,0.0,0.0,0.0,0.0,0.0,0.0,0.0,0.0,0.0,0.0,0.0,0.0,0.0,0.0,0.0,0.0,0.0,0.0,0.0,0.0,0.0,0.0,0.0,0.0,0.0,0.0,0.0,0.0,0.0,0.0,0.0,0.0,0.0,-1.353,-1.3865,-1.4546,-1.4672,-1.4209,-1.1732,-0.979,0.0,0.0,0.0,0.0,0.0,0.0,0.0,0.0,0.0,0.0,0.0,0.0,0.0,0.0,0.0,0.0,0.0,0.0,0.0,0.0,0.0,0.0,0.0,0.0,0.0,0.0,0.0,0.0,0.0,0.0,0.0,0.0,0.0,0.0,0.0,0.0,0.0,0.0,0.0,0.0,0.0,0.0,0.0,0.0,0.0,0.0,0.0,0.0,0.1723,0.0,0.0,0.0,0.0,0.0,0.0,0.0,0.0,0.0,0.0,0.0,0.0,0.0,0.0,0.0,0.0,0.0,0.0,0.0,0.0,0.0,0.0,0.0,0.0,0.0,0.0,0.0,0.0,0.0,0.0,0.0,0.0,0.0,0.0,0.0,0.0,0.0,0.0,0.0,0.0,0.0,0.0,0.0,0.0,0.0,0.0,0.0,0.0,0.0,0.0,0.0,0.0,0.0,0.0,0.0,0.0,0.0,0.0,0.0,-1.3577,-1.404,-1.4313,-1.4253,-1.3783,-1.1412,-0.9695,0.0,0.0,0.0,0.0,0.0,0.0,0.0,0.0,0.0,0.0,0.0,0.0,0.0,0.0,0.0,0.0,0.0,0.0,0.0,0.0,0.0,0.0,0.0,0.0,0.0,0.0,0.0,0.0,0.0,0.0,0.0,0.0,0.0,0.0,0.0,0.0,0.0,0.0,0.0,0.0,0.0,0.0,0.0,0.0,0.0,0.0,0.0,0.0,0.0,0.0,0.0,0.0,0.0,0.0,0.0,0.0,0.0,0.0,0.0,0.0,0.0,0.0,0.0,0.0,0.0,0.0,0.0,0.0,0.0,0.0,0.0,0.0,0.0,0.0,0.0,0.0,0.0,0.0,0.0,0.0,0.0,0.0,0.0,0.0,0.0,0.0,0.0,0.0,0.0,0.0,0.0,0.0,0.0,0.0,0.0,0.0,0.0,0.0,0.0,0.0,0.0,0.0,0.0,0.0,0.0,0.0,0.0,-1.2628,-1.3305,-1.4114,-1.3738,-1.3414,-1.3191,-1.084,-0.933,-0.888,0.0,0.0,0.0,0.0,0.0,0.0,0.0,0.0,0.0,0.0,0.0,0.0,0.0,0.0,0.0,0.0,0.0,0.0,0.0,0.0,0.0,0.0,0.0,0.0,0.0,0.0,0.0,0.0,0.0,0.0,0.0,0.0,0.0,0.0,0.0,0.0,0.0,0.0,0.043,0.0677,0.0,0.0,0.0,0.0,0.0,0.0,0.0,0.0,0.1856,0.0,0.0,0.0,0.0,0.0,0.0,0.0,0.0,0.0,0.0,0.0,0.0,0.0,0.0,0.0,0.0,0.0,0.0,0.0,0.0,0.0,0.0,0.0,0.0,0.0,0.0,0.0,0.0,0.0,0.0,0.0,0.0,0.0,0.0,0.0,0.0,0.0,0.0,0.0,0.0,0.0,0.0,0.0,0.0,0.0,0.0,0.0,0.0,0.0,0.0,0.0,0.0,0.0,0.0,0.0,0.0,-1.3085,-1.3479,-1.4083,-1.4872,-1.3817,-1.3224,-1.3134,-1.0429,-0.875,-0.8298,0.0,0.0,0.0,0.0,0.0,0.0,0.0,0.0,0.0,0.0,0.0,0.0,0.0,0.0,0.0,0.0,0.0,0.0,0.0,0.0,0.0,0.0,0.0,0.0,0.0,0.0,0.0,0.0,0.0,0.0,0.0,0.0,0.0,0.0,0.0,0.0,0.0,0.0,0.0,0.0805,0.0975,0.0,0.0,0.0,0.0,0.0,0.0,0.0,0.0,0.1622,0.0,0.0,0.0,0.0,0.0,0.0,0.0,0.0,0.0,0.0,0.0,0.0,0.0,0.0,0.0,0.0,0.0,0.0,0.0,0.0,0.0,0.0,0.0,0.0,0.0,0.0,0.0,0.0,0.0,0.0,0.0,0.0,0.0,0.0,0.0,0.0,0.0,0.0,0.0,0.0,0.0,0.0,0.0,0.0,0.0,0.0,0.0,0.0,0.0,0.0,0.0,0.0,0.0,0.0,0.0,-1.3368,-1.3543,-1.3864,-1.4403,-1.3178,-1.2391,-1.2224,-0.9827,-0.8294,0.0,0.0,0.0,0.0,0.0,0.0,0.0,0.0,0.0,0.0,0.0,0.0,0.0,0.0,0.0,0.0,0.0,0.0,0.0,0.0,0.0,0.0,0.0,0.0,0.0,0.0,0.0,0.0,0.0,0.0,0.0,0.0,0.0,0.0,0.0,0.0,0.0,0.0,0.0,0.0,0.0075,0.0241,0.0039,0.0,0.0,0.0,0.0,0.0,0.0,0.1225,0.1251,0.0,0.0,0.0,0.0,0.0,0.0,0.0,0.0,0.0,0.0,0.0,0.0,0.0,0.0,0.0,0.0,0.0,0.0,0.0,0.0,0.0,0.0,0.0,0.0,0.0,0.0,0.0,0.0,0.0,0.0,0.0,0.0,0.0,0.0,0.0,0.0,0.0,0.0,0.0,0.0,0.0,0.0,0.0,0.0,0.0,0.0,0.0,0.0,0.0,0.0,0.0,0.0,0.0,0.0,0.0,-1.3355,-1.3257,-1.3387,-1.3707,-1.2454,-1.1624,-1.1257,-0.9295,-0.805,0.0,0.0,0.0,0.0,0.0,0.0,0.0,0.0,0.0,0.0,0.0,0.0,0.0,0.0,0.0,0.0,0.0,0.0,0.0,0.0,0.0,0.0,0.0,0.0,0.0,0.0,0.0,0.0,0.0,0.0,0.0,0.0,0.0,0.0,0.0,0.0,0.0,0.0,0.0,0.0,0.0,-0.0463,-0.083,-0.0387,0.0,0.0,0.0,0.0,0.0996,0.0881,0.0,0.0,0.0,0.0,0.0,0.0,0.0,0.0,0.0,0.0,0.0,0.0,0.0,0.0,0.0,0.0,0.0,0.0,0.0,0.0,0.0,0.0,0.0,0.0,0.0,0.0,0.0,0.0,0.0,0.0,0.0,0.0,0.0,0.0,0.0,0.0,0.0,0.0,0.0,0.0,0.0,0.0,0.0,0.0,0.0,0.0,0.0,0.0,0.0,0.0,0.0,0.0,0.0,0.0,0.0,0.0,-1.2952,-1.285,-1.2974,-1.3287,-1.2223,-1.1395,-1.087,-0.9266,-0.8137,0.0,0.0,0.0,0.0,0.0,0.0,0.0,0.0,0.0,0.0,0.0,0.0,0.0,0.0,0.0,0.0,0.0,0.0,0.0,0.0,0.0,0.0,0.0,0.0,0.0,0.0,0.0,0.0,0.0,0.0,0.0,0.0,0.0,0.0,0.0,0.0,0.0,0.0,0.0,0.0,0.0,-0.0393,-0.046,-0.0042,0.0266,0.0,0.0,0.0021,0.0291,0.0258,0.0,0.0,0.0,0.0,0.0,0.0,0.0,0.0,0.0,0.0,0.0,0.0,0.0,0.0,0.0,0.0,0.0,0.0,0.0,0.0,0.0,0.0,0.0,0.0,0.0,0.0,0.0,0.0,0.0,0.0,0.0,0.0,0.0,0.0,0.0,0.0,0.0,0.0,0.0,0.0,0.0,0.0,0.0,0.0,0.0,0.0,0.0,0.0,0.0,0.0,0.0,0.0,0.0,0.0,0.0,-1.2654,-1.3093,-1.2854,-1.2781,-1.2929,-1.2167,-1.1494,-1.0923,-0.9668,-0.871,0.0,0.0,0.0,0.0,0.0,0.0,0.0,0.0,0.0,0.0,0.0,0.0,0.0,0.0,0.0,0.0,0.0,0.0,0.0,0.0,0.0,0.0,0.0,0.0,0.0,0.0,0.0,0.0,0.0,0.0,0.0,0.0,0.0,0.0,0.0,0.0,0.0,0.0,0.0,0.0,0.0,0.0,-0.1305,-0.0926,0.0,0.0,0.0,-0.0579,0.0,0.0,0.0,0.0,0.0,0.0,0.0,0.0,0.0,0.0,0.0,0.0,0.0,0.0,0.0,0.0,0.0,0.0,0.0,0.0,0.0,0.0,0.0,0.0,0.0,0.0,0.0,0.0,0.0,0.0,0.0,0.0,0.0,0.0,0.0,0.0,0.0,0.0,0.0,0.0,0.0,0.0,0.0,0.0,0.0,0.0,0.0,0.0,0.0,0.0,0.0,0.0,0.0,0.0,0.0,0.0,0.0,0.0,-1.3128,-1.2747,-1.2542,-1.2542,-1.2155,-1.1662,-1.1082,-1.0251,0.0,0.0,0.0,0.0,0.0,0.0,0.0,0.0,0.0,0.0,0.0,0.0,0.0,0.0,0.0,0.0,0.0,0.0,0.0,0.0,0.0,0.0,0.0,0.0,0.0,0.0,0.0,-0.2245,0.0,0.0,0.0,0.0,0.0,0.0,0.0,0.0,0.0,0.0,0.0,0.0,0.0,0.0,-0.1955,-0.2065,-0.1729,-0.1449,0.0,0.0,-0.121,-0.0582,-0.113,-0.1178,0.0,0.0,0.0,0.0,0.0,0.0,0.0,0.0,0.0,0.0,0.0,0.0,0.0,0.0,0.0,0.0,0.0,0.0,0.0,0.0,0.0,0.0,0.0,0.0,0.0,0.0,0.0,0.0,0.0,0.0,0.0,0.0,0.0,0.0,0.0,0.0,0.0,0.0,0.0,0.0,0.0,0.0,0.0,0.0,0.0,0.0,0.0,0.0,0.0,0.0,0.0,0.0,0.0,0.0,0.0,-1.2724,-1.2345,-1.2147,-1.2138,-1.2113,-1.183,-1.1301,-1.1032,-1.0527,0.0,0.0,0.0,0.0,0.0,0.0,0.0,0.0,0.0,0.0,0.0,0.0,0.0,0.0,0.0,0.0,0.0,0.0,0.0,0.0,0.0,0.0,0.0,0.0,0.0,0.0,0.0,0.0,0.0,0.0,0.0,0.0,0.0,0.0,0.0,0.0,0.0,0.0,0.0,0.0,0.0,-0.2276,-0.228,-0.1935,-0.1779,0.0,0.0,-0.1777,-0.1764,-0.1865,-0.1643,-0.0751,0.0,0.0,0.0,0.0,0.0,0.0,0.0,0.0,0.0,0.0,0.0,0.0,0.0,0.0,0.0,0.0,0.0,0.0,0.0,0.0,0.0,0.0,0.0,0.0,0.0,0.0,0.0,0.0,0.0,0.0,0.0,0.0,0.0,0.0,0.0,0.0,0.0,0.0,0.0,0.0,0.0,0.0,0.0,0.0,0.0,0.0,0.0,0.0,0.0,0.0,0.0,0.0,0.0,-1.3199,-1.3848,-1.3033,-1.2586,-1.2596,-1.2519,-1.2248,-1.1803,-1.1551,-1.1124,0.0,0.0,0.0,0.0,0.0,0.0,0.0,0.0,0.0,0.0,0.0,0.0,0.0,0.0,0.0,0.0,0.0,0.0,0.0,0.0,0.0,0.0,0.0,0.0,0.0,0.0,0.0,0.0,-0.4155,-0.4106,-0.3969,0.0,0.0,0.0,0.0,0.0,0.0,0.0,0.0,0.0,0.0,-0.2953,-0.3024,-0.2757,0.0,0.0,-0.2494,-0.2279,-0.1909,-0.221,-0.2093,-0.0879,-0.0549,0.0,0.0,0.0,0.0,0.0,0.0,0.0,0.0,0.0,0.0,0.0,0.0,0.0,0.0,0.0,0.0,0.0,0.0,0.0,0.0,0.0,0.0,0.0,0.0,0.0,0.0,0.0,0.0,0.0,0.0,0.0,0.0,0.0,0.0,0.0,0.0,0.0,0.0,0.0,0.0,0.0,0.0,0.0,0.0,0.0,0.0,0.0,0.0,0.0,0.0,0.0,0.0,-1.3736,-1.4572,-1.3404,-1.2835,-1.2974,-1.2707,-1.2462,-1.216,-1.1952,-1.1603,0.0,0.0,0.0,0.0,0.0,0.0,0.0,0.0,0.0,0.0,0.0,0.0,0.0,0.0,0.0,0.0,0.0,0.0,0.0,0.0,0.0,0.0,0.0,0.0,0.0,0.0,0.0,0.0,-0.51,-0.5031,-0.4809,0.0,0.0,0.0,0.0,0.0,0.0,0.0,0.0,0.0,0.0,-0.3885,-0.3804,-0.355,-0.3316,-0.3131,-0.285,-0.2533,-0.2101,-0.2393,-0.2308,-0.1227,0.0,0.0,0.0,0.0,0.0,0.0,0.0,0.0,0.0,0.0,0.0,0.0,0.0,0.0,0.0,0.0,0.0,0.0,0.0,0.0,0.0,0.0,0.0,0.0,0.0,0.0,0.0,0.0,0.0,0.0,-1.5591,0.0,0.0,0.0,0.0,0.0,0.0,0.0,0.0,0.0,0.0,0.0,0.0,0.0,0.0,0.0,0.0,0.0,0.0,0.0,0.0,0.0,0.0,-1.42,-1.4599,-1.3293,-1.2742,-1.3067,-1.2607,-1.2336,-1.2298,-1.2175,-1.1943,-1.1678,0.0,0.0,0.0,0.0,0.0,0.0,0.0,0.0,0.0,0.0,0.0,0.0,0.0,0.0,0.0,0.0,0.0,0.0,0.0,0.0,0.0,0.0,0.0,0.0,0.0,0.0,-0.5464,-0.5806,-0.612,0.0,0.0,0.0,0.0,0.0,0.0,0.0,0.0,0.0,0.0,-0.4903,-0.5125,-0.4565,-0.42,-0.3898,-0.3644,-0.2951,-0.248,-0.2581,-0.2505,-0.2288,0.0,0.0,0.0,0.0,0.0,0.0,0.0,0.0,0.0,0.0,0.0,0.0,0.0,0.0,0.0,0.0,0.0,0.0,0.0,0.0,0.0,0.0,0.0,0.0,0.0,0.0,0.0,-1.6811,-1.6776,0.0,0.0,0.0,0.0,0.0,0.0,0.0,0.0,0.0,0.0,0.0,-1.9554,-1.9146,0.0,0.0,0.0,0.0,0.0,0.0,0.0,0.0,0.0,0.0,0.0,0.0,-1.492,-1.5631,-1.4515,-1.3823,-1.3698,-1.3396,-1.2978,-1.244,-1.2397,-1.2249,-1.1952,0.0,0.0,0.0,0.0,0.0,0.0,0.0,0.0,0.0,0.0,0.0,0.0,0.0,0.0,0.0,0.0,0.0,0.0,0.0,0.0,0.0,0.0,0.0,0.0,0.0,-0.6657,0.0,0.0,0.0,0.0,0.0,0.0,0.0,0.0,0.0,0.0,0.0,-0.5583,-0.5336,-0.5094,-0.4906,-0.4769,-0.4514,-0.4436,0.0,0.0,0.0,0.0,0.0,0.0,0.0,0.0,0.0,0.0,0.0,0.0,0.0,0.0,0.1105,0.2347,0.2421,0.2422,0.2766,0.0,0.0,0.0,0.0,0.0,0.0,0.0,0.0,0.0,0.0,0.0,0.0,0.0,0.0,-1.8753,0.0,-1.8969,0.0,0.0,0.0,0.0,0.0,0.0,0.0,0.0,-2.0204,-2.0818,-2.1817,-2.1619,-2.1367,0.0,-2.0026,-1.8881,0.0,0.0,0.0,0.0,0.0,0.0,0.0,0.0,-1.5605,-1.649,-1.5147,-1.4382,-1.4266,-1.3976,-1.3494,-1.2792,-1.2605,-1.2397,-1.2258,-1.1778,-1.1405,0.0,0.0,0.0,0.0,0.0,0.0,0.0,0.0,0.0,0.0,0.0,0.0,0.0,0.0,0.0,0.0,0.0,0.0,0.0,0.0,0.0,0.0,0.0,-0.7352,0.0,0.0,0.0,0.0,0.0,0.0,0.0,0.0,0.0,-0.6293,-0.6416,-0.6524,-0.6299,-0.6026,-0.5717,-0.546,0.0,0.0,0.0,0.0,0.0,0.0,0.0,-0.3492,-0.29,-0.2884,-0.2864,-0.2671,-0.2278,-0.1781,-0.1251,0.0,0.0,0.093,0.1016,0.1013,0.1566,0.186,0.2084,0.2375,0.2453,0.2531,0.0,0.0,0.0,0.0,0.0,0.0,0.0,0.0,-2.0152,-2.0086,0.0,-2.0075,0.0,0.0,0.0,0.0,0.0,-2.0858,0.0,0.0,-2.1722,-2.2035,-2.263,-2.3157,-2.31,-2.2518,-2.1793,-2.0988,-1.9975,-1.749,0.0,0.0,0.0,0.0,0.0,0.0,-1.6192,-1.6983,-1.5161,-1.4404,-1.4775,-1.4286,-1.3797,-1.3327,-1.2817,-1.2524,-1.2505,-1.2357,-1.2234,-1.211,-1.2194,0.0,0.0,0.0,0.0,0.0,0.0,0.0,0.0,0.0,0.0,0.0,0.0,0.0,0.0,0.0,0.0,0.0,0.0,0.0,0.0,-0.7916,0.0,0.0,0.0,0.0,0.0,0.0,0.0,0.0,0.0,0.0,-0.6802,-0.7258,-0.7582,-0.7246,0.0,0.0,0.0,0.0,-0.585,-0.4939,-0.4388,-0.4075,-0.3966,-0.4459,-0.467,-0.4077,0.0,0.0,-0.3567,-0.2728,-0.2227,-0.2112,-0.2362,-0.2078,-0.0615,-0.0218,0.0028,0.0511,0.0685,0.1088,0.1794,0.1768,0.1878,-2.4709,0.0,0.0,0.0,0.0,-2.2604,-2.3482,-2.4779,-2.4652,-2.4318,-2.3916,-2.3631,0.0,0.0,0.0,0.0,0.0,0.0,-2.3679,-2.4541,-2.4382,-2.4866,-2.5877,-2.5667,-2.5401,-2.508,-2.3676,-2.2657,-2.1846,-1.9934,-1.8761,-1.8398,0.0,0.0,0.0,0.0,-1.7128,-1.6657,-1.591,-1.542,-1.5225,-1.4796,-1.4221,-1.3474,-1.3211,-1.2959,-1.2671,-1.2529,-1.2372,-1.2249,-1.2286,0.0,0.0,0.0,0.0,0.0,0.0,0.0,0.0,0.0,0.0,0.0,0.0,0.0,0.0,0.0,0.0,0.0,0.0,0.0,-0.9221,-0.8904,-0.8685,0.0,0.0,0.0,0.0,0.0,0.0,0.0,0.0,0.0,-0.8068,-0.7834,-0.7711,0.0,0.0,-0.6926,-0.6595,-0.6415,-0.635,-0.6418,-0.6187,0.0,-0.6392,-0.6238,-0.5982,-0.5656,-0.5506,-0.5252,-0.481,-0.4318,-0.3945,-0.3744,-0.3771,-0.3615,-0.2968,-0.2211,-0.1596,-0.1116,-0.098,-0.0717,-0.003,0.015,0.0329,-2.8668,-2.5729,-2.4335,-2.4227,-2.5033,-2.5264,-2.6064,-2.7246,-2.7188,-2.6939,-2.6553,-2.6127,-2.5207,-2.4047,-2.4065,0.0,0.0,0.0,-2.5547,-2.6391,-2.6433,-2.7009,-2.7883,-2.7869,-2.7621,-2.7215,-2.5861,-2.4809,-2.3977,-2.2558,-2.1557,-2.0927,0.0,0.0,-1.9232,-1.8755,-1.83,-1.7889,-1.7165,-1.6558,-1.6066,-1.5249,-1.4531,-1.4033,-1.3604,-1.3278,-1.3035,-1.2797,-1.2627,-1.2529,-1.2632,-1.2582,0.0,0.0,0.0,0.0,0.0,0.0,0.0,0.0,0.0,0.0,0.0,-1.0268,0.0,0.0,0.0,0.0,-1.0533,-1.0327,-0.9851,-0.9642,0.0,0.0,0.0,0.0,0.0,0.0,0.0,-0.9765,-0.9882,-0.9852,-0.948,-0.9118,-0.8733,-0.8301,-0.7751,-0.7334,-0.7238,0.0,-0.7068,-0.7313,-0.7267,-0.7265,-0.7483,-0.76,-0.7588,-0.727,-0.6564,-0.6065,-0.6032,-0.5609,-0.519,-0.5013,-0.4727,-0.4432,-0.4304,-0.3668,-0.2984,-0.2363,-0.2203,-0.197,-0.1252,-0.1105,-0.0858,-3.2136,-3.0761,-2.8342,-2.7445,-2.7544,-2.763,-2.7921,-2.8423,-2.8436,-2.8398,-2.8323,-2.7795,-2.7301,-2.686,-2.6489,0.0,-2.5887,-2.6624,-2.7132,-2.7494,-2.8009,-2.8511,-2.8988,-2.9528,-2.9515,-2.895,-2.8065,-2.714,-2.6226,-2.5182,-2.4484,-2.3908,-2.1298,-2.0174,-2.0465,-1.989,-1.9704,-1.998,-1.8675,-1.7727,-1.7165,-1.5706,-1.4863,-1.4824,-1.4043,-1.3603,-1.3519,-1.3193,-1.3003,-1.3023,-1.3249,-1.3262,-1.3089,0.0,0.0,0.0,0.0,0.0,0.0,0.0,0.0,0.0,0.0,0.0,0.0,0.0,0.0,0.0,-1.1859,0.0,-1.0387,-1.0365,0.0,0.0,0.0,-1.1238,-1.2055,-1.1837,-1.1726,-1.1945,0.0,0.0,-1.0906,-1.0821,-1.0357,-0.9157,-0.8692,-0.8431,-0.8309,-0.8105,-0.7904,-0.7801,-0.7856,-0.783,-0.7779,-0.8533,-0.9018,-0.865,-0.7765,-0.7098,-0.7113,-0.6551,-0.6077,-0.5836,-0.5209,-0.4676,-0.4788,-0.4517,-0.4135,-0.3243,-0.3097,-0.2874,-0.2162,-0.2003,-0.1755,-3.4983,-3.4254,-3.3168,-3.1612,-2.9867,-3.0244,-3.0721,-3.1235,-3.1235,-3.0997,-3.0583,-3.0055,-2.9277,-2.8372,-2.8283,-2.8184,-2.8135,-2.8774,-2.9101,-2.9202,-2.934,-2.9465,-2.9603,-2.9729,-2.9729,-2.9527,-2.8898,-2.8437,-2.8176,-2.7136,-2.6288,-2.5593,-2.4553,-2.3232,-2.1753,-2.1822,-2.129,-2.0189,-1.9801,-1.8965,-1.7656,-1.6427,-1.5625,-1.5264,-1.4756,-1.4326,-1.3977,-1.386,-1.3812,-1.3812,-1.3883,-1.3852,-1.3782,-1.3799,0.0,0.0,0.0,0.0,0.0,0.0,0.0,0.0,0.0,-1.2012,-1.1621,0.0,-1.1972,0.0,-1.2885,-1.3209,-1.2921,-1.2551,0.0,0.0,-1.2299,-1.2219,-1.2367,-1.2739,-1.2819,-1.2372,-1.247,-1.2367,-1.1988,-1.1835,-1.1543,-1.0981,-0.9856,-0.9054,-0.898,-0.8734,-0.8533,-0.8447,-0.8589,-0.8698,-0.8704,-0.9129,-0.942,-0.9113,-0.8722,-0.8328,-0.7817,-0.7324,-0.6709,-0.5938,-0.5498,-0.5154,-0.4775,-0.4533,-0.4347,-0.4106,-0.4041,-0.3756,-0.3053,-0.29,-0.2641,-3.6232,-3.5782,-3.4943,-3.3751,-3.238,-3.2322,-3.247,-3.2706,-3.2634,-3.2428,-3.2143,-3.1562,-3.0846,-3.0043,-3.003,-3.0018,-3.0016,-3.0357,-3.0507,-3.0495,-3.0269,-3.0156,-3.0143,-2.9905,-2.9779,-2.9779,-2.9465,-2.9302,-2.9264,-2.8436,-2.7809,-2.7388,-2.6636,-2.5595,-2.4316,-2.3639,-2.2948,-2.2311,-2.1242,-2.0101,-1.887,-1.7348,-1.6587,-1.6645,-1.551,-1.5059,-1.5339,-1.4904,-1.4721,-1.4946,-1.4939,-1.4794,-1.4508,-1.4525,-1.44,0.0,0.0,0.0,0.0,0.0,0.0,0.0,0.0,0.0,0.0,0.0,-1.2917,-1.2875,-1.3634,-1.3992,-1.3676,-1.3334,-1.3272,-1.3534,-1.3469,-1.358,-1.405,-1.4209,-1.4256,-1.4123,-1.4006,-1.3778,-1.3334,-1.3222,-1.283,-1.2015,-1.1166,-1.0444,-0.9903,-0.9538,-0.9256,-0.9206,-0.9352,-0.9541,-0.9689,-0.9613,-0.9584,-0.9643,-0.934,-0.8967,-0.8692,-0.8048,-0.7339,-0.6779,-0.6328,-0.5926,-0.5589,-0.5149,-0.4904,-0.4874,-0.4652,-0.4246,-0.3756,-0.3621,-0.3348,-3.6722,-3.6412,-3.5262,-3.4786,-3.4735,-3.3836,-3.3484,-3.3441,-3.3227,-3.3154,-3.3086,-3.2583,-3.2093,-3.1612,-3.1599,-3.1524,-3.1386,-3.1386,-3.1323,-3.116,-3.0721,-3.0507,-3.0442,-3.0018,-2.9779,-2.9779,-2.9779,-2.9779,-2.9767,-2.9239,-2.8976,-2.8838,-2.7883,-2.7347,-2.7144,-2.5262,-2.4493,-2.4849,-2.2678,-2.119,-2.0543,-1.8663,-1.7949,-1.8514,-1.6626,-1.606,-1.71,-1.6114,-1.5733,-1.618,-1.6131,-1.5872,-1.5362,-1.5352,-1.5079,0.0,-1.4436,0.0,0.0,0.0,0.0,0.0,0.0,0.0,0.0,-1.422,-1.4104,-1.393,-1.4364,-1.445,-1.3877,-1.3811,-1.4063,-1.463,-1.4706,-1.509,-1.6035,-1.5811,-1.5723,-1.6144,-1.5811,-1.5321,-1.4781,-1.4692,-1.4165,-1.2931,-1.2594,-1.2179,-1.1172,-1.0424,-0.9966,-0.9966,-0.9962,-0.991,-1.0103,-0.9811,-0.9568,-0.9903,-0.9644,-0.9323,-0.9356,-0.8676,-0.8001,-0.779,-0.7219,-0.6738,-0.6687,-0.6049,-0.5586,-0.5422,-0.5019,-0.4597,-0.4288,-0.4142,-0.3911,-3.7638,-3.7475,-3.6304,-3.5822,-3.5687,-3.4503,-3.3852,-3.3641,-3.3598,-3.3526,-3.3343,-3.3242,-3.3013,-3.2797,-3.281,-3.2252,-3.1399,-3.1386,-3.0922,-3.0093,-2.9993,-2.9955,-2.9942,-2.9842,-2.9779,-2.9779,-2.9779,-2.9779,-2.9779,-2.9679,-2.939,-2.8888,-2.8273,-2.8135,-2.8437,0.0,0.0,0.0,-2.3408,-2.2586,-2.2429,-2.1161,-2.05,-2.0468,-1.9198,0.0,-1.8636,-1.7444,-1.6984,-1.7409,-1.6839,0.0,0.0,0.0,0.0,0.0,0.0,0.0,0.0,0.0,0.0,0.0,-1.6297,-1.5877,-1.5071,-1.5175,-1.5355,-1.5464,-1.5838,-1.6112,-1.6096,-1.6056,-1.6116,-1.6255,-1.6255,-1.6373,-1.656,-1.6482,-1.6492,-1.6551,-1.6502,-1.6276,-1.5825,-1.5817,-1.5351,-1.4216,-1.4073,-1.3777,-1.3008,-1.1526,-1.049,-1.029,-0.9892,-0.9437,-0.9451,-0.9382,-0.9281,-0.9176,-0.9442,-0.9385,-0.895,-0.8869,-0.8476,-0.7915,-0.7449,-0.7057,-0.6706,-0.6299,-0.5933,-0.5437,-0.5189,-0.4873,-0.4466,-0.4434,-0.4396,-3.79,0.0,-3.6933,-3.6371,0.0,-3.508,-3.4419,-3.4008,-3.3797,-3.3628,-3.3556,-3.3428,-3.3368,-3.324,-3.3154,-3.2767,-3.2202,-3.1926,-3.165,-3.1373,-3.057,-3.0331,-3.0557,-3.0043,-2.9779,-2.9779,-2.9779,-2.9779,-2.9779,-2.9779,-2.9641,-2.934,-2.875,-2.8612,-2.8838,-2.7377,-2.6173,-2.5367,-2.4466,-2.3867,-2.3435,-2.2166,-2.1417,-2.1318,-1.9937,0.0,0.0,0.0,0.0,0.0,0.0,0.0,0.0,0.0,0.0,-1.6716,-1.6697,-1.6794,-1.7031,-1.7051,-1.7148,-1.7311,-1.7429,-1.7056,-1.6041,-1.6085,-1.6189,-1.6292,-1.6486,-1.6634,-1.6707,-1.6697,-1.6697,-1.6697,-1.6697,-1.6775,-1.6992,-1.6824,-1.6794,-1.696,-1.6843,-1.6562,-1.6153,-1.6125,-1.5678,-1.4692,-1.4499,-1.4261,-1.3584,-1.2597,-1.1745,-1.1252,-1.0384,-0.9809,-0.9789,-0.9702,-0.9531,-0.9372,-0.9514,-0.9451,-0.8976,-0.8946,-0.8784,-0.8242,-0.794,-0.7668,-0.7428,-0.6991,-0.6561,-0.625,-0.5958,-0.555,-0.4973,-0.4627,-0.433,-3.79,-3.7848,-3.726,-3.6645,-3.6057,-3.5534,-3.4959,-3.4356,0.0,0.0,0.0,-3.3611,-3.3526,-3.3428,-3.3227,-3.3104,-3.2991,-3.2428,-3.2416,-3.2704,-3.1386,-3.0934,-3.1198,-3.0357,-2.988,-2.9792,-2.9779,-2.9779,-2.9779,-2.9779,-2.9779,-2.9741,-2.9227,-2.8825,-2.87,-2.7826,-2.7008,-2.6299,-2.5635,-2.4992,-2.4359,-2.3074,-2.236,-2.2329,-2.0723,-2.0307,-2.1154,-2.0461,-1.9994,-1.9857,-1.9727,-1.9111,-1.8006,-1.7991,-1.7707,-1.71,-1.7171,-1.7367,-1.7686,-1.7792,-1.7962,-1.8316,-1.8473,-1.8097,-1.7054,-1.6985,-1.7017,-1.7027,-1.6985,-1.6995,-1.6985,-1.6953,-1.6931,-1.6953,-1.6953,-1.7119,-1.7478,-1.722,-1.7096,-1.7383,-1.7197,-1.6726,-1.632,-1.6232,-1.5825,-1.4937,-1.4706,-1.444,-1.3803,-1.3334,-1.2785,-1.2051,-1.1194,-1.0548,-1.0297,-1.0068,-0.9883,-0.9486,-0.9501,-0.9439,-0.9211,-0.9055,-0.8902,-0.8672,-0.8421,-0.8275,-0.8221,-0.7708,-0.7273,-0.7166,-0.6811,-0.6276,-0.5476,-0.484,-0.4359,-3.79,-3.7861,-3.7246,-3.6658,-3.607,-3.5521,-3.4946,-3.441,-3.4314,-3.4189,-3.4034,-3.3992,-3.3865,-3.3641,-3.3428,-3.309,-3.2646,-3.2336,-3.2014,-3.1625,-3.1386,-3.1085,-3.0721,-3.057,-3.0244,-2.9817,-2.9779,-2.9779,-2.9779,-2.9779,-2.9779,-2.9716,-2.9214,-2.8675,-2.8285,-2.8499,-2.8349,-2.7798,-2.6634,-2.5983,-2.5908,-2.5691,-2.5268,-2.4621,-2.3712,-2.2994,-2.245,-2.1269,-2.0669,-2.0867,-2.0221,-1.9605,-1.9128,-1.9448,-1.9271,-1.8468,-1.8852,-1.9134,-1.904,-1.9336,-1.956,-1.962,-1.9487,-1.9058,-1.818,-1.8158,-1.8235,-1.8258,-1.8095,-1.8091,-1.8057,-1.7894,-1.7831,-1.7994,-1.7913,-1.7919,-1.8093,-1.7933,-1.7803,-1.7871,-1.7871,-1.749,-1.6787,-1.6599,-1.6297,-1.5516,-1.5196,-1.5021,-1.4401,-1.3674,-1.2978,-1.238,-1.1797,-1.1056,-1.0281,-0.9754,-0.9513,-0.9005,-0.9012,-0.9032,-0.8898,-0.8871,-0.8851,-0.8758,-0.8606,-0.8533,-0.854,-0.8295,-0.7898,-0.7507,-0.722,-0.6733,-0.5735,-0.5298,-0.4925,-3.79,-3.7874,-3.7599,-3.7142,-3.6554,-3.5979,-3.5404,-3.4894,-3.4881,-3.4656,-3.4243,-3.416,-3.4034,-3.3894,-3.3683,-3.3416,-3.3161,-3.2646,-3.2461,-3.242,-3.1757,-3.1424,-3.1424,-3.0896,-3.0482,-3.0231,-2.993,-2.9779,-2.9779,-2.9779,-2.9779,-2.9767,-2.9515,-2.9277,-2.9038,-2.8963,-2.8762,-2.8499,-2.7362,-2.6592,-2.6223,-2.5925,-2.5413,-2.4681,-2.4043,-2.3555,-2.3139,-2.2271,-2.177,-2.1803,-2.1467,-2.112,-2.0816,-2.0977,-2.0647,-1.9722,-2.0012,-2.0027,-1.9505,-1.9739,-1.9919,-1.9883,-1.9831,-1.9635,-1.9374,-1.9042,-1.8877,-1.8867,-1.8598,-1.8414,-1.8414,-1.8269,-1.8212,-1.8313,-1.811,-1.8076,-1.8269,-1.8236,-1.8168,-1.8168,-1.8168,-1.7898,-1.7158,-1.708,-1.6748,-1.5937,-1.5586,-1.5274,-1.5001,-1.4628,-1.3876,-1.2679,-1.1859,-1.1202,-1.0511,-1.007,-0.9687,-0.9255,-0.9146,-0.9052,-0.8871,-0.8878,-0.8931,-0.8811,-0.8692,-0.8672,-0.8769,-0.8651,-0.8435,-0.8359,-0.8202,-0.7711,-0.6968,-0.6224,-0.5363,-3.79,-3.79,-3.79,-3.7482,-3.6776,-3.6305,-3.5809,-3.5325,-3.5417,-3.5155,-3.462,-3.4295,-3.416,-3.416,-3.3894,-3.3755,-3.3704,-3.3152,-3.3064,-3.3284,-3.2331,-3.1967,-3.2114,-3.1336,-3.0909,-3.0758,-3.0357,-3.0156,-3.0156,-3.0156,-3.0093,-2.998,-2.9854,-2.9779,-2.9779,-2.934,-2.9126,-2.9026,-2.8147,-2.731,-2.6654,-2.6217,-2.5638,-2.4847,-2.4394,-2.4028,-2.3737,-2.3343,-2.3042,-2.2837,-2.284,-2.2645,-2.2321,-2.2227,-2.1761,-2.0923,-2.0885,-2.0684,-2.0122,-2.0049,-2.0112,-2.0258,-2.0179,-2.0262,-2.0477,-1.9946,-1.9535,-1.9449,-1.9142,-1.8875,-1.8751,-1.8608,-1.849,-1.8424,-1.8236,-1.8245,-1.8371,-1.8337,-1.8313,-1.8313,-1.8236,-1.802,-1.7566,-1.7416,-1.7044,-1.6232,-1.5684,-1.5391,-1.5235,-1.5206,-1.4481,-1.3213,-1.2182,-1.1584,-1.1068,-1.0578,-1.0157,-0.9729,-0.9542,-0.933,-0.9106,-0.9099,-0.9105,-0.8931,-0.8758,-0.8824,-0.9072,-0.8987,-0.8924,-0.8959,-0.8935,-0.8668,-0.7883,-0.6991,-0.5977,-3.79,-3.79,-3.79,-3.722,-3.6292,-3.6175,-3.5835,-3.5417,-3.5809,-3.573,-3.5129,-3.4633,-3.4356,-3.4356,-3.4147,-3.4063,-3.4034,-3.3746,-3.3547,-3.3441,-3.3284,-3.2866,-3.2265,-3.2089,-3.18,-3.1373,-3.1223,-3.1148,-3.1148,-3.1185,-3.0997,-3.0532,-3.0055,-2.9804,-2.9792,-2.9741,-2.9704,-2.9704,-2.9101,-2.8474,-2.7947,-2.786,-2.7346,-2.6352,-2.6217,-2.5661,-2.4549,-2.4449,-2.4295,-2.4149,-2.4116,-2.3833,-2.3283,-2.289,-2.2386,-2.1703,-2.1526,-2.138,-2.1293,-2.0834,-2.0756,-2.1265,-2.0996,-2.0996,-2.1508,-2.1025,-2.0549,-2.0303,-2.0145,-1.9808,-1.9457,-1.9222,-1.9002,-1.8775,-1.8556,-1.8539,-1.864,-1.8472,-1.8313,-1.8313,-1.8178,-1.7885,-1.7543,-1.7435,-1.7073,-1.6349,-1.5791,-1.5342,-1.494,-1.4784,-1.4519,-1.3683,-1.329,-1.2575,-1.1406,-1.089,-1.063,-1.025,-0.9862,-0.9618,-0.9412,-0.9173,-0.9031,-0.9098,-0.8958,-0.9018,-0.9336,-0.9324,-0.9138,-0.9363,-0.925,-0.8822,-0.8079,-0.7497,-0.6805,-3.8671,-3.8639,-3.8116,-3.7625,-3.7194,-3.7168,-3.6632,-3.5822,-3.6005,-3.5613,-3.4803,-3.4502,-3.4397,-3.4397,-3.4314,-3.4285,-3.4285,-3.4021,-3.381,-3.3556,-3.3441,-3.3144,-3.2759,-3.2353,-3.2077,-3.1851,-3.1549,-3.1386,-3.1386,-3.1386,-3.1273,-3.1047,-3.0532,-3.0281,-3.0256,-2.9955,-2.9779,-2.9779,-2.9553,-2.9327,-2.9063,-2.8448,-2.7733,-2.7052,-2.6675,-2.6101,-2.5261,-2.4911,-2.4828,-2.5049,-2.5074,-2.5057,-2.503,-2.4448,-2.3928,-2.3462,-2.2652,-2.2042,-2.1693,-2.1454,-2.1425,-2.1645,-2.1425,-2.1425,-2.1731,-2.1329,-2.1059,-2.1154,-2.0689,-2.0241,-2.0052,-1.9783,-1.947,-1.9111,-1.8769,-1.8557,-1.8502,-1.8405,-1.8313,-1.8303,-1.8202,-1.8094,-1.7797,-1.7539,-1.7288,-1.6838,-1.63,-1.5691,-1.5452,-1.5231,-1.4775,-1.4252,-1.4073,-1.3481,-1.2162,-1.1683,-1.1301,-1.0755,-1.0329,-1.0045,-0.9612,-0.9419,-0.9309,-0.9245,-0.9145,-0.9292,-0.981,-0.9821,-0.9728,-0.9819,-0.9703,-0.9365,-0.9055,-0.8469,-0.787,-3.9033,-3.876,-3.8148,-3.7808,-3.7678,-3.7848,-3.7312,-3.6449,-3.6515,-3.6031,-3.5129,-3.4946,-3.4868,-3.4855,-3.4724,-3.4646,-3.4604,-3.4491,-3.4309,-3.4016,-3.3717,-3.3441,-3.3147,-3.2751,-3.2483,-3.239,-3.2064,-3.1863,-3.1825,-3.1662,-3.1612,-3.1537,-3.1085,-3.0758,-3.0595,-3.0193,-2.9942,-2.9792,-2.9779,-2.9779,-2.9666,-2.8988,-2.8298,-2.7758,-2.7356,-2.6804,-2.6088,-2.5686,-2.5586,-2.5845,-2.5871,-2.5991,-2.6233,-2.53,-2.4492,-2.3913,-2.2957,-2.2193,-2.1731,-2.1655,-2.1665,-2.1693,-2.154,-2.154,-2.1693,-2.1474,-2.1474,-2.1669,-2.1186,-2.0757,-2.0483,-2.0226,-1.9829,-1.9354,-1.8939,-1.87,-1.8556,-1.8472,-1.8448,-1.8371,-1.8303,-1.8236,-1.7983,-1.7656,-1.7376,-1.7279,-1.6719,-1.6202,-1.6095,-1.5761,-1.5399,-1.4843,-1.4736,-1.4183,-1.3036,-1.2367,-1.1901,-1.1458,-1.0997,-1.0458,-0.9953,-0.9813,-0.9728,-0.9723,-0.9502,-0.9566,-1.0053,-1.0183,-1.0133,-1.0184,-1.0098,-0.9862,-0.9724,-0.923,-0.8941,-3.8729,-3.8024,-3.7946,-3.7599,-3.7103,-3.7665,-3.7547,-3.6946,-3.7482,-3.7403,-3.6671,-3.6201,-3.6005,-3.594,-3.5495,-3.5273,-3.526,-3.5247,-3.5076,-3.4796,-3.4331,-3.3849,-3.3386,-3.336,-3.3232,-3.3011,-3.2893,-3.2923,-3.2923,-3.2441,-3.219,-3.2139,-3.1625,-3.111,-3.0746,-3.0608,-3.0306,-2.9905,-2.9804,-2.9779,-2.9779,-2.9716,-2.9377,-2.8825,-2.8762,-2.8197,-2.7306,-2.7155,-2.6917,-2.6461,-2.6411,-2.6461,-2.6349,-2.5028,-2.361,-2.2241,-2.1807,-2.1578,-2.154,-2.1397,-2.1359,-2.1474,-2.1397,-2.1397,-2.1769,-2.1578,-2.1589,-2.1769,-2.1714,-2.1374,-2.0866,-2.0611,-2.018,-1.9594,-1.9257,-1.9075,-1.9019,-1.8774,-1.8684,-1.8516,-1.8371,-1.8245,-1.8022,-1.7637,-1.7471,-1.7363,-1.7002,-1.6541,-1.6211,-1.6085,-1.58,-1.5469,-1.5206,-1.4903,-1.3704,-1.3116,-1.2684,-1.2225,-1.1714,-1.1041,-1.0754,-1.0505,-1.0358,-1.016,-0.9906,-0.9939,-1.0318,-1.0428,-1.0261,-1.0253,-1.0281,-1.0174,-1.0053,-0.99,-0.9638,-3.8671,-3.79,-3.79,-3.7769,-3.7612,-3.7808,-3.756,-3.705,-3.722,-3.6985,-3.6462,-3.6188,-3.6109,-3.6109,-3.6305,-3.6175,-3.5835,-3.5822,-3.5692,-3.5478,-3.5284,-3.4852,-3.4216,-3.4043,-3.3741,-3.3308,-3.3167,-3.3124,-3.3111,-3.2867,-3.2767,-3.2667,-3.2202,-3.18,-3.1549,-3.0947,-3.0507,-3.0306,-2.9993,-2.9779,-2.9779,-2.9779,-2.9679,-2.9478,-2.9076,-2.8411,-2.7354,-2.7329,-2.7065,-2.6512,-2.6487,-2.6487,-2.6383,-2.5476,-2.4179,-2.2767,-2.2515,-2.2214,-2.1769,-2.1617,-2.1627,-2.1655,-2.1617,-2.1617,-2.1731,-2.1617,-2.1578,-2.1731,-2.1655,-2.1448,-2.1336,-2.1142,-2.079,-2.0099,-1.9732,-1.9386,-1.887,-1.865,-1.8583,-1.8516,-1.8371,-1.8212,-1.8056,-1.7871,-1.7793,-1.7744,-1.7412,-1.6982,-1.6572,-1.6269,-1.5987,-1.5547,-1.541,-1.5264,-1.4894,-1.4183,-1.3657,-1.3097,-1.2512,-1.1939,-1.151,-1.0951,-1.0698,-1.0502,-1.0262,-1.0245,-1.0573,-1.0539,-1.0423,-1.0405,-1.0428,-1.0339,-1.0212,-1.0053,-0.9926,-3.8881,-3.8317,-3.8024,-3.79,-3.79,-3.79,-3.7665,-3.7312,-3.7299,-3.7063,-3.6698,-3.6488,-3.6488,-3.6684,-3.6907,-3.7037,-3.6894,-3.658,-3.6322,-3.6163,-3.5981,-3.5564,-3.5048,-3.4866,-3.4397,-3.3728,-3.3273,-3.3124,-3.3124,-3.3124,-3.3124,-3.3086,-3.2667,-3.239,-3.2102,-3.1298,-3.0796,-3.057,-3.0068,-2.9779,-2.9779,-2.9779,-2.9779,-2.9729,-2.9402,-2.8787,-2.7846,-2.7645,-2.7293,-2.6839,-2.6587,-2.6396,-2.606,-2.5335,-2.436,-2.3176,-2.274,-2.2402,-2.1883,-2.1807,-2.1807,-2.1807,-2.1769,-2.1807,-2.1807,-2.1655,-2.1655,-2.1731,-2.1693,-2.1617,-2.1578,-2.1568,-2.1271,-2.0549,-2.0185,-1.9773,-1.9063,-1.8931,-1.8836,-1.8647,-1.8482,-1.8313,-1.8134,-1.81,-1.8056,-1.8008,-1.7744,-1.7422,-1.7002,-1.6699,-1.6281,-1.5782,-1.5654,-1.5566,-1.5176,-1.4608,-1.4252,-1.3726,-1.2832,-1.2367,-1.2009,-1.1443,-1.1027,-1.0852,-1.0718,-1.0684,-1.0649,-1.0629,-1.0624,-1.0586,-1.0523,-1.0434,-1.0339,-1.0238,-1.0149,-3.9166,-3.897,-3.8272,-3.79,-3.79,-3.79,-3.79,-3.7835,-3.7848,-3.7769,-3.7599,-3.7246,-3.7273,-3.7625,-3.7299,-3.7586,-3.8096,-3.7403,-3.705,-3.7006,-3.647,-3.6095,-3.5828,-3.5727,-3.5141,-3.4185,-3.3512,-3.3174,-3.3199,-3.3212,-3.3212,-3.3119,-3.3056,-3.2742,-3.224,-3.1662,-3.111,-3.067,-3.0118,-2.9792,-2.9779,-2.9779,-2.9779,-2.9779,-2.9741,-2.9465,-2.8863,-2.8386,-2.7833,-2.7268,-2.6813,-2.6154,-2.5535,-2.4671,-2.3804,-2.3139,-2.2327,-2.1883,-2.1807,-2.1807,-2.1807,-2.1807,-2.1807,-2.1807,-2.1807,-2.1769,-2.1769,-2.1807,-2.1807,-2.1769,-2.1769,-2.1769,-2.1525,-2.0896,-2.055,-2.0236,-1.9868,-1.9782,-1.9548,-1.893,-1.8617,-1.8438,-1.8337,-1.8279,-1.8212,-1.8066,-1.7949,-1.7764,-1.7373,-1.7207,-1.6956,-1.6369,-1.6055,-1.5937,-1.5446,-1.4922,-1.4656,-1.424,-1.3183,-1.2418,-1.2211,-1.1775,-1.1376,-1.1136,-1.0912,-1.0833,-1.062,-1.0593,-1.0593,-1.0586,-1.0561,-1.0569,-1.0565,-1.0502,-1.0438,-3.8836,-3.8317,-3.8024,-3.79,-3.79,-3.79,-3.79,-3.79,-3.79,-3.79,-3.7861,-3.7704,-3.7743,-3.7835,-3.7691,-3.7821,-3.8109,-3.7769,-3.7808,-3.7991,-3.7573,-3.7045,-3.6597,-3.6277,-3.5417,-3.4262,-3.418,-3.3997,-3.3709,-3.3646,-3.3646,-3.3596,-3.3257,-3.3048,-3.2742,-3.1888,-3.1273,-3.1072,-3.0256,-2.9792,-2.9779,-2.9779,-2.9779,-2.9779,-2.9779,-2.9691,-2.9503,-2.8938,-2.8198,-2.7356,-2.7153,-2.6784,-2.6029,-2.485,-2.4011,-2.3658,-2.2494,-2.1807,-2.1807,-2.1807,-2.1807,-2.1807,-2.1807,-2.1807,-2.1807,-2.1807,-2.1807,-2.1807,-2.1807,-2.1807,-2.1807,-2.1807,-2.1573,-2.1055,-2.0943,-2.071,-2.0276,-1.9979,-1.9493,-1.8944,-1.8741,-1.864,-1.8472,-1.8371,-1.8269,-1.8212,-1.8066,-1.7852,-1.751,-1.7422,-1.7197,-1.6641,-1.6502,-1.6172,-1.5487,-1.4927,-1.4529,-1.4022,-1.3119,-1.252,-1.2328,-1.2004,-1.1646,-1.1373,-1.1146,-1.0926,-1.0713,-1.0593,-1.0593,-1.0613,-1.0601,-1.0695,-1.0822,-1.0817,-1.0778,-3.9621,-3.9397,-3.9056,-3.8697,-3.8395,-3.8395,-3.8194,-3.7946,-3.79,-3.79,-3.79,-3.79,-3.79,-3.79,-3.79,-3.8031,-3.8148,-3.8018,-3.82,-3.8566,-3.8161,-3.7645,-3.7118,-3.6476,-3.5729,-3.4817,-3.4695,-3.455,-3.4236,-3.4186,-3.411,-3.3859,-3.3545,-3.3257,-3.3031,-3.219,-3.1625,-3.1311,-3.0545,-3.0005,-2.9829,-2.9779,-2.9779,-2.9779,-2.9779,-2.9779,-2.9767,-2.9428,-2.8825,-2.7996,-2.7544,-2.7153,-2.6709,-2.542,-2.442,-2.3902,-2.2995,-2.2138,-2.1883,-2.1807,-2.1807,-2.1807,-2.1807,-2.1807,-2.1807,-2.1807,-2.1807,-2.1807,-2.1807,-2.1807,-2.1807,-2.1807,-2.1662,-2.1414,-2.1383,-2.1155,-2.0721,-2.0166,-1.9696,-1.9284,-1.9021,-1.8838,-1.864,-1.8472,-1.8337,-1.8269,-1.811,-1.7935,-1.7686,-1.7627,-1.7353,-1.7119,-1.6992,-1.6421,-1.5503,-1.4921,-1.4416,-1.3698,-1.2901,-1.2621,-1.242,-1.1973,-1.156,-1.1373,-1.1178,-1.0965,-1.0776,-1.0656,-1.06,-1.0633,-1.0708,-1.0889,-1.1056,-1.1136,-1.1115,-4.1213,-4.1841,-4.0916,-3.9924,-3.9179,-3.9033,-3.8562,-3.7992,-3.79,-3.79,-3.79,-3.79,-3.79,-3.79,-3.79,-3.8135,-3.8475,-3.8122,-3.8122,-3.837,-3.8135,-3.7697,-3.7304,-3.6504,-3.5923,-3.5616,-3.5168,-3.4864,-3.4776,-3.4718,-3.4487,-3.4048,-3.3884,-3.3596,-3.3056,-3.2491,-3.1926,-3.1499,-3.0896,-3.0331,-2.9892,-2.9792,-2.9779,-2.9779,-2.9779,-2.9779,-2.9767,-2.9716,-2.9465,-2.8863,-2.7883,-2.732,-2.7003,-2.5968,-2.4849,-2.3998,-2.3313,-2.2515,-2.1959,-2.1807,-2.1807,-2.1807,-2.1807,-2.1807,-2.1807,-2.1807,-2.1807,-2.1807,-2.1807,-2.1807,-2.1807,-2.1807,-2.1787,-2.1797,-2.1725,-2.1528,-2.1077,-2.0369,-1.9996,-1.9803,-1.945,-1.906,-1.8876,-1.8644,-1.8448,-1.8303,-1.8144,-1.7969,-1.7959,-1.7852,-1.7773,-1.7607,-1.7422,-1.68,-1.5951,-1.5195,-1.4651,-1.371,-1.2893,-1.2523,-1.2352,-1.1887,-1.1529,-1.1373,-1.1266,-1.1062,-1.0866,-1.0774,-1.0766,-1.0822,-1.0969,-1.1149,-1.1296,-1.141,-1.1516,-4.2254,-4.1609,-4.0678,-3.9885,-3.9162,-3.8549,-3.8148,-3.79,-3.79,-3.79,-3.79,-3.79,-3.79,-3.79,-3.79,-3.7991,-3.807,-3.7978,-3.7939,-3.8083,-3.7991,-3.7624,-3.7214,-3.6722,-3.6185,-3.5722,-3.5789,-3.5717,-3.5307,-3.5282,-3.5027,-3.45,-3.4098,-3.3633,-3.3068,-3.2516,-3.2177,-3.1876,-3.1072,-3.0583,-3.0357,-2.998,-2.9792,-2.9779,-2.9779,-2.9779,-2.9779,-2.9779,-2.9515,-2.8913,-2.8285,-2.7381,-2.6529,-2.561,-2.462,-2.3479,-2.2654,-2.2073,-2.1883,-2.1807,-2.1807,-2.1807,-2.1807,-2.1807,-2.1807,-2.1807,-2.1807,-2.1807,-2.1807,-2.1807,-2.1807,-2.1807,-2.1807,-2.1807,-2.1807,-2.1642,-2.1228,-2.0928,-2.0648,-2.0286,-1.9886,-1.9555,-1.925,-1.8873,-1.8512,-1.8323,-1.8144,-1.8008,-1.8008,-1.7998,-1.7891,-1.792,-1.7716,-1.7149,-1.6433,-1.5624,-1.4773,-1.3826,-1.302,-1.2333,-1.2101,-1.1759,-1.1534,-1.1341,-1.1347,-1.1223,-1.101,-1.0857,-1.0934,-1.1082,-1.1223,-1.1403,-1.1617,-1.1764,-1.1877,-4.3415,-4.2908,-4.2348,-4.1131,-3.9613,-3.9026,-3.8477,-3.7972,-3.79,-3.79,-3.79,-3.79,-3.79,-3.79,-3.79,-3.79,-3.79,-3.79,-3.79,-3.79,-3.7762,-3.7505,-3.7108,-3.6803,-3.6404,-3.5968,-3.6254,-3.6157,-3.5931,-3.5893,-3.5466,-3.4788,-3.4412,-3.3859,-3.3136,-3.278,-3.2441,-3.2152,-3.1549,-3.1082,-3.062,-3.0319,-3.0018,-2.9867,-2.9779,-2.9779,-2.9779,-2.9779,-2.9616,-2.9252,-2.8712,-2.7804,-2.6577,-2.5811,-2.4719,-2.3194,-2.2553,-2.2203,-2.1845,-2.1807,-2.1807,-2.1807,-2.1807,-2.1807,-2.1807,-2.1807,-2.1807,-2.1807,-2.1807,-2.1807,-2.1807,-2.1807,-2.1807,-2.1807,-2.1807,-2.1694,-2.1387,-2.1217,-2.101,-2.069,-2.0302,-1.9875,-1.9567,-1.9075,-1.8692,-1.8363,-1.8144,-1.8042,-1.8008,-1.8008,-1.8008,-1.8008,-1.794,-1.7446,-1.6748,-1.5952,-1.4933,-1.3946,-1.3175,-1.2442,-1.2226,-1.1941,-1.1886,-1.1779,-1.1592,-1.1437,-1.1302,-1.122,-1.1296,-1.141,-1.1523,-1.1683,-1.1904,-1.1991,-1.2124,-4.4698,-4.4878,-4.4687,-4.2888,-4.0414,-4.0046,-3.9182,-3.8149,-3.8044,-3.7978,-3.7926,-3.79,-3.79,-3.79,-3.79,-3.79,-3.79,-3.79,-3.79,-3.7854,-3.7716,-3.7459,-3.7168,-3.6862,-3.6555,-3.6329,-3.6405,-3.6392,-3.6317,-3.6342,-3.5793,-3.5052,-3.4718,-3.4161,-3.3407,-3.3136,-3.2792,-3.2428,-3.2164,-3.1675,-3.0982,-3.0696,-3.0331,-3.003,-2.9817,-2.9792,-2.9779,-2.9792,-2.9728,-2.9611,-2.9213,-2.8286,-2.7046,-2.6306,-2.4997,-2.3381,-2.2805,-2.2482,-2.1991,-2.1869,-2.1859,-2.1838,-2.1807,-2.1807,-2.1807,-2.1807,-2.1807,-2.1807,-2.1807,-2.1807,-2.1807,-2.1807,-2.1807,-2.1807,-2.1807,-2.1807,-2.1735,-2.1435,-2.1149,-2.1155,-2.0746,-2.0231,-1.9777,-1.9389,-1.9073,-1.8488,-1.8262,-1.8169,-1.8076,-1.8008,-1.8008,-1.8008,-1.7896,-1.775,-1.7042,-1.6288,-1.5158,-1.4126,-1.3366,-1.276,-1.2709,-1.2533,-1.2475,-1.233,-1.1938,-1.1805,-1.1788,-1.1758,-1.1687,-1.1697,-1.179,-1.1997,-1.2198,-1.2184,-1.2258,-4.6121,-4.5441,-4.3901,-4.2273,-4.0794,-4.0027,-3.9265,-3.8553,-3.8527,-3.8292,-3.7978,-3.7913,-3.79,-3.79,-3.79,-3.79,-3.79,-3.79,-3.79,-3.7913,-3.7854,-3.7657,-3.7366,-3.6968,-3.6628,-3.6452,-3.6417,-3.6417,-3.6417,-3.6367,-3.6044,-3.5357,-3.4818,-3.4399,-3.3771,-3.3244,-3.3074,-3.2817,-3.2466,-3.2139,-3.1725,-3.1047,-3.062,-3.0382,-3.003,-2.9817,-2.9792,-2.9779,-2.9456,-2.9094,-2.9139,-2.8549,-2.6862,-2.6123,-2.4887,-2.3266,-2.2646,-2.2394,-2.2001,-2.2139,-2.219,-2.1932,-2.1932,-2.1807,-2.1807,-2.1838,-2.1828,-2.1807,-2.1807,-2.1807,-2.1807,-2.1807,-2.1807,-2.1807,-2.1807,-2.1769,-2.1749,-2.1704,-2.1621,-2.1501,-2.1211,-2.0781,-2.0386,-1.9913,-1.9443,-1.8764,-1.8453,-1.832,-1.8203,-1.8066,-1.8008,-1.8008,-1.7974,-1.7828,-1.7467,-1.662,-1.5476,-1.4489,-1.3729,-1.3125,-1.3073,-1.2928,-1.2804,-1.2521,-1.2192,-1.2154,-1.2206,-1.2012,-1.1908,-1.1986,-1.2044,-1.2164,-1.2271,-1.2298,-1.2305,-4.6648,-4.583,-4.4063,-4.2307,-4.08,-4.0193,-3.9664,-3.9141,-3.8815,-3.8553,-3.8266,-3.8044,-3.79,-3.79,-3.79,-3.79,-3.79,-3.79,-3.79,-3.79,-3.79,-3.7749,-3.7505,-3.7214,-3.6922,-3.6593,-3.6452,-3.6405,-3.6417,-3.6367,-3.6081,-3.5495,-3.4956,-3.4449,-3.3897,-3.3357,-3.3149,-3.3074,-3.2792,-3.2503,-3.2127,-3.17,-3.1009,-3.0696,-3.0319,-3.0093,-2.9829,-2.9779,-2.9326,-2.8843,-2.887,-2.8194,-2.6456,-2.5994,-2.4993,-2.3292,-2.2811,-2.2739,-2.2594,-2.2646,-2.2718,-2.2459,-2.2439,-2.2304,-2.2201,-2.2128,-2.1994,-2.1869,-2.1807,-2.1807,-2.1807,-2.1807,-2.1807,-2.1807,-2.1807,-2.1759,-2.1693,-2.1731,-2.1731,-2.1662,-2.1429,-2.0947,-2.0558,-2.0236,-1.98,-1.9095,-1.8633,-1.849,-1.8344,-1.8198,-1.8047,-1.8008,-1.8008,-1.7896,-1.7716,-1.6975,-1.5816,-1.4937,-1.4221,-1.369,-1.3388,-1.322,-1.3038,-1.2803,-1.2641,-1.2565,-1.2564,-1.2375,-1.2166,-1.2167,-1.2204,-1.2278,-1.2305,-1.2305,-1.2305,-4.6553,-4.5902,-4.4256,-4.2404,-4.068,-4.0553,-4.0226,-3.969,-3.9102,-3.8815,-3.8606,-3.8148,-3.79,-3.79,-3.79,-3.79,-3.79,-3.7913,-3.7939,-3.8109,-3.8122,-3.8017,-3.7805,-3.7619,-3.7283,-3.6794,-3.6593,-3.6452,-3.6405,-3.6392,-3.6157,-3.5596,-3.4969,-3.455,-3.401,-3.3395,-3.3124,-3.3099,-3.3061,-3.283,-3.2428,-3.2202,-3.1625,-3.0972,-3.0758,-3.047,-3.0079,-2.9772,-2.9241,-2.8383,-2.8291,-2.7123,-2.592,-2.5675,-2.5512,-2.342,-2.3287,-2.3194,-2.3091,-2.3184,-2.3256,-2.3225,-2.3153,-2.2977,-2.2687,-2.248,-2.2283,-2.2045,-2.1901,-2.1807,-2.1807,-2.1807,-2.1769,-2.1731,-2.1731,-2.1655,-2.154,-2.1617,-2.1578,-2.1502,-2.1469,-2.1229,-2.0775,-2.0406,-1.9969,-1.9517,-1.9053,-1.8715,-1.8588,-1.8412,-1.8281,-1.8096,-1.8096,-1.7348,-1.7044,-1.683,-1.5727,-1.4976,-1.4356,-1.415,-1.3748,-1.3748,-1.3579,-1.3368,-1.3187,-1.3048,-1.2845,-1.2606,-1.2451,-1.2378,-1.2305,-1.2305,-1.2305,-1.2305,-1.2351,-4.5417,-4.4752,-4.3134,-4.1957,-4.1219,-4.1154,-4.0864,-4.0252,-3.9677,-3.9168,-3.8684,-3.8148,-3.79,-3.79,-3.79,-3.79,-3.79,-3.7965,-3.8174,-3.8462,-3.8553,-3.8533,-3.8439,-3.8066,-3.7629,-3.7117,-3.6781,-3.6534,-3.6452,-3.6392,-3.6282,-3.6006,-3.524,-3.463,-3.4311,-3.3658,-3.3174,-3.3124,-3.3124,-3.2968,-3.2817,-3.2466,-3.2001,-3.1348,-3.126,-3.0984,-3.0383,-2.9717,-2.8757,-2.7534,-2.7366,-2.6326,-2.5239,-2.5185,-2.4826,-2.4115,-2.3764,-2.365,-2.3432,-2.3588,-2.3525,-2.3318,-2.3277,-2.3246,-2.3029,-2.2749,-2.2573,-2.2315,-2.2035,-2.1838,-2.1807,-2.1807,-2.1693,-2.1617,-2.154,-2.1474,-2.132,-2.132,-2.131,-2.1244,-2.1415,-2.151,-2.0948,-2.0561,-2.0307,-1.9948,-1.958,-1.9297,-1.9131,-1.8841,-1.8568,-1.8373,-1.8188,-1.7181,-1.6202,-1.6026,-1.5495,-1.4699,-1.4228,-1.4313,-1.4148,-1.4278,-1.4157,-1.3754,-1.3462,-1.3249,-1.3043,-1.2845,-1.2576,-1.2399,-1.2355,-1.2325,-1.2398,-1.2478,-1.2565,-4.5002,-4.478,-4.3188,-4.2368,-4.2079,-4.2052,-4.1624,-4.0775,-4.0004,-3.9455,-3.8985,-3.8331,-3.79,-3.79,-3.79,-3.79,-3.7952,-3.824,-3.8462,-3.8723,-3.8998,-3.9168,-3.9042,-3.8528,-3.82,-3.774,-3.7219,-3.6593,-3.6405,-3.6417,-3.6417,-3.6169,-3.5516,-3.4981,-3.458,-3.3935,-3.3382,-3.3237,-3.3136,-3.3136,-3.3124,-3.2754,-3.2378,-3.1976,-3.1788,-3.1537,-3.091,-2.9841,-2.878,-2.7688,-2.6836,-2.579,-2.4999,-2.465,-2.4692,-2.4283,-2.4198,-2.4136,-2.3939,-2.4126,-2.4095,-2.3918,-2.3867,-2.3753,-2.3588,-2.3339,-2.2977,-2.2563,-2.2366,-2.2056,-2.1849,-2.1828,-2.1693,-2.154,-2.1464,-2.1359,-2.1167,-2.1167,-2.1089,-2.0974,-2.1079,-2.1069,-2.0915,-2.0633,-2.0632,-2.0388,-2.0059,-1.9853,-1.9629,-1.9307,-1.8929,-1.8627,-1.8373,-1.7471,-1.6394,-1.5929,-1.5468,-1.4615,-1.4268,-1.4386,-1.4397,-1.4504,-1.4306,-1.3909,-1.3657,-1.3681,-1.3299,-1.3105,-1.2763,-1.2466,-1.2516,-1.2565,-1.2599,-1.2697,-1.2772,-4.443,-4.456,-4.3085,-4.2501,-4.2514,-4.2757,-4.2092,-4.108,-4.0272,-3.9698,-3.9298,-3.8397,-3.79,-3.79,-3.7913,-3.7952,-3.807,-3.854,-3.8815,-3.9233,-3.9547,-3.9721,-3.9468,-3.8925,-3.844,-3.8015,-3.7226,-3.6609,-3.6581,-3.6468,-3.6417,-3.6241,-3.5805,-3.5219,-3.47,-3.4274,-3.3734,-3.3325,-3.3262,-3.3262,-3.3149,-3.3099,-3.2867,-3.2441,-3.2378,-3.2127,-3.1492,-2.9973,-2.8864,-2.771,-2.6504,-2.5221,-2.4668,-2.4507,-2.4507,-2.4507,-2.4507,-2.4507,-2.4476,-2.4456,-2.4414,-2.4342,-2.4456,-2.428,-2.4,-2.3711,-2.3443,-2.2842,-2.2625,-2.2439,-2.2108,-2.1973,-2.1758,-2.1502,-2.1425,-2.1359,-2.1051,-2.0935,-2.0925,-2.0848,-2.0819,-2.077,-2.0683,-2.0731,-2.0711,-2.0594,-2.0273,-2.0234,-2.001,-1.9668,-1.9329,-1.8962,-1.8489,-1.7751,-1.6943,-1.6201,-1.558,-1.4728,-1.4643,-1.4758,-1.4715,-1.4684,-1.4457,-1.4355,-1.4509,-1.4439,-1.3931,-1.3394,-1.3161,-1.295,-1.2856,-1.2851,-1.2866,-1.2959,-1.3073,-4.2928,-4.2552,-4.1821,-4.1498,-4.1683,-4.2466,-4.1914,-4.0621,-4.0695,-4.0081,-3.8867,-3.8227,-3.79,-3.79,-3.79,-3.8161,-3.8501,-3.8762,-3.9259,-3.9926,-4.0177,-4.0184,-3.9861,-3.9149,-3.8508,-3.8062,-3.7061,-3.6804,-3.6845,-3.6606,-3.6417,-3.6292,-3.5868,-3.5245,-3.4831,-3.4655,-3.4085,-3.3382,-3.3558,-3.3558,-3.3237,-3.3149,-3.3048,-3.2955,-3.2837,-3.2539,-3.1682,-3.0037,-2.8553,-2.7828,-2.5861,-2.4732,-2.4507,-2.4507,-2.4507,-2.4507,-2.4507,-2.4507,-2.4507,-2.4507,-2.4507,-2.4507,-2.4507,-2.438,-2.4141,-2.3874,-2.3546,-2.3194,-2.3101,-2.2894,-2.2532,-2.2418,-2.2027,-2.1718,-2.159,-2.1307,-2.0956,-2.1135,-2.1086,-2.0869,-2.0879,-2.0722,-2.0615,-2.0741,-2.0819,-2.0673,-2.0566,-2.0507,-2.0371,-2.0029,-1.9589,-1.9192,-1.8397,-1.7637,-1.6807,-1.6165,-1.561,-1.4787,-1.4956,-1.5115,-1.5039,-1.4992,-1.5131,-1.5094,-1.5148,-1.4793,-1.4002,-1.3571,-1.3471,-1.3328,-1.3112,-1.3106,-1.316,-1.3267,-1.3394,-4.224,-4.2507,-4.2465,-4.2328,-4.2222,-4.2647,-4.1887,-4.0614,-4.0288,-3.9659,-3.8718,-3.8148,-3.79,-3.79,-3.79,-3.8187,-3.8684,-3.9037,-3.9625,-4.0347,-4.0575,-4.0595,-4.0292,-3.9581,-3.8812,-3.8296,-3.7531,-3.6983,-3.7021,-3.6732,-3.6417,-3.6367,-3.6107,-3.5755,-3.5157,-3.5132,-3.4738,-3.4223,-3.396,-3.3796,-3.3533,-3.3312,-3.3124,-3.3081,-3.2568,-3.2191,-3.1421,-2.9607,-2.8196,-2.7379,-2.5806,-2.4799,-2.458,-2.4507,-2.4507,-2.4507,-2.4507,-2.4507,-2.4507,-2.4507,-2.4507,-2.4507,-2.4507,-2.4411,-2.4241,-2.4098,-2.3791,-2.3392,-2.3495,-2.335,-2.3008,-2.2904,-2.2631,-2.2318,-2.2016,-2.1769,-2.1491,-2.145,-2.1428,-2.1173,-2.0928,-2.0869,-2.083,-2.083,-2.0869,-2.0644,-2.0595,-2.0566,-2.0546,-2.04,-1.9889,-1.9323,-1.8382,-1.7384,-1.6536,-1.5803,-1.5433,-1.4906,-1.519,-1.5286,-1.5274,-1.5279,-1.536,-1.5282,-1.5131,-1.4624,-1.3961,-1.3843,-1.3827,-1.3614,-1.3347,-1.3407,-1.348,-1.3667,-1.3788,-4.1661,-4.2378,-4.2702,-4.2637,-4.2466,-4.2695,-4.1793,-4.0223,-4.0153,-3.9451,-3.86,-3.8083,-3.79,-3.79,-3.7952,-3.8292,-3.8972,-3.9403,-4.003,-4.0507,-4.0774,-4.0818,-4.0335,-3.97,-3.9031,-3.9133,-3.7472,-3.7096,-3.696,-3.6732,-3.6417,-3.6417,-3.6367,-3.6006,-3.5646,-3.5617,-3.5429,-3.4856,-3.4387,-3.4085,-3.3822,-3.3495,-3.3257,-3.286,-3.222,-3.1581,-3.1231,-2.9307,-2.7831,-2.7183,-2.5973,-2.4941,-2.459,-2.4507,-2.4507,-2.4507,-2.4507,-2.4507,-2.4507,-2.4507,-2.4507,-2.4507,-2.4421,-2.4335,-2.4239,-2.4315,-2.4233,-2.3696,-2.3833,-2.3711,-2.3484,-2.336,-2.3104,-2.2869,-2.2625,-2.2462,-2.2246,-2.2053,-2.1801,-2.1533,-2.1357,-2.1269,-2.1172,-2.1025,-2.0899,-2.0674,-2.0615,-2.0635,-2.0605,-2.0586,-2.004,-1.9418,-1.8465,-1.7437,-1.6581,-1.5827,-1.5323,-1.5148,-1.5382,-1.5433,-1.546,-1.5467,-1.5518,-1.5313,-1.515,-1.4785,-1.434,-1.4246,-1.4185,-1.3899,-1.3701,-1.3686,-1.378,-1.4015,-1.4142,-4.1057,-4.1138,-4.1351,-4.1429,-4.1468,-4.2431,-4.1544,-3.9773,-4.0556,-3.9727,-3.8155,-3.7913,-3.79,-3.79,-3.7991,-3.8462,-3.9481,-3.9573,-4.0122,-4.0676,-4.1008,-4.0614,-4.0041,-3.9269,-3.8565,-3.8529,-3.7448,-3.6996,-3.6923,-3.6596,-3.6455,-3.6417,-3.6417,-3.6006,-3.5868,-3.5981,-3.5943,-3.5454,-3.4939,-3.4399,-3.4098,-3.3784,-3.3545,-3.2928,-3.2164,-3.1569,-3.1456,-2.924,-2.7827,-2.7413,-2.6172,-2.5096,-2.4745,-2.4631,-2.4621,-2.4518,-2.4507,-2.4507,-2.4507,-2.4507,-2.4507,-2.4464,-2.4378,-2.4249,-2.4153,-2.398,-2.392,-2.3998,-2.4023,-2.4017,-2.3876,-2.3805,-2.3608,-2.3381,-2.3175,-2.2906,-2.2689,-2.2453,-2.2229,-2.1936,-2.1787,-2.1699,-2.1572,-2.1426,-2.126,-2.1085,-2.0977,-2.0997,-2.0683,-2.0585,-2.0072,-1.9412,-1.8526,-1.7619,-1.6828,-1.6182,-1.5767,-1.5672,-1.5826,-1.5738,-1.5606,-1.5628,-1.5665,-1.5516,-1.5366,-1.5049,-1.479,-1.4628,-1.4473,-1.4201,-1.4062,-1.4082,-1.4135,-1.4275,-1.4396,-3.98,-4.015,-4.0228,-4.0579,-4.1096,-4.1249,-4.0469,-3.9328,-3.9831,-3.9355,-3.7913,-3.79,-3.79,-3.7913,-3.7926,-3.8292,-3.8985,-3.9063,-3.9638,-3.9845,-3.9835,-3.9589,-3.9111,-3.8713,-3.8063,-3.7876,-3.7184,-3.6732,-3.6644,-3.6531,-3.6455,-3.6417,-3.643,-3.6317,-3.6254,-3.6267,-3.6169,-3.5994,-3.5491,-3.4919,-3.4462,-3.401,-3.3633,-3.3075,-3.1392,-3.1169,-3.1101,-2.8929,-2.8052,-2.7411,-2.6567,-2.574,-2.5024,-2.4931,-2.4766,-2.4559,-2.4528,-2.4507,-2.4507,-2.4507,-2.4507,-2.4497,-2.4411,-2.4282,-2.4067,-2.398,-2.3894,-2.3937,-2.4024,-2.4053,-2.4098,-2.4196,-2.4134,-2.3906,-2.3677,-2.3374,-2.3165,-2.2946,-2.2656,-2.2347,-2.2217,-2.2129,-2.1982,-2.1877,-2.1701,-2.1525,-2.1437,-2.1289,-2.1023,-2.0554,-2.004,-1.9317,-1.8435,-1.7569,-1.6715,-1.6382,-1.6133,-1.6162,-1.6206,-1.6089,-1.5935,-1.5811,-1.5797,-1.5697,-1.5598,-1.5304,-1.5118,-1.4925,-1.4696,-1.4365,-1.4342,-1.4442,-1.4502,-1.4599,-1.4656,-3.8884,-3.9427,-3.9184,-3.9757,-4.0702,-4.0518,-3.9965,-3.9351,-3.9494,-3.9089,-3.8148,-3.8135,-3.8148,-3.8122,-3.7965,-3.82,-3.8632,-3.8828,-3.9259,-3.942,-3.931,-3.8951,-3.873,-3.8309,-3.78,-3.75,-3.7086,-3.682,-3.7373,-3.6707,-3.6593,-3.6606,-3.6493,-3.6405,-3.6392,-3.6417,-3.6417,-3.6292,-3.6006,-3.547,-3.4931,-3.4593,-3.3719,-3.2957,-3.1352,-3.0594,-3.0251,-2.8661,-2.7687,-2.7391,-2.6932,-2.6225,-2.5668,-2.5275,-2.5024,-2.4797,-2.459,-2.4528,-2.4518,-2.4507,-2.4507,-2.4497,-2.4497,-2.4282,-2.4067,-2.4024,-2.3894,-2.3721,-2.3894,-2.4024,-2.4067,-2.4188,-2.4296,-2.4057,-2.4035,-2.3823,-2.3629,-2.3418,-2.308,-2.2777,-2.2699,-2.2693,-2.2506,-2.235,-2.1945,-2.1792,-2.1701,-2.1551,-2.1401,-2.081,-2.0023,-1.9235,-1.8309,-1.7435,-1.6602,-1.6551,-1.6469,-1.6374,-1.6418,-1.6469,-1.6352,-1.6206,-1.6096,-1.6067,-1.5886,-1.5607,-1.5364,-1.5157,-1.4838,-1.4512,-1.4576,-1.473,-1.4787,-1.4841,-1.493,-3.8415,-3.9073,-3.8319,-3.8953,-4.0293,-4.037,-4.0252,-3.9873,-3.9664,-3.9233,-3.8723,-3.8697,-3.8645,-3.8553,-3.8187,-3.8266,-3.8514,-3.8697,-3.9168,-3.9598,-3.9043,-3.9105,-3.8845,-3.8284,-3.7701,-3.8191,-3.77,-3.7462,-3.8454,-3.731,-3.6958,-3.6847,-3.6744,-3.648,-3.643,-3.6417,-3.6417,-3.6405,-3.6342,-3.5943,-3.5483,-3.5257,-3.428,-3.278,-3.1479,-3.0674,-2.9874,-2.8346,-2.7531,-2.7557,-2.7097,-2.647,-2.5958,-2.5585,-2.5323,-2.5179,-2.4807,-2.4621,-2.4559,-2.4538,-2.4549,-2.4518,-2.4507,-2.4378,-2.4163,-2.398,-2.3807,-2.3677,-2.3667,-2.3677,-2.3807,-2.4024,-2.4153,-2.4249,-2.4196,-2.411,-2.3884,-2.3754,-2.3365,-2.3046,-2.3221,-2.3367,-2.3139,-2.2838,-2.2355,-2.2055,-2.1941,-2.1834,-2.1678,-2.0964,-2.0101,-1.9349,-1.8446,-1.7569,-1.6884,-1.6867,-1.6829,-1.6682,-1.6667,-1.6755,-1.674,-1.6653,-1.6513,-1.6448,-1.6166,-1.5793,-1.5593,-1.5342,-1.5136,-1.4963,-1.4948,-1.5022,-1.5035,-1.5109,-1.5231,-3.8057,-3.8304,-3.8024,-3.8436,-3.9233,-3.9272,-3.9089,-3.8815,-3.8919,-3.9128,-3.9298,-3.9311,-3.9037,-3.8749,-3.8527,-3.8344,-3.8227,-3.8645,-3.9141,-3.9112,-3.8604,-3.873,-3.8551,-3.8119,-3.7651,-3.799,-3.7638,-3.755,-3.8191,-3.7525,-3.7274,-3.7174,-3.6945,-3.6757,-3.6518,-3.6417,-3.6417,-3.6417,-3.6355,-3.6107,-3.5571,-3.5424,-3.4672,-3.2877,-3.1658,-3.0775,-3.0014,-2.8296,-2.7667,-2.7852,-2.74,-2.6822,-2.6459,-2.6082,-2.5937,-2.574,-2.543,-2.544,-2.5337,-2.5179,-2.4807,-2.4652,-2.4507,-2.4421,-2.4206,-2.3937,-2.3764,-2.3634,-2.3537,-2.3537,-2.3624,-2.3807,-2.398,-2.4153,-2.4153,-2.4067,-2.3884,-2.3797,-2.3574,-2.3217,-2.3222,-2.2775,-2.2511,-2.2422,-2.2042,-2.1783,-2.1601,-2.193,-2.1943,-2.1016,-2.0092,-1.9465,-1.8707,-1.7766,-1.7139,-1.7094,-1.7077,-1.7011,-1.704,-1.7135,-1.7084,-1.6983,-1.6938,-1.6872,-1.6435,-1.6015,-1.5828,-1.5706,-1.5637,-1.5524,-1.5364,-1.5331,-1.5411,-1.5491,-1.5605,-3.79,-3.79,-3.79,-3.8096,-3.8436,-3.8632,-3.8593,-3.8553,-3.888,-3.9351,-3.9769,-3.9703,-3.9416,-3.905,-3.8762,-3.8423,-3.7991,-3.8227,-3.8645,-3.8564,-3.8217,-3.8412,-3.8373,-3.8007,-3.7989,-3.8115,-3.814,-3.814,-3.868,-3.8216,-3.7701,-3.7249,-3.7046,-3.6694,-3.6518,-3.6556,-3.6619,-3.6531,-3.638,-3.6279,-3.5956,-3.5606,-3.4856,-3.3196,-3.1947,-3.1079,-2.9884,-2.8721,-2.7756,-2.8036,-2.7757,-2.7185,-2.6915,-2.6667,-2.649,-2.6231,-2.5937,-2.5896,-2.574,-2.5637,-2.5254,-2.4838,-2.4631,-2.4421,-2.4282,-2.4024,-2.3807,-2.3624,-2.345,-2.3363,-2.3406,-2.358,-2.3764,-2.398,-2.4024,-2.3884,-2.3797,-2.3711,-2.3614,-2.3266,-2.3003,-2.2511,-2.1828,-2.1695,-2.1523,-2.1355,-2.123,-2.1519,-2.1721,-2.0749,-1.9824,-1.9306,-1.8664,-1.7726,-1.7255,-1.7245,-1.7274,-1.7279,-1.7286,-1.7286,-1.7289,-1.7143,-1.7216,-1.7174,-1.6704,-1.6276,-1.6128,-1.6028,-1.5792,-1.5712,-1.5638,-1.5671,-1.5812,-1.5825,-1.5825,-3.7926,-3.79,-3.79,-3.7913,-3.8004,-3.8488,-3.9011,-3.9547,-3.9573,-3.986,-4.0305,-3.9769,-3.9481,-3.939,-3.8945,-3.8462,-3.8109,-3.8083,-3.8488,-3.8595,-3.8424,-3.8627,-3.8666,-3.8424,-3.8441,-3.853,-3.8605,-3.8781,-3.9433,-3.8504,-3.7726,-3.7274,-3.6945,-3.6644,-3.6619,-3.6782,-3.6795,-3.6543,-3.6405,-3.6342,-3.6194,-3.6232,-3.4893,-3.3409,-3.2296,-3.0923,-2.9607,-2.8237,-2.79,-2.7772,-2.7506,-2.7372,-2.7154,-2.6874,-2.6718,-2.6521,-2.6231,-2.6179,-2.6127,-2.603,-2.5678,-2.5275,-2.4774,-2.4578,-2.4325,-2.4024,-2.3797,-2.358,-2.3406,-2.3232,-2.3188,-2.3319,-2.3493,-2.3624,-2.3754,-2.3667,-2.359,-2.3537,-2.3493,-2.3309,-2.3135,-2.2589,-2.1596,-2.1239,-2.061,-1.9968,-1.9733,-1.9798,-1.9951,-1.9887,-1.9147,-1.8964,-1.8326,-1.7552,-1.7286,-1.7286,-1.7286,-1.7286,-1.7286,-1.7286,-1.7264,-1.7304,-1.7257,-1.7163,-1.685,-1.6534,-1.6157,-1.5967,-1.5818,-1.5785,-1.5704,-1.5765,-1.5825,-1.5825,-1.5825,-3.8253,-3.7913,-3.79,-3.79,-3.7978,-3.8488,-3.9037,-3.9573,-3.9625,-3.973,-3.9834,-3.9677,-3.9364,-3.8958,-3.8776,-3.8593,-3.8501,-3.8606,-3.9194,-3.9211,-3.8875,-3.9272,-3.9344,-3.9146,-3.9133,-3.9195,-3.9308,-3.9233,-3.9333,-3.8567,-3.8027,-3.7713,-3.7136,-3.682,-3.6707,-3.6933,-3.6732,-3.6556,-3.643,-3.6417,-3.6417,-3.6417,-3.4908,-3.3553,-3.2664,-3.1146,-2.9267,-2.8224,-2.7903,-2.7489,-2.7413,-2.732,-2.7289,-2.7175,-2.7102,-2.7102,-2.6978,-2.6926,-2.6853,-2.6594,-2.6144,-2.5633,-2.5122,-2.461,-2.4329,-2.397,-2.3754,-2.3537,-2.3319,-2.3144,-2.3101,-2.3232,-2.3363,-2.345,-2.3537,-2.3493,-2.345,-2.3406,-2.3309,-2.295,-2.2818,-2.1961,-2.1006,-2.015,-1.9476,-1.865,-1.8241,-1.8373,-1.8465,-1.8511,-1.8511,-1.838,-1.8064,-1.738,-1.7286,-1.7286,-1.7286,-1.7286,-1.7286,-1.7286,-1.7279,-1.7271,-1.7279,-1.7145,-1.6817,-1.6393,-1.5927,-1.5825,-1.5825,-1.5825,-1.5798,-1.5812,-1.5825,-1.5825,-1.5825,-3.8514,-3.8214,-3.7991,-3.8018,-3.8266,-3.8579,-3.8945,-3.922,-3.9259,-3.9351,-3.9573,-3.9337,-3.905,-3.8789,-3.871,-3.8566,-3.8331,-3.8305,-3.8749,-3.9142,-3.9275,-3.9541,-3.9663,-3.9753,-3.9648,-3.9722,-3.9685,-3.9597,-3.9421,-3.8894,-3.8304,-3.7927,-3.7462,-3.6897,-3.6656,-3.6669,-3.6681,-3.6518,-3.6417,-3.6417,-3.6417,-3.631,-3.5078,-3.3627,-3.2871,-3.1285,-2.9228,-2.8421,-2.7986,-2.7541,-2.7486,-2.732,-2.732,-2.7299,-2.7299,-2.7278,-2.7258,-2.7226,-2.7143,-2.6812,-2.6407,-2.5881,-2.5334,-2.472,-2.4196,-2.3797,-2.3624,-2.3503,-2.3276,-2.3101,-2.3101,-2.3144,-2.3232,-2.3329,-2.3319,-2.3319,-2.3319,-2.3319,-2.3003,-2.2555,-2.1872,-2.1051,-2.015,-1.9293,-1.8519,-1.7971,-1.7652,-1.7692,-1.7785,-1.7878,-1.7924,-1.7878,-1.7652,-1.7286,-1.7286,-1.7286,-1.7286,-1.7286,-1.7286,-1.7286,-1.7286,-1.7286,-1.7239,-1.7005,-1.677,-1.6346,-1.592,-1.5825,-1.5825,-1.5825,-1.5825,-1.5825,-1.5825,-1.5825,-1.5825,-3.8762,-3.8645,-3.8135,-3.8161,-3.8606,-3.8671,-3.8684,-3.8658,-3.8736,-3.8985,-3.9259,-3.888,-3.8619,-3.8527,-3.8514,-3.841,-3.8227,-3.8148,-3.8566,-3.8794,-3.8968,-3.9352,-3.9879,-4.0018,-3.9648,-3.9609,-3.9584,-3.9459,-3.9408,-3.8881,-3.8266,-3.7977,-3.7337,-3.6832,-3.6505,-3.648,-3.6505,-3.6468,-3.6417,-3.6417,-3.6417,-3.6121,-3.5427,-3.3636,-3.2848,-3.1968,-2.988,-2.8866,-2.8382,-2.7966,-2.7686,-2.7517,-2.7434,-2.733,-2.732,-2.7262,-2.7262,-2.7225,-2.7105,-2.6789,-2.6414,-2.596,-2.5485,-2.4886,-2.4418,-2.3844,-2.3644,-2.3416,-2.3188,-2.3101,-2.3101,-2.3101,-2.3188,-2.3188,-2.3188,-2.3232,-2.3232,-2.3091,-2.2818,-2.228,-2.1463,-2.0557,-1.9521,-1.8657,-1.8102,-1.7466,-1.7286,-1.7286,-1.7333,-1.7419,-1.7466,-1.7512,-1.7419,-1.7286,-1.7286,-1.7286,-1.7286,-1.7286,-1.7286,-1.7286,-1.7286,-1.7239,-1.7138,-1.6911,-1.6636,-1.6298,-1.5967,-1.5872,-1.5825,-1.5825,-1.5825,-1.5825,-1.5825,-1.5825,-1.5825,-3.9115,-3.8658,-3.8135,-3.7991,-3.8161,-3.854,-3.8462,-3.8148,-3.854,-3.8553,-3.8318,-3.8187,-3.8122,-3.8161,-3.8161,-3.8174,-3.8357,-3.8096,-3.8802,-3.8964,-3.902,-3.9288,-3.9828,-3.9689,-3.9384,-3.9132,-3.9069,-3.9107,-3.8944,-3.8542,-3.8165,-3.7889,-3.7199,-3.6631,-3.643,-3.6417,-3.6417,-3.6417,-3.6417,-3.6417,-3.6417,-3.6108,-3.5415,-3.3883,-3.2944,-3.1811,-3.017,-2.9208,-2.8628,-2.8079,-2.8245,-2.809,-2.781,-2.7506,-2.734,-2.7262,-2.7119,-2.7081,-2.6935,-2.6676,-2.636,-2.6089,-2.5691,-2.5275,-2.4756,-2.4125,-2.361,-2.3349,-2.3144,-2.3144,-2.3101,-2.3101,-2.3101,-2.3101,-2.3101,-2.3101,-2.3101,-2.2872,-2.2633,-2.1819,-2.1006,-2.0051,-1.8972,-1.8241,-1.7692,-1.7419,-1.7333,-1.7286,-1.7286,-1.738,-1.738,-1.7372,-1.738,-1.7286,-1.7286,-1.7286,-1.7286,-1.7286,-1.7286,-1.7286,-1.7286,-1.7239,-1.7138,-1.6817,-1.6541,-1.6251,-1.6015,-1.5872,-1.5825,-1.5825,-1.5825,-1.5825,-1.5825,-1.5825,-1.5825,-3.9416,-3.905,-3.8501,-3.8266,-3.8279,-3.8344,-3.8174,-3.8004,-3.8227,-3.8187,-3.7926,-3.79,-3.79,-3.79,-3.79,-3.8004,-3.8292,-3.8044,-3.8421,-3.8778,-3.893,-3.9186,-3.9333,-3.9373,-3.9486,-3.9233,-3.8931,-3.8793,-3.8504,-3.8241,-3.7939,-3.7626,-3.6923,-3.6619,-3.648,-3.6417,-3.6417,-3.6417,-3.6417,-3.6417,-3.6417,-3.6156,-3.5271,-3.3845,-3.2833,-3.1682,-3.0455,-2.9466,-2.9042,-2.8504,-2.8421,-2.8162,-2.7821,-2.7537,-2.7351,-2.7225,-2.7081,-2.689,-2.6754,-2.6479,-2.6249,-2.6047,-2.5657,-2.5127,-2.5032,-2.4371,-2.388,-2.3565,-2.3193,-2.311,-2.3101,-2.3101,-2.3101,-2.3101,-2.3101,-2.3101,-2.3101,-2.3003,-2.2183,-2.0998,-2.0277,-1.9596,-1.8603,-1.7792,-1.7372,-1.7372,-1.7333,-1.7286,-1.7286,-1.7286,-1.7286,-1.7286,-1.7286,-1.7286,-1.7286,-1.7286,-1.7286,-1.7286,-1.7286,-1.7286,-1.7286,-1.7286,-1.7192,-1.6824,-1.6541,-1.6305,-1.6109,-1.5872,-1.5825,-1.5825,-1.5825,-1.5825,-1.5825,-1.5825,-1.5825,-3.9547,-3.9429,-3.8919,-3.8645,-3.854,-3.8122,-3.7913,-3.79,-3.7913,-3.7926,-3.7913,-3.79,-3.79,-3.79,-3.79,-3.79,-3.7854,-3.7821,-3.8145,-3.8411,-3.8422,-3.8666,-3.8941,-3.9158,-3.9057,-3.9069,-3.8956,-3.8517,-3.8103,-3.7965,-3.7776,-3.7299,-3.7071,-3.6883,-3.6556,-3.6417,-3.6417,-3.6417,-3.6417,-3.6417,-3.6358,-3.6216,-3.4884,-3.3845,-3.2901,-3.1891,-3.0502,-2.9684,-2.9425,-2.8938,-2.8473,-2.8193,-2.7903,-2.7641,-2.7297,-2.7167,-2.6938,-2.6794,-2.6648,-2.6197,-2.6084,-2.5909,-2.5434,-2.5171,-2.5111,-2.4685,-2.4181,-2.3781,-2.3418,-2.311,-2.3101,-2.3101,-2.3101,-2.3149,-2.3149,-2.3086,-2.3086,-2.3018,-2.1803,-2.0464,-1.9687,-1.9093,-1.828,-1.7466,-1.7286,-1.7286,-1.7286,-1.7286,-1.7286,-1.7286,-1.7286,-1.7286,-1.7286,-1.7286,-1.7286,-1.7286,-1.7286,-1.7286,-1.7286,-1.7286,-1.7286,-1.7286,-1.7145,-1.6777,-1.6494,-1.6353,-1.6062,-1.5825,-1.5825,-1.5825,-1.5825,-1.5825,-1.5825,-1.5825,-1.5825,-3.9324,-3.8867,-3.8762,-3.8475,-3.8109,-3.7939,-3.79,-3.79,-3.79,-3.79,-3.79,-3.79,-3.79,-3.79,-3.79,-3.79,-3.7795,-3.7703,-3.7948,-3.8346,-3.7702,-3.7922,-3.8285,-3.8491,-3.809,-3.8316,-3.8655,-3.8517,-3.7927,-3.7889,-3.7739,-3.7211,-3.6719,-3.6556,-3.6518,-3.643,-3.6417,-3.6417,-3.6417,-3.6417,-3.6061,-3.5571,-3.4434,-3.3388,-3.2336,-3.1238,-3.0307,-2.9974,-2.9642,-2.9156,-2.8535,-2.8297,-2.8038,-2.7717,-2.7307,-2.7034,-2.6805,-2.6544,-2.631,-2.5962,-2.592,-2.6064,-2.5702,-2.5637,-2.5342,-2.4858,-2.4418,-2.4127,-2.3695,-2.3188,-2.3101,-2.3101,-2.311,-2.3213,-2.3237,-2.3144,-2.3115,-2.2624,-2.178,-2.0531,-1.9459,-1.8688,-1.7738,-1.7286,-1.7286,-1.7286,-1.7286,-1.7286,-1.7286,-1.7286,-1.7293,-1.7286,-1.7286,-1.7286,-1.7286,-1.7286,-1.7286,-1.7286,-1.7286,-1.7286,-1.7286,-1.7286,-1.7099,-1.673,-1.6541,-1.6393,-1.6109,-1.5825,-1.5825,-1.5825,-1.5825,-1.5825,-1.5825,-1.5825,-1.5825]},{"header":{"parameterUnit":"m.s-1","parameterCategory":1,"la1":31.0,"la2":29.5877,"lo1":-88.7671,"lo2":-86.6584,"dy":0.0162,"dx":0.0185,"nx":115,"ny":88,"refTime":"2023-03-20T06:00:00:Z","depth":0,"parameterNumber":3,"parameterNumberName":"V-component_of_WINDS"},"data":[0.0,0.0,0.0,0.0,0.0,0.0,0.0,0.0,0.0,0.0,0.0,0.0,0.0,0.0,0.0,0.0,0.0,0.0,0.0,0.0,0.0,0.0,0.0,0.0,0.0,0.0,0.0,0.0,0.0,0.0,0.0,0.0,0.0,0.0,0.0,0.0,0.0,0.0,0.0,0.0,0.0,0.0,0.0,0.0,0.0,0.0,0.0,0.0,0.0,0.0,0.0,0.0,0.0,0.0,0.0,0.0,0.0,0.0,0.0,0.0,0.0,0.0,0.0,0.0,0.0,0.0,0.0,0.0,0.0,0.0,0.0,0.0,0.0,0.0,0.0,0.0,0.0,0.0,0.0,0.0,0.0,0.0,0.0,0.0,0.0,0.0,0.0,0.0,0.0,0.0,0.0,0.0,0.0,0.0,0.0,0.0,0.0,0.0,0.0,0.0,0.0,0.0,0.0,0.0,0.0,0.0,0.0,0.0,0.0,0.0,0.0,0.0,0.0,0.0,0.0,0.0,0.0,0.0,0.0,0.0,0.0,0.0,0.0,0.0,0.0,0.0,0.0,0.0,0.0,0.0,0.0,0.0,0.0,0.0,0.0,0.0,0.0,0.0,0.0,0.0,0.0,0.0,0.0,0.0,0.0,0.0,0.0,0.0,0.0,0.0,0.0,0.0,0.0,0.0,0.0,0.0,0.0,0.0,0.0,0.0,0.0,0.0,0.0,0.0,0.0,0.0,0.0,0.0,0.0,0.0,0.0,0.0,0.0,0.0,0.0,0.0,0.0,0.0,0.0,0.0,0.0,0.0,0.0,0.0,0.0,0.0,0.0,0.0,0.0,0.0,0.0,0.0,0.0,0.0,0.0,0.0,0.0,0.0,0.0,0.0,0.0,0.0,0.0,0.0,0.0,0.0,0.0,0.0,0.0,0.0,0.0,0.0,0.0,0.0,0.0,0.0,0.0,0.0,0.0,0.0,0.0,0.0,0.0,0.0,0.0,0.0,0.0,0.0,0.0,0.0,0.0,0.0,0.0,0.0,0.0,0.0,0.0,0.0,0.0,0.0,0.0,0.0,0.0,0.0,0.0,0.0,0.0,0.0,0.0,0.0,0.0,0.0,0.0,0.0,0.0,0.0,0.0,0.0,0.0,0.0,0.0,0.0,0.0,0.0,0.0,0.0,0.0,0.0,0.0,0.0,0.0,0.0,0.0,0.0,0.0,0.0,0.0,0.0,0.0,0.0,0.0,0.0,0.0,0.0,0.0,0.0,0.0,0.0,0.0,0.0,0.0,0.0,0.0,0.0,0.0,0.0,0.0,0.0,0.0,0.0,0.0,0.0,0.0,0.0,0.0,0.0,0.0,0.0,0.0,0.0,0.0,0.0,0.0,0.0,0.0,0.0,0.0,0.0,0.0,0.0,0.0,0.0,0.0,0.0,0.0,0.0,0.0,0.0,0.0,0.0,0.0,0.0,0.0,0.0,0.0,0.0,0.0,0.0,0.0,0.0,0.0,0.0,0.0,0.0,0.0,0.0,0.0,0.0,0.0,0.0,0.0,0.0,0.0,0.0,0.0,0.0,0.0,0.0,0.0,0.0,0.0,0.0,0.0,0.0,0.0,0.0,0.0,0.0,0.0,0.0,0.0,0.0,0.0,0.0,0.0,0.0,0.0,0.0,0.0,0.0,0.0,0.0,0.0,0.0,0.0,0.0,0.0,0.0,0.0,0.0,0.0,0.0,0.0,0.0,0.0,0.0,0.0,0.0,0.0,0.0,0.0,0.0,0.0,0.0,0.0,0.0,0.0,0.0,0.0,0.0,0.0,0.0,0.0,0.0,0.0,0.0,0.0,0.0,0.0,0.0,0.0,0.0,0.0,0.0,0.0,0.0,0.0,0.0,0.0,0.0,0.0,0.0,0.0,0.0,0.0,0.0,0.0,0.0,0.0,0.0,0.0,0.0,0.0,0.0,0.0,0.0,0.0,0.0,0.0,0.0,0.0,0.0,0.0,0.0,0.0,0.0,0.0,0.0,0.0,0.0,0.0,0.0,0.0,0.0,0.0,0.0,0.0,0.0,0.0,0.0,0.0,0.0,0.0,0.0,0.0,0.0,0.0,0.0,0.0,0.0,0.0,0.0,0.0,0.0,0.0,0.0,0.0,0.0,0.0,0.0,0.0,0.0,0.0,0.0,0.0,0.0,0.0,0.0,0.0,0.0,0.0,0.0,0.0,0.0,0.0,0.0,0.0,0.0,0.0,0.0,0.0,0.0,0.0,0.0,0.0,0.0,0.0,0.0,0.0,0.0,0.0,0.0,0.0,0.0,0.0,0.0,0.0,0.0,0.0,0.0,0.0,0.0,0.0,0.0,0.0,0.0,0.0,0.0,0.0,0.0,0.0,0.0,0.0,0.0,0.0,0.0,0.0,0.0,0.0,0.0,0.0,0.0,0.0,0.0,0.0,0.0,0.0,0.0,0.0,0.0,0.0,0.0,0.0,0.0,0.0,0.0,0.0,0.0,0.0,0.0,0.0,0.0,0.0,0.0,0.0,0.0,0.0,0.0,0.0,0.0,0.0,0.0,0.0,0.0,0.0,0.0,0.0,0.0,0.0,0.0,0.0,0.0,0.0,0.0,0.0,0.0,0.0,0.0,0.0,0.0,0.0,0.0,0.0,0.0,0.0,0.0,0.0,0.0,0.0,0.0,0.0,0.0,0.0,0.0,0.0,0.0,0.0,0.0,0.0,0.0,0.0,0.0,0.0,0.0,0.0,0.0,0.0,0.0,0.0,0.0,0.0,0.0,0.0,0.0,0.0,0.0,0.0,0.0,0.0,0.0,0.0,0.0,0.0,0.0,0.0,0.0,0.0,0.0,0.0,0.0,0.0,0.0,0.0,0.0,0.0,0.0,0.0,0.0,0.0,0.0,0.0,0.0,0.0,0.0,0.0,0.0,0.0,0.0,0.0,0.0,0.0,0.0,0.0,0.0,0.0,0.0,0.0,0.0,0.0,0.0,0.0,0.0,0.0,0.0,0.0,0.0,0.0,0.0,0.0,0.0,0.0,0.0,0.0,0.0,0.0,0.0,0.0,0.0,0.0,0.0,0.0,0.0,0.0,0.0,0.0,0.0,0.0,0.0,0.0,0.0,0.0,0.0,0.0,0.0,0.0,0.0,0.0,0.0,0.0,0.0,0.0,0.0,0.0,0.0,0.0,0.0,0.0,0.0,0.0,0.0,0.0,0.0,0.0,0.0,0.0,0.0,0.0,0.0,0.0,0.0,0.0,0.0,0.0,0.0,0.0,0.0,0.0,0.0,0.0,0.0,0.0,0.0,0.0,0.0,0.0,0.0,0.0,0.0,0.0,0.0,0.0,0.0,0.0,0.0,0.0,0.0,0.0,0.0,0.0,0.0,0.0,0.0,0.0,0.0,0.0,0.0,0.0,0.0,0.0,0.0,0.0,0.0,0.0,0.0,0.0,0.0,0.0,0.0,0.0,0.0,0.0,0.0,0.0,0.0,0.0,0.0,0.0,0.0,0.0,0.0,0.0,0.0,0.0,0.0,0.0,0.0,0.0,0.0,0.0,0.0,0.0,0.0,0.0,0.0,0.0,0.0,0.0,0.0,0.0,0.0,0.0,0.0,0.0,0.0,0.0,0.0,0.0,0.0,0.0,0.0,0.0,0.0,0.0,0.0,0.0,0.0,0.0,0.0,0.0,0.0,0.0,0.0,0.0,0.0,0.0,0.0,0.0,0.0,0.0,0.0,0.0,0.0,0.0,0.0,0.0,0.0,0.0,0.0,0.0,0.0,0.0,0.0,0.0,0.0,0.0,0.0,0.0,0.0,0.0,0.0,0.0,0.0,0.0,0.0,0.0,0.0,0.0,0.0,0.0,0.0,0.0,0.0,0.0,0.0,0.0,0.0,0.0,0.0,0.0,0.0,0.0,0.0,0.0,0.0,0.0,0.0,0.0,0.0,0.0,0.0,0.0,0.0,0.0,0.0,0.0,0.0,0.0,0.0,0.0,0.0,0.0,0.0,0.0,0.0,0.0,0.0,0.0,0.0,0.0,0.0,0.0,0.0,0.0,0.0,0.0,0.0,0.0,0.0,0.0,0.0,0.0,0.0,0.0,0.0,0.0,0.0,0.0,0.0,0.0,0.0,0.0,0.0,0.0,0.0,0.0,0.0,0.0,0.0,0.0,0.0,0.0,0.0,0.0,0.0,0.0,0.0,0.0,0.0,0.0,0.0,0.0,0.0,0.0,0.0,0.0,0.0,1.78,0.0,0.0,0.0,0.0,0.0,0.0,0.0,0.0,0.0,0.0,0.0,0.0,0.0,0.0,0.0,0.0,0.0,0.0,0.0,0.0,0.0,0.0,0.0,0.0,0.0,0.0,0.0,0.0,0.0,0.0,0.0,0.0,0.0,0.0,0.0,0.0,0.0,0.0,0.0,0.0,0.0,0.0,0.0,0.0,0.0,0.0,0.0,0.0,0.0,0.0,0.0,0.0,0.0,0.0,0.0,0.0,0.0,0.0,0.0,0.0,0.0,0.0,0.0,0.0,0.0,0.0,0.0,0.0,0.0,0.0,0.0,0.0,0.0,0.0,0.0,0.0,0.0,0.0,0.0,0.0,0.0,0.0,0.0,0.0,0.0,0.0,0.0,0.0,0.0,0.0,0.0,0.0,0.0,0.0,0.0,0.0,0.0,0.0,0.0,0.0,0.0,0.0,0.0,0.0,0.0,0.0,0.0,0.0,0.0,0.0,1.7634,1.7893,1.7571,1.7645,1.811,0.0,0.0,0.0,0.0,0.0,0.0,0.0,0.0,0.0,0.0,0.0,0.0,0.0,0.0,0.0,0.0,0.0,0.0,0.0,0.0,0.0,0.0,0.0,0.0,0.0,0.0,0.0,0.0,0.0,0.0,0.0,0.0,0.0,0.0,0.0,0.0,0.0,0.0,0.0,0.0,0.0,0.0,0.0,0.0,0.0,0.0,0.0,0.0,0.0,0.0,0.0,0.0,0.0,0.0,0.0,0.0,0.0,0.0,0.0,0.0,0.0,0.0,0.0,0.0,0.0,0.0,0.0,0.0,0.0,0.0,0.0,0.0,0.0,0.0,0.0,0.0,0.0,0.0,0.0,0.0,0.0,0.0,0.0,0.0,0.0,0.0,0.0,0.0,0.0,0.0,0.0,0.0,0.0,0.0,0.0,0.0,0.0,0.0,0.0,0.0,0.0,0.0,0.0,0.0,0.0,0.0,0.0,0.0,0.0,0.0,0.0,0.0,1.7557,1.7718,1.8381,0.0,0.0,0.0,0.0,0.0,0.0,0.0,0.0,0.0,0.0,0.0,0.0,0.0,0.0,0.0,0.0,0.0,0.0,0.0,0.0,0.0,0.0,0.0,0.0,0.0,0.0,0.0,0.0,0.0,0.0,0.0,0.0,0.0,0.0,0.0,0.0,0.0,0.0,0.0,0.0,0.0,0.0,0.0,0.0,0.0,0.0,0.0,0.0,0.0,0.0,0.0,0.0,0.0,0.0,0.0,0.0,0.0,0.0,0.0,0.0,0.0,0.0,0.0,0.0,0.0,0.0,0.0,0.0,0.0,0.0,0.0,0.0,0.0,0.0,0.0,0.0,0.0,0.0,0.0,0.0,0.0,0.0,0.0,0.0,0.0,0.0,0.0,0.0,0.0,0.0,0.0,0.0,0.0,0.0,0.0,0.0,0.0,0.0,0.0,0.0,0.0,0.0,0.0,0.0,0.0,0.0,0.0,0.0,0.0,0.0,1.8087,1.7304,1.7996,0.0,1.846,0.0,0.0,0.0,0.0,0.0,0.0,0.0,0.0,0.0,0.0,0.0,0.0,0.0,0.0,0.0,0.0,0.0,0.0,0.0,0.0,0.0,0.0,0.0,0.0,0.0,0.0,0.0,0.0,0.0,0.0,0.0,0.0,0.0,0.0,0.0,0.0,0.0,0.0,0.0,0.0,0.0,0.0,0.0,0.0,0.0,0.0,0.0,0.0,0.0,0.0,0.0,0.0,0.0,0.0,0.0,0.0,0.0,0.0,0.0,0.0,0.0,0.0,0.0,0.0,0.0,0.0,0.0,0.0,0.0,0.0,0.0,0.0,0.0,0.0,0.0,0.0,0.0,0.0,0.0,0.0,0.0,0.0,0.0,0.0,0.0,0.0,0.0,0.0,0.0,0.0,0.0,0.0,0.0,0.0,0.0,0.0,0.0,0.0,0.0,0.0,0.0,0.0,0.0,0.0,0.0,0.0,0.0,0.0,0.0,0.0,1.7743,1.7381,1.8231,1.8205,0.0,0.0,0.0,0.0,0.0,0.0,0.0,0.0,0.0,0.0,0.0,0.0,0.0,0.0,0.0,0.0,0.0,0.0,0.0,0.0,0.0,0.0,0.0,0.0,0.0,0.0,0.0,0.0,0.0,0.0,0.0,0.0,0.0,0.0,0.0,0.0,0.0,0.0,0.0,0.0,0.0,0.0,0.0,0.0,0.0,0.0,0.0,0.0,0.0,0.0,0.0,0.0,0.0,0.0,0.0,0.0,0.0,0.0,0.0,0.0,0.0,0.0,0.0,0.0,0.0,0.0,0.0,0.0,0.0,0.0,0.0,0.0,0.0,0.0,0.0,0.0,0.0,0.0,0.0,0.0,0.0,0.0,0.0,0.0,0.0,0.0,0.0,0.0,0.0,0.0,0.0,0.0,0.0,0.0,0.0,0.0,0.0,0.0,0.0,0.0,0.0,0.0,0.0,0.0,0.0,0.0,0.0,0.0,0.0,0.0,1.7698,1.7772,1.7879,1.8262,1.8013,1.7036,0.0,0.0,0.0,0.0,0.0,0.0,0.0,0.0,0.0,0.0,0.0,0.0,0.0,0.0,0.0,0.0,0.0,0.0,0.0,0.0,0.0,0.0,0.0,0.0,0.0,0.0,0.0,0.0,0.0,0.0,0.0,0.0,0.0,0.0,0.0,0.0,0.0,0.0,0.0,0.0,0.0,0.0,0.0,0.0,0.0,0.0,0.0,0.0,0.0,0.0,0.0,0.0,0.0,0.0,0.0,0.0,0.0,0.0,0.0,0.0,0.0,0.0,0.0,0.0,0.0,0.0,0.0,0.0,0.0,0.0,0.0,0.0,0.0,0.0,0.0,0.0,0.0,0.0,0.0,0.0,0.0,0.0,0.0,0.0,0.0,0.0,0.0,0.0,0.0,0.0,0.0,0.0,0.0,0.0,0.0,0.0,0.0,0.0,0.0,0.0,0.0,0.0,0.0,0.0,0.0,0.0,0.0,0.0,1.8407,1.8476,1.8589,1.8681,1.8048,1.7977,0.0,0.0,0.0,0.0,0.0,0.0,0.0,0.0,0.0,0.0,0.0,0.0,0.0,0.0,0.0,0.0,0.0,0.0,0.0,0.0,0.0,0.0,0.0,0.0,0.0,0.0,0.0,0.0,0.0,0.0,0.0,0.0,0.0,0.0,0.0,0.0,0.0,0.0,0.0,0.0,0.0,0.0,0.0,0.0,0.0,0.0,0.0,0.0,0.0,0.0,0.0,0.0,0.0,0.0,0.0,0.0,0.0,0.0,0.0,0.0,0.0,0.0,0.0,0.0,0.0,0.0,0.0,0.0,0.0,0.0,0.0,0.0,0.0,0.0,0.0,0.0,0.0,0.0,0.0,0.0,0.0,0.0,0.0,0.0,0.0,0.0,0.0,0.0,0.0,0.0,0.0,0.0,0.0,0.0,0.0,0.0,0.0,0.0,0.0,0.0,0.0,0.0,0.0,0.0,0.0,0.0,0.0,0.0,0.0,1.7754,1.7329,1.7427,1.7968,1.7245,1.6986,0.0,0.0,0.0,0.0,0.0,0.0,0.0,0.0,0.0,0.0,0.0,0.0,0.0,0.0,0.0,0.0,0.0,0.0,0.0,0.0,0.0,0.0,0.0,0.0,0.0,0.0,0.0,0.0,0.0,0.0,0.0,0.0,0.0,0.0,0.0,0.0,0.0,0.0,0.0,0.0,0.0,0.0,0.0,0.0,0.0,0.0,0.0,0.0,0.0,0.0,0.0,0.0,0.0,0.0,0.0,0.0,0.0,0.0,0.0,0.0,0.0,0.0,0.0,0.0,0.0,0.0,0.0,0.0,0.0,0.0,0.0,0.0,0.0,0.0,0.0,0.0,0.0,0.0,0.0,0.0,0.0,0.0,0.0,0.0,0.0,0.0,0.0,0.0,0.0,0.0,0.0,0.0,0.0,0.0,0.0,0.0,0.0,0.0,0.0,0.0,0.0,0.0,0.0,0.0,0.0,0.0,0.0,0.0,0.0,1.7722,0.0,1.6974,1.7548,1.7084,1.6832,0.0,0.0,0.0,0.0,0.0,0.0,0.0,0.0,0.0,0.0,0.0,0.0,0.0,0.0,0.0,0.0,0.0,0.0,0.0,0.0,0.0,0.0,0.0,0.0,0.0,0.0,0.0,0.0,0.0,0.0,0.0,0.0,0.0,0.0,0.0,0.0,0.0,0.0,0.0,0.0,0.0,0.0,0.0,0.0,0.0,0.0,0.0,0.0,0.0,0.0,0.0,0.0,0.0,0.0,0.0,0.0,0.0,0.0,0.0,0.0,0.0,0.0,0.0,0.0,0.0,0.0,0.0,0.0,0.0,0.0,0.0,0.0,0.0,0.0,0.0,0.0,0.0,0.0,0.0,0.0,0.0,0.0,0.0,0.0,0.0,0.0,0.0,0.0,0.0,0.0,0.0,0.0,0.0,0.0,0.0,0.0,0.0,0.0,0.0,0.0,0.0,0.0,0.0,0.0,0.0,0.0,0.0,0.0,1.8499,1.855,1.7843,1.7462,1.7619,1.7538,1.7573,0.0,0.0,0.0,0.0,0.0,0.0,0.0,0.0,0.0,0.0,0.0,0.0,0.0,0.0,0.0,0.0,0.0,0.0,0.0,0.0,0.0,0.0,0.0,0.0,0.0,0.0,0.0,0.0,0.0,0.0,0.0,0.0,0.0,0.0,0.0,0.0,0.0,0.0,0.0,0.0,0.0,0.0,0.0,0.0,0.0,0.0,0.0,0.0,0.0,0.0,0.0,0.0,0.0,0.0,0.0,0.0,0.0,0.0,0.0,0.0,0.0,0.0,0.0,0.0,0.0,0.0,0.0,0.0,0.0,0.0,0.0,0.0,0.0,0.0,0.0,0.0,0.0,0.0,0.0,0.0,0.0,0.0,0.0,0.0,0.0,0.0,0.0,0.0,0.0,0.0,0.0,0.0,0.0,0.0,0.0,0.0,0.0,0.0,0.0,0.0,0.0,0.0,0.0,0.0,0.0,0.0,0.0,0.0,0.0,1.8559,1.7347,1.7257,1.8377,1.6864,1.6815,0.0,0.0,0.0,0.0,0.0,0.0,0.0,0.0,0.0,0.0,0.0,0.0,0.0,0.0,0.0,0.0,0.0,0.0,0.0,0.0,0.0,0.0,0.0,0.0,0.0,0.0,0.0,0.0,0.0,0.0,0.0,0.0,0.0,0.0,0.0,0.0,0.0,0.0,0.0,0.0,0.0,0.0,0.0,0.0,0.0,0.0,0.0,0.0,0.0,0.0,0.0,0.0,0.0,0.0,0.0,0.0,0.0,0.0,0.0,0.0,0.0,0.0,0.0,0.0,0.0,0.0,0.0,0.0,0.0,0.0,0.0,0.0,0.0,0.0,0.0,0.0,0.0,0.0,0.0,0.0,0.0,0.0,0.0,0.0,0.0,0.0,0.0,0.0,0.0,0.0,0.0,0.0,0.0,0.0,0.0,0.0,0.0,0.0,0.0,0.0,0.0,0.0,0.0,0.0,0.0,0.0,0.0,0.0,0.0,1.9739,1.8098,1.7684,1.8834,1.7393,1.7209,1.8461,0.0,0.0,0.0,0.0,0.0,0.0,0.0,0.0,0.0,0.0,0.0,0.0,0.0,0.0,0.0,0.0,0.0,0.0,0.0,0.0,0.0,0.0,0.0,0.0,0.0,0.0,0.0,0.0,0.0,0.0,0.0,0.0,0.0,0.0,0.0,0.0,0.0,0.0,0.0,0.0,0.0,0.0,0.0,0.0,0.0,0.0,0.0,0.0,0.0,0.0,0.0,0.0,0.0,0.0,0.0,0.0,0.0,0.0,0.0,0.0,0.0,0.0,0.0,0.0,0.0,0.0,0.0,0.0,0.0,0.0,0.0,0.0,0.0,0.0,0.0,0.0,0.0,0.0,0.0,0.0,0.0,0.0,0.0,0.0,0.0,0.0,0.0,0.0,0.0,0.0,0.0,0.0,0.0,0.0,0.0,0.0,0.0,0.0,0.0,0.0,0.0,0.0,0.0,0.0,0.0,0.0,0.0,0.0,2.2042,2.0023,1.9035,1.9099,1.8949,1.8565,0.0,0.0,0.0,0.0,0.0,0.0,0.0,0.0,0.0,0.0,0.0,0.0,0.0,0.0,0.0,0.0,0.0,0.0,0.0,0.0,0.0,0.0,0.0,0.0,0.0,0.0,0.0,0.0,0.0,0.0,0.0,0.0,0.0,0.0,0.0,0.0,0.0,0.0,0.0,0.0,0.0,0.0,0.0,0.0,0.0,0.0,0.0,0.0,0.0,0.0,0.0,0.0,0.0,0.0,0.0,0.0,0.0,0.0,0.0,0.0,0.0,0.0,0.0,0.0,0.0,0.0,0.0,0.0,0.0,0.0,0.0,0.0,0.0,0.0,0.0,0.0,0.0,0.0,0.0,0.0,0.0,0.0,0.0,0.0,0.0,0.0,0.0,0.0,0.0,0.0,0.0,0.0,0.0,0.0,0.0,0.0,0.0,0.0,0.0,0.0,0.0,0.0,0.0,0.0,0.0,0.0,0.0,0.0,0.0,2.2768,2.328,2.3096,2.2136,2.0593,1.9713,0.0,0.0,0.0,0.0,0.0,0.0,0.0,0.0,0.0,0.0,0.0,0.0,0.0,0.0,0.0,0.0,0.0,0.0,0.0,0.0,0.0,0.0,0.0,0.0,0.0,0.0,0.0,0.0,0.0,0.0,0.0,0.0,0.0,0.0,0.0,0.0,0.0,0.0,0.0,0.0,0.0,0.0,0.0,0.0,0.0,0.0,0.0,0.0,0.0,0.0,0.0,0.0,0.0,0.0,0.0,0.0,0.0,0.0,0.0,0.0,0.0,0.0,0.0,0.0,0.0,0.0,0.0,0.0,0.0,0.0,0.0,0.0,0.0,0.0,0.0,0.0,0.0,0.0,0.0,0.0,0.0,0.0,0.0,0.0,0.0,0.0,0.0,0.0,0.0,0.0,0.0,0.0,0.0,0.0,0.0,0.0,0.0,0.0,0.0,0.0,0.0,0.0,0.0,0.0,0.0,0.0,0.0,0.0,2.2648,2.4533,2.5691,2.5908,2.5169,2.2861,2.1173,0.0,0.0,0.0,0.0,0.0,0.0,0.0,0.0,0.0,0.0,0.0,0.0,0.0,0.0,0.0,0.0,0.0,0.0,0.0,0.0,0.0,0.0,0.0,0.0,0.0,0.0,0.0,0.0,0.0,0.0,0.0,0.0,0.0,0.0,0.0,0.0,0.0,0.0,0.0,0.0,0.0,0.0,0.0,0.0,0.0,0.0,0.0,0.0,0.0,0.0,0.0,0.0,0.0,0.0,0.0,0.0,0.0,0.0,0.0,0.0,0.0,0.0,0.0,0.0,0.0,0.0,0.0,0.0,0.0,0.0,0.0,0.0,0.0,0.0,0.0,0.0,0.0,0.0,0.0,0.0,0.0,0.0,0.0,0.0,0.0,0.0,0.0,0.0,0.0,0.0,0.0,0.0,0.0,0.0,0.0,0.0,0.0,0.0,0.0,0.0,0.0,0.0,0.0,0.0,0.0,0.0,0.0,0.0,2.3619,2.6623,2.744,2.7824,2.7754,2.5229,2.2746,0.0,0.0,0.0,0.0,0.0,0.0,0.0,0.0,0.0,0.0,0.0,0.0,0.0,0.0,0.0,0.0,0.0,0.0,0.0,0.0,0.0,0.0,0.0,0.0,0.0,0.0,0.0,0.0,0.0,0.0,0.0,0.0,0.0,0.0,0.0,0.0,0.0,0.0,0.0,0.0,0.0,0.0,0.0,0.0,0.0,0.0,0.0,0.0,0.0,0.0,0.0,0.0,0.0,0.0,0.0,0.0,0.0,0.0,0.0,0.0,0.0,0.0,0.0,0.0,0.0,0.0,0.0,0.0,0.0,0.0,0.0,0.0,0.0,0.0,0.0,0.0,0.0,0.0,0.0,0.0,0.0,0.0,0.0,0.0,0.0,0.0,0.0,0.0,0.0,0.0,0.0,0.0,0.0,0.0,0.0,0.0,0.0,0.0,0.0,0.0,0.0,0.0,0.0,0.0,0.0,0.0,0.0,0.0,2.5853,2.7285,2.8625,2.9109,2.8576,2.5969,2.3491,0.0,0.0,0.0,0.0,0.0,0.0,0.0,0.0,0.0,0.0,0.0,0.0,0.0,0.0,0.0,0.0,0.0,0.0,0.0,0.0,0.0,0.0,0.0,0.0,0.0,0.0,0.0,0.0,0.0,0.0,0.0,0.0,0.0,0.0,0.0,0.0,0.0,0.0,0.0,0.0,0.0,0.0,0.0,0.0,0.0,0.0,0.0,0.0,1.5274,0.0,0.0,0.0,0.0,0.0,0.0,0.0,0.0,0.0,0.0,0.0,0.0,0.0,0.0,0.0,0.0,0.0,0.0,0.0,0.0,0.0,0.0,0.0,0.0,0.0,0.0,0.0,0.0,0.0,0.0,0.0,0.0,0.0,0.0,0.0,0.0,0.0,0.0,0.0,0.0,0.0,0.0,0.0,0.0,0.0,0.0,0.0,0.0,0.0,0.0,0.0,0.0,0.0,0.0,0.0,0.0,0.0,0.0,0.0,2.5806,2.7481,2.8786,2.8903,2.7719,2.6324,2.4457,0.0,0.0,0.0,0.0,0.0,0.0,0.0,0.0,0.0,0.0,0.0,0.0,0.0,0.0,0.0,0.0,0.0,0.0,0.0,0.0,0.0,0.0,0.0,0.0,0.0,0.0,0.0,0.0,0.0,0.0,0.0,0.0,0.0,0.0,0.0,0.0,0.0,0.0,0.0,0.0,0.0,0.0,0.0,0.0,0.0,0.0,0.0,0.0,0.0,0.0,0.0,0.0,0.0,0.0,0.0,0.0,0.0,0.0,0.0,0.0,0.0,0.0,0.0,0.0,0.0,0.0,0.0,0.0,0.0,0.0,0.0,0.0,0.0,0.0,0.0,0.0,0.0,0.0,0.0,0.0,0.0,0.0,0.0,0.0,0.0,0.0,0.0,0.0,0.0,0.0,0.0,0.0,0.0,0.0,0.0,0.0,0.0,0.0,0.0,0.0,0.0,0.0,0.0,0.0,0.0,0.0,0.0,2.3812,2.5288,2.7552,2.8481,2.8203,2.6748,2.6333,2.5037,2.2763,0.0,0.0,0.0,0.0,0.0,0.0,0.0,0.0,0.0,0.0,0.0,0.0,0.0,0.0,0.0,0.0,0.0,0.0,0.0,0.0,0.0,0.0,0.0,0.0,0.0,0.0,0.0,0.0,0.0,0.0,0.0,0.0,0.0,0.0,0.0,0.0,0.0,0.0,1.4583,1.5122,0.0,0.0,0.0,0.0,0.0,0.0,0.0,0.0,1.5396,0.0,0.0,0.0,0.0,0.0,0.0,0.0,0.0,0.0,0.0,0.0,0.0,0.0,0.0,0.0,0.0,0.0,0.0,0.0,0.0,0.0,0.0,0.0,0.0,0.0,0.0,0.0,0.0,0.0,0.0,0.0,0.0,0.0,0.0,0.0,0.0,0.0,0.0,0.0,0.0,0.0,0.0,0.0,0.0,0.0,0.0,0.0,0.0,0.0,0.0,0.0,0.0,0.0,0.0,0.0,0.0,2.4609,2.535,2.6555,2.8193,2.8095,2.7882,2.7536,2.5572,2.396,2.2877,0.0,0.0,0.0,0.0,0.0,0.0,0.0,0.0,0.0,0.0,0.0,0.0,0.0,0.0,0.0,0.0,0.0,0.0,0.0,0.0,0.0,0.0,0.0,0.0,0.0,0.0,0.0,0.0,0.0,0.0,0.0,0.0,0.0,0.0,0.0,0.0,0.0,0.0,0.0,1.6386,1.6534,0.0,0.0,0.0,0.0,0.0,0.0,0.0,0.0,1.5599,0.0,0.0,0.0,0.0,0.0,0.0,0.0,0.0,0.0,0.0,0.0,0.0,0.0,0.0,0.0,0.0,0.0,0.0,0.0,0.0,0.0,0.0,0.0,0.0,0.0,0.0,0.0,0.0,0.0,0.0,0.0,0.0,0.0,0.0,0.0,0.0,0.0,0.0,0.0,0.0,0.0,0.0,0.0,0.0,0.0,0.0,0.0,0.0,0.0,0.0,0.0,0.0,0.0,0.0,0.0,2.4878,2.5338,2.6074,2.7159,2.732,2.6956,2.6065,2.4867,2.3667,0.0,0.0,0.0,0.0,0.0,0.0,0.0,0.0,0.0,0.0,0.0,0.0,0.0,0.0,0.0,0.0,0.0,0.0,0.0,0.0,0.0,0.0,0.0,0.0,0.0,0.0,0.0,0.0,0.0,0.0,0.0,0.0,0.0,0.0,0.0,0.0,0.0,0.0,0.0,0.0,1.7246,1.701,1.7871,0.0,0.0,0.0,0.0,0.0,0.0,1.6987,1.6829,0.0,0.0,0.0,0.0,0.0,0.0,0.0,0.0,0.0,0.0,0.0,0.0,0.0,0.0,0.0,0.0,0.0,0.0,0.0,0.0,0.0,0.0,0.0,0.0,0.0,0.0,0.0,0.0,0.0,0.0,0.0,0.0,0.0,0.0,0.0,0.0,0.0,0.0,0.0,0.0,0.0,0.0,0.0,0.0,0.0,0.0,0.0,0.0,0.0,0.0,0.0,0.0,0.0,0.0,0.0,2.4597,2.4738,2.5111,2.5848,2.6259,2.5804,2.449,2.4215,2.3462,0.0,0.0,0.0,0.0,0.0,0.0,0.0,0.0,0.0,0.0,0.0,0.0,0.0,0.0,0.0,0.0,0.0,0.0,0.0,0.0,0.0,0.0,0.0,0.0,0.0,0.0,0.0,0.0,0.0,0.0,0.0,0.0,0.0,0.0,0.0,0.0,0.0,0.0,0.0,0.0,0.0,1.767,1.9005,1.8648,0.0,0.0,0.0,0.0,1.8235,1.8338,0.0,0.0,0.0,0.0,0.0,0.0,0.0,0.0,0.0,0.0,0.0,0.0,0.0,0.0,0.0,0.0,0.0,0.0,0.0,0.0,0.0,0.0,0.0,0.0,0.0,0.0,0.0,0.0,0.0,0.0,0.0,0.0,0.0,0.0,0.0,0.0,0.0,0.0,0.0,0.0,0.0,0.0,0.0,0.0,0.0,0.0,0.0,0.0,0.0,0.0,0.0,0.0,0.0,0.0,0.0,0.0,2.3793,2.3915,2.4336,2.5054,2.4787,2.4577,2.4557,2.3598,2.3059,0.0,0.0,0.0,0.0,0.0,0.0,0.0,0.0,0.0,0.0,0.0,0.0,0.0,0.0,0.0,0.0,0.0,0.0,0.0,0.0,0.0,0.0,0.0,0.0,0.0,0.0,0.0,0.0,0.0,0.0,0.0,0.0,0.0,0.0,0.0,0.0,0.0,0.0,0.0,0.0,0.0,1.898,1.9174,1.9121,1.8787,0.0,0.0,1.9043,1.906,1.9705,0.0,0.0,0.0,0.0,0.0,0.0,0.0,0.0,0.0,0.0,0.0,0.0,0.0,0.0,0.0,0.0,0.0,0.0,0.0,0.0,0.0,0.0,0.0,0.0,0.0,0.0,0.0,0.0,0.0,0.0,0.0,0.0,0.0,0.0,0.0,0.0,0.0,0.0,0.0,0.0,0.0,0.0,0.0,0.0,0.0,0.0,0.0,0.0,0.0,0.0,0.0,0.0,0.0,0.0,0.0,2.2887,2.3559,2.3735,2.3974,2.4315,2.427,2.4098,2.3762,2.3055,2.2765,0.0,0.0,0.0,0.0,0.0,0.0,0.0,0.0,0.0,0.0,0.0,0.0,0.0,0.0,0.0,0.0,0.0,0.0,0.0,0.0,0.0,0.0,0.0,0.0,0.0,0.0,0.0,0.0,0.0,0.0,0.0,0.0,0.0,0.0,0.0,0.0,0.0,0.0,0.0,0.0,0.0,0.0,2.0603,2.0682,0.0,0.0,0.0,2.1242,2.0742,0.0,0.0,0.0,0.0,0.0,0.0,0.0,0.0,0.0,0.0,0.0,0.0,0.0,0.0,0.0,0.0,0.0,0.0,0.0,0.0,0.0,0.0,0.0,0.0,0.0,0.0,0.0,0.0,0.0,0.0,0.0,0.0,0.0,0.0,0.0,0.0,0.0,0.0,0.0,0.0,0.0,0.0,0.0,0.0,0.0,0.0,0.0,0.0,0.0,0.0,0.0,0.0,0.0,0.0,0.0,0.0,0.0,2.3204,2.3415,2.3526,2.3526,2.3728,2.3583,2.3105,2.2823,0.0,0.0,0.0,0.0,0.0,0.0,0.0,0.0,0.0,0.0,0.0,0.0,0.0,0.0,0.0,0.0,0.0,0.0,0.0,0.0,0.0,0.0,0.0,0.0,0.0,0.0,0.0,1.491,0.0,0.0,0.0,0.0,0.0,0.0,0.0,0.0,0.0,0.0,0.0,0.0,0.0,0.0,2.1023,2.1699,2.1963,2.2101,0.0,0.0,2.3093,2.2238,2.3528,2.3975,0.0,0.0,0.0,0.0,0.0,0.0,0.0,0.0,0.0,0.0,0.0,0.0,0.0,0.0,0.0,0.0,0.0,0.0,0.0,0.0,0.0,0.0,0.0,0.0,0.0,0.0,0.0,0.0,0.0,0.0,0.0,0.0,0.0,0.0,0.0,0.0,0.0,0.0,0.0,0.0,0.0,0.0,0.0,0.0,0.0,0.0,0.0,0.0,0.0,0.0,0.0,0.0,0.0,0.0,0.0,2.249,2.2678,2.2785,2.2767,2.2781,2.2907,2.3107,2.3064,2.3234,0.0,0.0,0.0,0.0,0.0,0.0,0.0,0.0,0.0,0.0,0.0,0.0,0.0,0.0,0.0,0.0,0.0,0.0,0.0,0.0,0.0,0.0,0.0,0.0,0.0,0.0,0.0,0.0,0.0,0.0,0.0,0.0,0.0,0.0,0.0,0.0,0.0,0.0,0.0,0.0,0.0,2.1658,2.1697,2.2397,2.2919,0.0,0.0,2.3918,2.3058,2.4382,2.4652,2.2194,0.0,0.0,0.0,0.0,0.0,0.0,0.0,0.0,0.0,0.0,0.0,0.0,0.0,0.0,0.0,0.0,0.0,0.0,0.0,0.0,0.0,0.0,0.0,0.0,0.0,0.0,0.0,0.0,0.0,0.0,0.0,0.0,0.0,0.0,0.0,0.0,0.0,0.0,0.0,0.0,0.0,0.0,0.0,0.0,0.0,0.0,0.0,0.0,0.0,0.0,0.0,0.0,0.0,2.269,2.351,2.3392,2.3302,2.332,2.3361,2.3218,2.2855,2.2917,2.3128,0.0,0.0,0.0,0.0,0.0,0.0,0.0,0.0,0.0,0.0,0.0,0.0,0.0,0.0,0.0,0.0,0.0,0.0,0.0,0.0,0.0,0.0,0.0,0.0,0.0,0.0,0.0,0.0,1.714,1.8715,1.9084,0.0,0.0,0.0,0.0,0.0,0.0,0.0,0.0,0.0,0.0,2.2621,2.3163,2.3511,0.0,0.0,2.4502,2.4798,2.3928,2.5255,2.552,2.3011,2.2884,0.0,0.0,0.0,0.0,0.0,0.0,0.0,0.0,0.0,0.0,0.0,0.0,0.0,0.0,0.0,0.0,0.0,0.0,0.0,0.0,0.0,0.0,0.0,0.0,0.0,0.0,0.0,0.0,0.0,0.0,0.0,0.0,0.0,0.0,0.0,0.0,0.0,0.0,0.0,0.0,0.0,0.0,0.0,0.0,0.0,0.0,0.0,0.0,0.0,0.0,0.0,0.0,2.3031,2.4192,2.3631,2.3456,2.3648,2.3526,2.3192,2.2689,2.2777,2.2957,0.0,0.0,0.0,0.0,0.0,0.0,0.0,0.0,0.0,0.0,0.0,0.0,0.0,0.0,0.0,0.0,0.0,0.0,0.0,0.0,0.0,0.0,0.0,0.0,0.0,0.0,0.0,0.0,1.8084,1.9901,1.9936,0.0,0.0,0.0,0.0,0.0,0.0,0.0,0.0,0.0,0.0,2.3371,2.4017,2.4115,2.4168,2.4193,2.4542,2.4616,2.401,2.514,2.5423,2.3405,0.0,0.0,0.0,0.0,0.0,0.0,0.0,0.0,0.0,0.0,0.0,0.0,0.0,0.0,0.0,0.0,0.0,0.0,0.0,0.0,0.0,0.0,0.0,0.0,0.0,0.0,0.0,0.0,0.0,0.0,2.041,0.0,0.0,0.0,0.0,0.0,0.0,0.0,0.0,0.0,0.0,0.0,0.0,0.0,0.0,0.0,0.0,0.0,0.0,0.0,0.0,0.0,0.0,2.3459,2.4176,2.32,2.2928,2.3574,2.298,2.2661,2.2592,2.2659,2.276,2.2919,0.0,0.0,0.0,0.0,0.0,0.0,0.0,0.0,0.0,0.0,0.0,0.0,0.0,0.0,0.0,0.0,0.0,0.0,0.0,0.0,0.0,0.0,0.0,0.0,0.0,0.0,1.8446,1.9139,1.9635,0.0,0.0,0.0,0.0,0.0,0.0,0.0,0.0,0.0,0.0,2.2699,2.373,2.3904,2.3971,2.4101,2.42,2.3605,2.3109,2.3098,2.3834,2.4032,0.0,0.0,0.0,0.0,0.0,0.0,0.0,0.0,0.0,0.0,0.0,0.0,0.0,0.0,0.0,0.0,0.0,0.0,0.0,0.0,0.0,0.0,0.0,0.0,0.0,0.0,0.0,2.1615,2.1667,0.0,0.0,0.0,0.0,0.0,0.0,0.0,0.0,0.0,0.0,0.0,2.6008,2.5582,0.0,0.0,0.0,0.0,0.0,0.0,0.0,0.0,0.0,0.0,0.0,0.0,2.4347,2.5446,2.4952,2.4494,2.4273,2.4106,2.3534,2.2559,2.2538,2.2619,2.2777,0.0,0.0,0.0,0.0,0.0,0.0,0.0,0.0,0.0,0.0,0.0,0.0,0.0,0.0,0.0,0.0,0.0,0.0,0.0,0.0,0.0,0.0,0.0,0.0,0.0,2.0263,0.0,0.0,0.0,0.0,0.0,0.0,0.0,0.0,0.0,0.0,0.0,2.3366,2.3704,2.3837,2.4115,2.468,2.4807,2.4841,0.0,0.0,0.0,0.0,0.0,0.0,0.0,0.0,0.0,0.0,0.0,0.0,0.0,0.0,2.4682,2.2102,2.233,2.2801,2.2526,0.0,0.0,0.0,0.0,0.0,0.0,0.0,0.0,0.0,0.0,0.0,0.0,0.0,0.0,2.3366,0.0,2.3217,0.0,0.0,0.0,0.0,0.0,0.0,0.0,0.0,2.657,2.7501,2.8114,2.7921,2.7721,0.0,2.7626,2.7027,0.0,0.0,0.0,0.0,0.0,0.0,0.0,0.0,2.5095,2.6453,2.5714,2.5164,2.4961,2.4766,2.4096,2.29,2.2624,2.2538,2.2636,2.2868,2.275,0.0,0.0,0.0,0.0,0.0,0.0,0.0,0.0,0.0,0.0,0.0,0.0,0.0,0.0,0.0,0.0,0.0,0.0,0.0,0.0,0.0,0.0,0.0,2.1203,0.0,0.0,0.0,0.0,0.0,0.0,0.0,0.0,0.0,2.2313,2.3232,2.4033,2.4355,2.4283,2.4398,2.5016,0.0,0.0,0.0,0.0,0.0,0.0,0.0,2.5662,2.5205,2.5816,2.6152,2.5682,2.6033,2.6287,2.6044,0.0,0.0,2.3028,2.3279,2.3787,2.3503,2.3638,2.3815,2.3847,2.3839,2.3831,0.0,0.0,0.0,0.0,0.0,0.0,0.0,0.0,2.391,2.3991,0.0,2.3924,0.0,0.0,0.0,0.0,0.0,2.6757,0.0,0.0,2.9289,3.0053,2.9828,3.0384,3.0379,2.9815,3.0133,2.9628,2.8263,2.6997,0.0,0.0,0.0,0.0,0.0,0.0,2.5787,2.7112,2.5547,2.4949,2.5592,2.4995,2.4262,2.3495,2.2886,2.2535,2.2501,2.2582,2.2649,2.2716,2.3488,0.0,0.0,0.0,0.0,0.0,0.0,0.0,0.0,0.0,0.0,0.0,0.0,0.0,0.0,0.0,0.0,0.0,0.0,0.0,0.0,2.1749,0.0,0.0,0.0,0.0,0.0,0.0,0.0,0.0,0.0,0.0,2.251,2.3556,2.4232,2.3518,0.0,0.0,0.0,0.0,2.3683,2.4009,2.4116,2.419,2.4189,2.5452,2.6486,2.6682,0.0,0.0,2.8036,2.6795,2.6116,2.6831,2.634,2.5345,2.4523,2.496,2.5273,2.4663,2.5108,2.5563,2.566,2.5681,2.5654,2.8803,0.0,0.0,0.0,0.0,2.6466,2.7616,2.9077,2.9185,2.8981,2.8502,2.7976,0.0,0.0,0.0,0.0,0.0,0.0,2.8725,2.9507,3.0243,3.0982,3.1671,3.1414,3.1228,3.111,3.0577,2.9931,2.9123,2.8076,2.7749,2.8061,0.0,0.0,0.0,0.0,2.7344,2.7451,2.7078,2.6708,2.637,2.5692,2.4694,2.3456,2.3291,2.2963,2.2453,2.2487,2.2552,2.2619,2.2865,0.0,0.0,0.0,0.0,0.0,0.0,0.0,0.0,0.0,0.0,0.0,0.0,0.0,0.0,0.0,0.0,0.0,0.0,0.0,2.1207,2.13,2.1495,0.0,0.0,0.0,0.0,0.0,0.0,0.0,0.0,0.0,2.3683,2.4111,2.4642,0.0,0.0,2.4975,2.5731,2.5031,2.4443,2.4485,2.5048,0.0,2.5399,2.6362,2.7122,2.7191,2.7999,2.8862,2.9533,2.9332,2.8991,2.8682,2.8403,2.7931,2.7104,2.6607,2.6573,2.691,2.7209,2.7373,2.7441,2.746,2.7439,3.3641,3.0192,2.8429,2.8367,2.9374,2.9844,3.0856,3.2184,3.2258,3.2034,3.1644,3.093,2.9841,2.8469,2.7991,0.0,0.0,0.0,3.0244,3.1244,3.1642,3.2332,3.323,3.314,3.2991,3.2796,3.2512,3.1898,3.1036,3.0347,3.0014,2.9957,0.0,0.0,2.7853,2.7871,2.7845,2.7879,2.7942,2.7625,2.6872,2.6017,2.5169,2.4306,2.3742,2.3231,2.2807,2.2561,2.2432,2.2487,2.2788,2.2994,0.0,0.0,0.0,0.0,0.0,0.0,0.0,0.0,0.0,0.0,0.0,2.1589,0.0,0.0,0.0,0.0,2.196,2.2209,2.2061,2.211,0.0,0.0,0.0,0.0,0.0,0.0,0.0,2.3945,2.4382,2.4773,2.4939,2.5052,2.5272,2.5643,2.5059,2.496,2.5882,0.0,2.4753,2.5089,2.5874,2.6422,2.6422,2.7403,2.8196,2.8239,2.8572,2.9161,2.9985,3.0266,3.0202,2.9756,2.9427,2.9217,2.9018,2.8338,2.7809,2.8065,2.8391,2.8624,2.8684,2.8924,2.9108,3.7793,3.6578,3.3405,3.2348,3.2826,3.2856,3.3275,3.3873,3.3888,3.3844,3.3754,3.3125,3.2393,3.1589,3.0878,0.0,3.0851,3.138,3.205,3.2766,3.338,3.3978,3.4623,3.519,3.5175,3.4578,3.5126,3.4737,3.3493,3.3041,3.2491,3.1727,2.8849,2.764,2.8104,2.782,2.7881,2.8403,2.8417,2.8028,2.7205,2.6268,2.5744,2.5676,2.4323,2.3562,2.3475,2.2852,2.2465,2.2499,2.318,2.3621,2.3673,0.0,0.0,0.0,0.0,0.0,0.0,0.0,0.0,0.0,0.0,0.0,0.0,0.0,0.0,0.0,2.4247,0.0,2.3746,2.3627,0.0,0.0,0.0,2.3895,2.5345,2.4887,2.4723,2.5398,0.0,0.0,2.6009,2.6044,2.5959,2.5682,2.4976,2.4838,2.5764,2.5132,2.4786,2.5616,2.6415,2.6972,2.6906,2.8129,2.9042,2.897,2.8978,2.9007,2.9486,2.9856,3.0036,3.0024,2.9544,2.9317,3.0229,2.9559,2.8964,2.8193,2.8858,2.9509,2.953,3.005,3.032,4.0421,3.9579,3.8324,3.6931,3.5594,3.6043,3.6611,3.7225,3.7225,3.6941,3.6447,3.5818,3.4891,3.3738,3.3557,3.3514,3.3605,3.4216,3.4605,3.4801,3.4966,3.5115,3.528,3.5429,3.5429,3.5267,3.4901,3.4573,3.418,3.3139,3.2319,3.1675,3.0456,2.9735,2.9533,2.9967,2.9916,2.9376,2.9356,2.8927,2.805,2.7543,2.6995,2.6437,2.5558,2.4814,2.4271,2.4068,2.3983,2.3983,2.4167,2.4298,2.436,2.4328,0.0,0.0,0.0,0.0,0.0,0.0,0.0,0.0,0.0,2.2414,2.1914,0.0,2.2877,0.0,2.3918,2.452,2.443,2.3919,0.0,0.0,2.4203,2.4112,2.5216,2.5621,2.5712,2.5366,2.5926,2.6149,2.5636,2.56,2.5925,2.6592,2.6362,2.6483,2.7332,2.62,2.5319,2.5616,2.5857,2.5903,2.6107,2.7283,2.8153,2.7535,2.8418,2.8923,2.7951,2.8447,2.906,2.9187,2.8617,2.8503,2.9321,2.8825,2.8242,2.81,2.9214,3.0315,3.0315,3.0468,3.057,4.1405,4.1072,4.0197,3.9084,3.7996,3.8096,3.8355,3.8719,3.8805,3.8646,3.8222,3.7614,3.6761,3.5804,3.5789,3.5774,3.5851,3.6178,3.6357,3.6342,3.6073,3.5938,3.5923,3.5639,3.5489,3.5489,3.5115,3.4921,3.4876,3.3888,3.3216,3.2931,3.1956,3.1397,3.1193,3.0877,3.0592,3.0359,2.9711,2.9247,2.8919,2.7966,2.7402,2.7229,2.6135,2.563,2.5782,2.5177,2.4991,2.5311,2.5361,2.5242,2.5002,2.4969,2.4816,0.0,0.0,0.0,0.0,0.0,0.0,0.0,0.0,0.0,0.0,0.0,2.3545,2.359,2.4533,2.5048,2.4799,2.443,2.4508,2.5321,2.5001,2.5141,2.6285,2.6444,2.6463,2.6423,2.6552,2.6539,2.624,2.6231,2.6599,2.7468,2.7465,2.7476,2.7676,2.6749,2.5958,2.5996,2.6317,2.6665,2.6985,2.724,2.754,2.7809,2.8015,2.8014,2.7568,2.7723,2.7999,2.81,2.7825,2.7733,2.8261,2.8126,2.7813,2.7997,2.8965,2.9737,2.9528,2.9761,2.997,4.1598,4.1611,4.0386,3.9841,3.9782,3.9269,3.9031,3.9068,3.925,3.9337,3.9343,3.8745,3.8162,3.7674,3.7659,3.7569,3.7404,3.7404,3.733,3.7135,3.6611,3.6357,3.636,3.5774,3.5489,3.5489,3.5489,3.5489,3.5474,3.4923,3.4608,3.4444,3.323,3.2736,3.2855,3.1265,3.0655,3.117,2.989,2.9435,2.982,2.8331,2.7771,2.8172,2.6737,2.6465,2.7499,2.6295,2.5864,2.6598,2.6582,2.6351,2.595,2.5933,2.5663,0.0,2.5066,0.0,0.0,0.0,0.0,0.0,0.0,0.0,0.0,2.4942,2.512,2.5195,2.5847,2.6001,2.5491,2.5438,2.5634,2.6124,2.6193,2.6672,2.7774,2.7385,2.7232,2.7891,2.7385,2.708,2.7223,2.7271,2.7504,2.789,2.7958,2.7843,2.7652,2.7066,2.6655,2.6655,2.7094,2.7321,2.7853,2.7232,2.6925,2.7966,2.7519,2.6886,2.7268,2.7102,2.6902,2.6943,2.694,2.7024,2.7198,2.7287,2.7305,2.7259,2.7931,2.842,2.827,2.8786,2.8975,4.1986,4.1896,4.0585,4.0047,3.9984,3.8998,3.8686,3.887,3.8907,3.8995,3.9126,3.9007,3.8996,3.9,3.9014,3.8437,3.7419,3.7404,3.6851,3.5863,3.5744,3.5699,3.5684,3.5564,3.5489,3.5489,3.5489,3.5489,3.5489,3.537,3.5026,3.4503,3.3694,3.3605,3.404,0.0,0.0,0.0,3.0783,3.0593,3.066,3.0151,2.9968,3.0131,2.8867,0.0,2.8629,2.7514,2.7181,2.786,2.7546,0.0,0.0,0.0,0.0,0.0,0.0,0.0,0.0,0.0,0.0,0.0,2.8299,2.7639,2.6503,2.7027,2.7419,2.7402,2.8066,2.8405,2.8234,2.8235,2.8268,2.8368,2.8368,2.8503,2.8756,2.862,2.8637,2.8739,2.8654,2.8334,2.7759,2.7674,2.7623,2.7456,2.7398,2.7482,2.766,2.7486,2.7417,2.743,2.6724,2.6017,2.6054,2.5954,2.5762,2.5384,2.6119,2.614,2.5362,2.5576,2.5894,2.5989,2.5558,2.5446,2.6166,2.5865,2.5571,2.5581,2.5792,2.629,2.761,2.8604,2.8985,4.2092,0.0,4.1018,4.0394,0.0,3.9217,3.8733,3.8523,3.8708,3.8855,3.8943,3.9053,3.9156,3.9265,3.9337,3.905,3.8377,3.8048,3.7719,3.7389,3.6432,3.6148,3.6417,3.5804,3.5489,3.5489,3.5489,3.5489,3.5489,3.5489,3.5325,3.4966,3.4339,3.4174,3.4444,3.2991,3.2034,3.1607,3.1175,3.0824,3.0541,2.9956,2.9681,2.9681,2.8672,0.0,0.0,0.0,0.0,0.0,0.0,0.0,0.0,0.0,0.0,2.9027,2.8993,2.9162,2.9499,2.9533,2.9702,3.0059,3.0036,2.9394,2.7995,2.8285,2.8541,2.8505,2.8844,2.9029,2.901,2.8993,2.8993,2.8993,2.8993,2.9128,2.9431,2.9213,2.9162,2.945,2.9247,2.8687,2.7908,2.7789,2.764,2.7271,2.7197,2.7322,2.7622,2.7721,2.7754,2.7936,2.7228,2.6588,2.6533,2.6565,2.6274,2.575,2.6051,2.6054,2.5,2.5176,2.542,2.5087,2.4713,2.4696,2.5075,2.4998,2.4811,2.4952,2.5304,2.5696,2.651,2.7286,2.773,4.2092,4.2034,4.1381,4.0699,4.0046,3.9465,3.8826,3.824,0.0,0.0,0.0,3.8922,3.8995,3.9053,3.925,3.9277,3.9143,3.8646,3.8631,3.8975,3.7404,3.6866,3.718,3.6178,3.5609,3.5504,3.5489,3.5489,3.5489,3.5489,3.5489,3.5444,3.4831,3.4429,3.4279,3.3457,3.2764,3.226,3.1516,3.0931,3.0487,2.9734,2.9273,2.91,2.8327,2.8338,2.9317,2.8685,2.8822,2.993,2.9946,2.9926,2.9967,3.009,2.9986,2.9617,2.9666,3.0004,3.0632,3.0661,3.0878,3.1486,3.1439,3.0799,2.9463,2.9345,2.9327,2.9343,2.9345,2.9362,2.9345,2.9364,2.9399,2.9364,2.9364,2.9651,3.0121,2.9751,2.9687,3.0108,2.9786,2.9044,2.8196,2.8043,2.7759,2.7226,2.7085,2.7228,2.7535,2.7722,2.7893,2.8133,2.7707,2.7479,2.7449,2.72,2.706,2.6062,2.6015,2.5933,2.5393,2.5221,2.4964,2.4403,2.4284,2.4376,2.4394,2.4541,2.4653,2.4684,2.531,2.577,2.5353,2.58,2.6222,4.2092,4.2049,4.1366,4.0713,4.006,3.945,3.8812,3.8217,3.8277,3.8389,3.8553,3.859,3.8701,3.887,3.9053,3.8829,3.8308,3.8366,3.8153,3.7689,3.7404,3.7045,3.6611,3.6432,3.6043,3.5534,3.5489,3.5489,3.5489,3.5489,3.5489,3.5415,3.4816,3.4249,3.3709,3.4039,3.3935,3.3276,3.2237,3.166,3.157,3.1445,3.1134,3.0677,3.0078,2.9697,2.9524,2.8482,2.8318,2.9187,2.8878,2.9135,3.017,3.0823,3.137,3.1827,3.2326,3.2727,3.2895,3.2744,3.2634,3.2734,3.2836,3.2273,3.0864,3.0673,3.065,3.0613,3.0642,3.0712,3.0732,3.076,3.0729,3.0701,3.0794,3.0881,3.087,3.0827,3.0835,3.0954,3.0954,3.0294,2.9076,2.8824,2.8299,2.7148,2.6859,2.689,2.7227,2.7577,2.7911,2.8054,2.7625,2.7109,2.687,2.6088,2.5615,2.4657,2.4675,2.473,2.453,2.4539,2.4484,2.4227,2.4219,2.4266,2.4284,2.4348,2.4582,2.4746,2.5075,2.5129,2.5215,2.547,2.5485,4.2092,4.2063,4.1758,4.125,4.0597,3.9958,3.932,3.8754,3.8739,3.8574,3.8366,3.8441,3.8553,3.8649,3.8833,3.8781,3.8485,3.8308,3.826,3.8296,3.7679,3.7449,3.7449,3.6821,3.6327,3.6028,3.5669,3.5489,3.5489,3.5489,3.5489,3.5474,3.5175,3.4891,3.4607,3.4517,3.4354,3.4039,3.2826,3.2044,3.1741,3.1379,3.0966,3.0479,2.989,2.948,2.9286,2.8378,2.8372,2.9399,2.921,2.9678,3.0933,3.132,3.1794,3.2422,3.2657,3.2922,3.3279,3.3096,3.2988,3.3009,3.3086,3.284,3.2085,3.1692,3.1495,3.1478,3.1183,3.0952,3.0952,3.1015,3.1072,3.1012,3.1131,3.1151,3.1015,3.1035,3.1075,3.1075,3.1075,3.069,2.9719,2.9583,2.9008,2.7604,2.6996,2.6792,2.6923,2.7083,2.7454,2.7984,2.8024,2.7725,2.7116,2.6407,2.5654,2.4919,2.4792,2.4619,2.4373,2.4475,2.4622,2.4291,2.4209,2.4403,2.4763,2.4949,2.5208,2.5727,2.5818,2.5928,2.6118,2.6305,2.6215,4.2092,4.2092,4.2092,4.1628,4.0844,4.0321,3.977,3.9233,3.9334,3.9044,3.8449,3.8425,3.8441,3.8441,3.8649,3.8745,3.8686,3.8389,3.8542,3.8971,3.8191,3.8013,3.8272,3.7345,3.6836,3.6656,3.6178,3.5938,3.5938,3.5938,3.5863,3.5729,3.5579,3.5489,3.5489,3.4966,3.4711,3.4668,3.3544,3.2691,3.2119,3.1593,3.1033,3.0344,2.9856,2.9474,2.9182,2.8697,2.8839,2.9695,2.9766,3.0257,3.1292,3.167,3.211,3.2685,3.2941,3.3183,3.3572,3.3616,3.3555,3.3467,3.3583,3.3556,3.3334,3.2789,3.2352,3.213,3.17,3.1336,3.1206,3.12,3.1157,3.0969,3.1035,3.1052,3.0955,3.0975,3.1012,3.1012,3.1035,3.0822,3.0273,3.0089,2.9447,2.8043,2.7165,2.6725,2.6791,2.6808,2.7162,2.7779,2.8268,2.8139,2.7568,2.7027,2.6373,2.568,2.5353,2.5037,2.4682,2.4914,2.5016,2.4538,2.431,2.466,2.5443,2.5556,2.5826,2.6392,2.6606,2.6776,2.6937,2.7403,2.7383,4.2092,4.2092,4.2092,4.1337,4.0307,4.0176,3.9799,3.9334,3.977,3.9683,3.9015,3.8463,3.824,3.824,3.8427,3.8501,3.8553,3.8649,3.8848,3.9068,3.8971,3.8737,3.8452,3.8242,3.7898,3.7389,3.721,3.712,3.712,3.7165,3.6941,3.6387,3.5818,3.5519,3.5504,3.5444,3.54,3.54,3.4681,3.4009,3.338,3.3275,3.2661,3.1405,3.1314,3.0786,2.978,2.9659,2.9735,2.9955,2.9981,3.0232,3.0828,3.187,3.2724,3.3181,3.4199,3.4888,3.4918,3.5194,3.5149,3.4958,3.5029,3.5029,3.4672,3.4143,3.345,3.289,3.2713,3.2324,3.1829,3.1834,3.1625,3.094,3.0959,3.0855,3.0794,3.0895,3.1012,3.1012,3.1092,3.09,3.0309,3.0123,2.9497,2.8246,2.7351,2.6911,2.7091,2.7087,2.7164,2.7595,2.7786,2.7753,2.7536,2.7471,2.6986,2.6358,2.5692,2.5304,2.509,2.4699,2.4398,2.4997,2.4695,2.486,2.5825,2.6058,2.5896,2.6811,2.7056,2.6952,2.7164,2.7856,2.8074,4.1198,4.1254,4.187,4.1787,4.1308,4.1279,4.0684,3.9784,3.9987,3.9552,3.8652,3.8318,3.8202,3.8202,3.8277,3.8329,3.8329,3.8538,3.8723,3.8943,3.9068,3.9065,3.8955,3.8556,3.8227,3.7958,3.7599,3.7404,3.7404,3.7404,3.727,3.7,3.6387,3.6088,3.6058,3.5699,3.5489,3.5489,3.522,3.4951,3.4637,3.3903,3.3051,3.2168,3.172,3.1106,3.0306,2.9886,2.9853,3.0253,3.0283,3.06,3.1326,3.2151,3.2709,3.3045,3.3982,3.4682,3.497,3.5095,3.5135,3.4977,3.5135,3.5135,3.4947,3.4805,3.4535,3.4018,3.3271,3.263,3.2403,3.2522,3.2323,3.165,3.1627,3.1503,3.0945,3.0935,3.1012,3.0995,3.1055,3.1027,3.0748,3.0378,2.9869,2.9092,2.8162,2.7453,2.7521,2.7197,2.707,2.7305,2.7398,2.7563,2.7723,2.7441,2.7199,2.6957,2.639,2.583,2.5369,2.5108,2.4982,2.5401,2.5126,2.5529,2.7045,2.7166,2.7096,2.7727,2.8181,2.8295,2.8396,2.8821,2.899,4.0774,4.1113,4.1814,4.199,4.1845,4.2034,4.1439,4.0481,4.0554,4.0017,3.9015,3.8812,3.8725,3.871,3.8565,3.8478,3.8516,3.8643,3.8779,3.8958,3.8959,3.9068,3.9241,3.8859,3.8626,3.8601,3.8212,3.7973,3.7928,3.7734,3.7674,3.7584,3.7045,3.6656,3.6462,3.5983,3.5684,3.5504,3.5489,3.5489,3.5355,3.4547,3.3724,3.308,3.2602,3.1943,3.1091,3.0612,3.0492,3.0733,3.0763,3.1044,3.1682,3.2382,3.2949,3.3371,3.4036,3.4586,3.4947,3.4994,3.5011,3.497,3.5065,3.5065,3.497,3.5128,3.5128,3.4847,3.3905,3.3299,3.3101,3.3006,3.2677,3.2051,3.1913,3.151,3.0959,3.0895,3.0932,3.0955,3.0995,3.1035,3.1069,3.0581,3.0021,2.9852,2.8958,2.7993,2.7807,2.7368,2.708,2.7055,2.7069,2.7319,2.7798,2.7696,2.7453,2.7408,2.7049,2.6465,2.5929,2.5815,2.5847,2.6266,2.5931,2.6282,2.7622,2.8073,2.8029,2.8758,2.9119,2.9158,2.9061,2.9385,2.9474,4.117,4.1953,4.2051,4.1758,4.1207,4.1831,4.17,4.1033,4.1628,4.1541,4.0728,4.0205,3.9987,3.9915,3.9421,3.9175,3.916,3.9146,3.9299,3.9417,3.8889,3.8767,3.909,3.906,3.9169,3.9254,3.92,3.9149,3.9149,3.8661,3.8362,3.8302,3.7689,3.7075,3.6641,3.6477,3.6118,3.5639,3.5519,3.5489,3.5489,3.5415,3.5011,3.4429,3.4354,3.3604,3.2542,3.2362,3.2078,3.1466,3.1406,3.1466,3.1611,3.2544,3.3563,3.4578,3.4899,3.5041,3.5065,3.5175,3.5198,3.5128,3.5175,3.5175,3.4923,3.5041,3.5058,3.4923,3.475,3.4456,3.3966,3.3389,3.2691,3.1974,3.1195,3.0825,3.0584,3.0712,3.079,3.0892,3.0955,3.1052,3.1137,3.0548,3.026,3.0074,2.9448,2.8722,2.8078,2.779,2.7436,2.6928,2.6808,2.6955,2.7562,2.7653,2.7832,2.7866,2.7512,2.7242,2.7126,2.7014,2.707,2.7083,2.6761,2.7123,2.8253,2.865,2.8481,2.8754,2.9034,2.9134,2.9197,2.9269,2.9336,4.1198,4.2092,4.2092,4.1947,4.1773,4.199,4.1715,4.1149,4.1337,4.1076,4.0495,4.0191,4.0104,4.0104,4.0321,4.0176,3.9799,3.9784,3.9901,4.0013,3.9794,3.9654,3.9535,3.9684,3.9505,3.9258,3.9352,3.9388,3.9373,3.917,3.905,3.8931,3.8377,3.7898,3.7599,3.6881,3.6357,3.6118,3.5744,3.5489,3.5489,3.5489,3.537,3.513,3.4728,3.3858,3.2527,3.2497,3.2183,3.1525,3.1496,3.1496,3.1582,3.2244,3.3203,3.4234,3.4423,3.4618,3.4923,3.5018,3.5034,3.4994,3.5018,3.5018,3.4947,3.5018,3.5041,3.4947,3.4994,3.4915,3.4732,3.4416,3.376,3.2718,3.2279,3.1712,3.102,3.081,3.0851,3.0892,3.0955,3.1072,3.1117,3.0954,3.0818,3.0734,3.0159,2.9414,2.8704,2.818,2.7621,2.6928,2.6691,2.6775,2.6938,2.7319,2.7542,2.777,2.7695,2.7458,2.7281,2.7362,2.7421,2.7538,2.7357,2.7676,2.8659,2.8858,2.8734,2.8782,2.9044,2.9096,2.9141,2.9197,2.924,4.0972,4.1633,4.1953,4.2092,4.2092,4.2092,4.1831,4.1439,4.1424,4.1163,4.0757,4.0525,4.0525,4.0742,4.0989,4.1134,4.0974,4.0626,4.0517,4.0606,4.0402,4.0198,4.0053,4.0109,3.992,3.9491,3.939,3.9388,3.9388,3.9388,3.9388,3.9343,3.8931,3.8601,3.8257,3.73,3.6701,3.6432,3.5833,3.5489,3.5489,3.5489,3.5489,3.5429,3.504,3.4307,3.3185,3.2946,3.2527,3.1914,3.1615,3.1597,3.1824,3.2355,3.3071,3.3958,3.4275,3.4497,3.4851,3.4899,3.4899,3.4899,3.4923,3.4899,3.4899,3.4994,3.4994,3.4947,3.497,3.5018,3.5041,3.5024,3.4542,3.345,3.31,3.2505,3.1337,3.112,3.1041,3.0881,3.0912,3.1012,3.1095,3.1114,3.1117,3.119,3.0734,3.0176,2.9448,2.8924,2.8128,2.7266,2.7114,2.6962,2.696,2.7116,2.7305,2.753,2.7915,2.7696,2.7619,2.7711,2.7816,2.7906,2.8104,2.8388,2.8672,2.8909,2.8994,2.8987,2.901,2.9062,2.9096,2.9112,2.9267,4.0646,4.0887,4.1675,4.2092,4.2092,4.2092,4.2092,4.202,4.2034,4.1947,4.1758,4.1366,4.1395,4.1787,4.1424,4.1744,4.231,4.1541,4.1149,4.1189,4.0593,4.0353,4.0407,4.0471,4.0336,4.0025,3.9674,3.9448,3.9478,3.9493,3.9493,3.9469,3.9394,3.902,3.8422,3.7734,3.7075,3.6552,3.5893,3.5504,3.5489,3.5489,3.5489,3.5489,3.5444,3.5115,3.4474,3.3829,3.317,3.2497,3.1884,3.1798,3.2247,3.2815,3.3449,3.3984,3.4546,3.4851,3.4899,3.4899,3.4899,3.4899,3.4899,3.4899,3.4899,3.4923,3.4923,3.4899,3.4899,3.4923,3.4923,3.4923,3.4615,3.4016,3.3289,3.2542,3.1873,3.1581,3.1359,3.0891,3.0831,3.0915,3.0975,3.1032,3.1072,3.1134,3.1089,3.0768,3.0091,2.9803,2.9294,2.828,2.7807,2.7673,2.7301,2.6989,2.7135,2.7355,2.7794,2.7973,2.8,2.808,2.8244,2.8361,2.8427,2.8687,2.8787,2.9005,2.9005,2.8987,2.9017,2.9138,2.9327,2.9453,2.9476,4.1015,4.1633,4.1953,4.2092,4.2092,4.2092,4.2092,4.2092,4.2092,4.2092,4.2049,4.1874,4.1918,4.202,4.186,4.2005,4.2324,4.1947,4.199,4.2194,4.1729,4.1233,4.1004,4.1184,4.0923,4.0472,4.0644,4.0516,4.0172,4.0098,4.0098,4.0038,3.9634,3.9298,3.902,3.8003,3.727,3.703,3.6058,3.5504,3.5489,3.5489,3.5489,3.5489,3.5489,3.5385,3.516,3.4563,3.368,3.2602,3.2288,3.2062,3.2,3.268,3.3277,3.3553,3.4391,3.4899,3.4899,3.4899,3.4899,3.4899,3.4899,3.4899,3.4899,3.4899,3.4899,3.4899,3.4899,3.4899,3.4899,3.4899,3.4608,3.3941,3.3597,3.3143,3.2448,3.1896,3.1347,3.0838,3.0733,3.0794,3.0895,3.0955,3.1015,3.1072,3.1134,3.092,3.0328,3.0176,2.9786,2.8822,2.8654,2.8438,2.8083,2.7854,2.791,2.7818,2.7975,2.812,2.8183,2.8365,2.8556,2.8687,2.8755,2.8839,2.894,2.9005,2.9005,2.906,2.9127,2.9384,2.9732,2.9921,3.0018,4.023,4.0531,4.0887,4.1226,4.1535,4.1535,4.1773,4.2051,4.2092,4.2092,4.2092,4.2092,4.2092,4.2092,4.2092,4.2237,4.2368,4.2223,4.2426,4.2832,4.2382,4.1901,4.1587,4.1685,4.1557,4.1128,4.1257,4.1175,4.0801,4.0741,4.0651,4.0352,3.9978,3.9634,3.9364,3.8362,3.7689,3.7315,3.6402,3.5759,3.5549,3.5489,3.5489,3.5489,3.5489,3.5489,3.5474,3.507,3.4352,3.3365,3.2826,3.2288,3.1972,3.2536,3.3002,3.3355,3.4011,3.4667,3.4851,3.4899,3.4899,3.4899,3.4899,3.4899,3.4899,3.4899,3.4899,3.4899,3.4899,3.4899,3.4899,3.4899,3.4667,3.427,3.422,3.3856,3.316,3.2194,3.152,3.1087,3.0813,3.0742,3.0794,3.0895,3.0975,3.1015,3.1131,3.1142,3.0632,3.0531,3.0057,2.9651,2.9431,2.9172,2.8853,2.874,2.8757,2.8478,2.8227,2.8182,2.8143,2.8378,2.8612,2.8687,2.8743,2.8846,2.8917,2.8982,2.9023,2.9115,2.942,2.9916,3.0375,3.0595,3.0748,3.8854,3.8089,3.8997,4.0012,4.066,4.0774,4.1353,4.2009,4.2092,4.2092,4.2092,4.2092,4.2092,4.2092,4.2092,4.2353,4.2731,4.2339,4.2339,4.2615,4.2353,4.2143,4.2257,4.2178,4.206,4.1885,4.1727,4.1549,4.1444,4.1467,4.11,4.0576,4.0382,4.0038,3.9394,3.8721,3.8048,3.7539,3.6821,3.6148,3.5624,3.5504,3.5489,3.5489,3.5489,3.5489,3.5474,3.5415,3.5115,3.4397,3.323,3.2632,3.254,3.2501,3.2901,3.3335,3.3841,3.4423,3.4804,3.4899,3.4899,3.4899,3.4899,3.4899,3.4899,3.4899,3.4899,3.4899,3.4899,3.4899,3.4899,3.4899,3.4866,3.4883,3.4767,3.4452,3.3812,3.2597,3.2,3.1615,3.1052,3.0651,3.0879,3.0951,3.0932,3.0995,3.1112,3.1123,3.1106,3.092,3.0784,3.0497,3.0176,2.9923,2.9609,2.9742,2.9709,2.9402,2.9044,2.8801,2.8407,2.8521,2.8625,2.8687,2.8876,2.8913,2.8966,2.9105,2.9379,2.9732,3.0136,3.0632,3.1035,3.1347,3.1641,4.0537,3.9572,4.0501,4.0765,4.0731,4.1339,4.1814,4.2092,4.2092,4.2092,4.2092,4.2092,4.2092,4.2092,4.2092,4.2194,4.2281,4.2179,4.2136,4.2295,4.2194,4.2339,4.2622,4.2712,4.2555,4.2384,4.2557,4.2566,4.2171,4.2141,4.1743,4.1115,4.0636,4.0083,3.9409,3.8751,3.8347,3.7988,3.703,3.6447,3.6178,3.5729,3.5504,3.5489,3.5489,3.5489,3.5489,3.5489,3.5175,3.4533,3.3709,3.3216,3.3203,3.3451,3.3655,3.3845,3.4308,3.4732,3.4851,3.4899,3.4899,3.4899,3.4899,3.4899,3.4899,3.4899,3.4899,3.4899,3.4899,3.4899,3.4899,3.4899,3.4899,3.4899,3.4899,3.4634,3.3972,3.3491,3.3044,3.2464,3.1747,3.1447,3.1337,3.1178,3.0962,3.1029,3.1112,3.119,3.119,3.1173,3.0987,3.1038,3.084,3.0622,3.0504,3.0663,3.0627,3.0338,3.0034,2.9773,2.9214,2.8742,2.8728,2.87,2.918,2.9332,2.935,2.9428,2.9837,3.0448,3.0834,3.1329,3.1916,3.232,3.2632,4.147,4.0188,4.0806,4.1042,4.111,4.1668,4.199,4.208,4.2092,4.2092,4.2092,4.2092,4.2092,4.2092,4.2092,4.2092,4.2092,4.2092,4.2092,4.2092,4.2216,4.2392,4.2688,4.29,4.2907,4.2865,4.311,4.309,4.2821,4.2776,4.2267,4.1459,4.101,4.0352,3.9403,3.9065,3.8661,3.8317,3.7599,3.7124,3.6492,3.6133,3.5774,3.5594,3.5489,3.5489,3.5489,3.5489,3.5295,3.4861,3.4294,3.388,3.3788,3.3789,3.3945,3.4064,3.4399,3.4602,3.4875,3.4899,3.4899,3.4899,3.4899,3.4899,3.4899,3.4899,3.4899,3.4899,3.4899,3.4899,3.4899,3.4899,3.4899,3.4899,3.4899,3.4717,3.431,3.3955,3.3624,3.311,3.2569,3.1961,3.1853,3.1512,3.1264,3.1096,3.1112,3.1171,3.119,3.119,3.119,3.119,3.123,3.0993,3.1088,3.1307,3.1395,3.1141,3.0945,3.0699,3.026,2.9554,2.9513,2.9619,2.9713,2.9794,2.9929,3.021,3.0827,3.1347,3.1659,3.21,3.2706,3.2944,3.3311,4.2048,4.0497,4.068,4.1146,4.1667,4.1832,4.211,4.2183,4.2252,4.2179,4.2121,4.2092,4.2092,4.2092,4.2092,4.2092,4.2092,4.2092,4.2092,4.2133,4.2257,4.2433,4.2662,4.2875,4.3086,4.32,4.329,4.3275,4.3185,4.3215,4.2656,4.1773,4.1467,4.0711,3.9813,3.9403,3.908,3.8646,3.8332,3.7749,3.7004,3.6582,3.6148,3.5789,3.5534,3.5504,3.5489,3.5504,3.5507,3.5604,3.497,3.4621,3.4463,3.3975,3.3936,3.4339,3.4537,3.4702,3.4853,3.4998,3.4982,3.4949,3.4899,3.4899,3.4899,3.4899,3.4899,3.4899,3.4899,3.4899,3.4899,3.4899,3.4899,3.4899,3.4899,3.4899,3.4783,3.4303,3.3928,3.3856,3.3282,3.2613,3.2274,3.203,3.1901,3.1544,3.1472,3.139,3.1309,3.119,3.119,3.119,3.1232,3.1293,3.1551,3.1881,3.1958,3.1916,3.1776,3.1582,3.1455,3.1021,3.0876,3.0808,3.0501,3.0553,3.081,3.1239,3.1787,3.2137,3.2394,3.2963,3.3513,3.3476,3.3678,4.3386,4.1185,4.2767,4.3018,4.2521,4.3111,4.3227,4.2818,4.2789,4.2528,4.2179,4.2107,4.2092,4.2092,4.2092,4.2092,4.2092,4.2092,4.2092,4.2107,4.2133,4.2284,4.2514,4.2809,4.3076,4.325,4.3305,4.3305,4.3305,4.3245,4.2955,4.2231,4.1587,4.0995,4.0247,3.9619,3.9328,3.911,3.8691,3.8302,3.7808,3.7,3.6492,3.6207,3.5789,3.5534,3.5504,3.5489,3.5733,3.5928,3.5664,3.5413,3.5566,3.5143,3.5052,3.5402,3.5548,3.5407,3.5124,3.5429,3.5512,3.5098,3.5098,3.4899,3.4899,3.4949,3.4932,3.4899,3.4899,3.4899,3.4899,3.4899,3.4899,3.4899,3.4899,3.4923,3.489,3.4733,3.4601,3.4492,3.4028,3.3582,3.3595,3.306,3.2681,3.2174,3.1881,3.1732,3.1529,3.1292,3.119,3.119,3.121,3.1271,3.143,3.1841,3.2175,3.2353,3.2343,3.2383,3.2256,3.1999,3.1691,3.1384,3.1051,3.1255,3.1696,3.202,3.2496,3.2821,3.3091,3.3421,3.3715,3.3788,3.3807,4.4364,4.2925,4.4159,4.4291,4.3753,4.4152,4.4052,4.3471,4.3108,4.2818,4.2498,4.2252,4.2092,4.2092,4.2092,4.2092,4.2092,4.2092,4.2092,4.2092,4.2092,4.2201,4.2392,4.2622,4.285,4.313,4.325,4.329,4.3305,4.3245,4.3,4.2396,4.1752,4.1055,4.0397,3.9753,3.9418,3.9328,3.908,3.8736,3.8287,3.7778,3.6956,3.6582,3.6133,3.5863,3.5549,3.5489,3.5814,3.6179,3.6133,3.6168,3.6498,3.6109,3.6027,3.6386,3.6506,3.639,3.6158,3.6241,3.6357,3.5943,3.5909,3.5694,3.5528,3.5413,3.5197,3.4998,3.4899,3.4899,3.4899,3.4899,3.4899,3.4899,3.4899,3.4906,3.497,3.4947,3.4947,3.492,3.4629,3.4351,3.413,3.3845,3.3446,3.2908,3.2273,3.2107,3.1853,3.1599,3.1258,3.119,3.119,3.1232,3.1312,3.1675,3.2248,3.2493,3.2706,3.2847,3.2929,3.2618,3.227,3.2091,3.1987,3.2311,3.273,3.299,3.3088,3.3316,3.3532,3.3733,3.3807,3.3807,3.3807,4.5251,4.4716,4.5232,4.5274,4.5081,4.5039,4.4676,4.4081,4.3427,4.3108,4.2876,4.2368,4.2092,4.2092,4.2092,4.2092,4.2092,4.2107,4.2136,4.2324,4.2339,4.2407,4.2544,4.2708,4.2795,4.2985,4.313,4.325,4.329,4.3275,4.309,4.2515,4.1767,4.1175,4.0531,3.9798,3.9388,3.9358,3.9313,3.9125,3.8646,3.8377,3.7689,3.6911,3.6656,3.6312,3.5926,3.5877,3.611,3.6492,3.6538,3.6906,3.719,3.6838,3.6689,3.7208,3.7268,3.7119,3.6953,3.7102,3.7218,3.7168,3.7052,3.6771,3.6307,3.5976,3.5661,3.528,3.5048,3.4899,3.4899,3.4899,3.4923,3.4947,3.4947,3.4994,3.5065,3.5018,3.5041,3.5088,3.4948,3.4728,3.4661,3.4471,3.4071,3.3634,3.3,3.2496,3.2276,3.1972,3.1664,3.1343,3.1343,3.154,3.1638,3.1819,3.2335,3.2862,3.3116,3.3438,3.371,3.3816,3.361,3.319,3.3158,3.3338,3.3354,3.3383,3.3524,3.378,3.3807,3.3807,3.3807,3.3807,3.3935,4.6419,4.5839,4.6357,4.6191,4.5779,4.5706,4.5284,4.4705,4.4066,4.35,4.2963,4.2368,4.2092,4.2092,4.2092,4.2092,4.2092,4.2165,4.2397,4.2716,4.2818,4.2889,4.2973,4.3121,4.3193,4.2887,4.297,4.3155,4.325,4.3275,4.324,4.291,4.1998,4.1362,4.0891,4.0113,3.9448,3.9388,3.9388,3.929,3.911,3.8691,3.8138,3.736,3.7255,3.6926,3.6613,3.678,3.7141,3.721,3.7237,3.786,3.8313,3.7692,3.7508,3.7854,3.803,3.7847,3.75,3.7748,3.7649,3.7317,3.7251,3.7201,3.6854,3.6406,3.6125,3.5711,3.5263,3.4949,3.4899,3.4899,3.497,3.5018,3.5065,3.5128,3.5222,3.5222,3.5205,3.5268,3.5118,3.5015,3.5036,3.4992,3.4734,3.4378,3.3914,3.3423,3.3136,3.2716,3.2242,3.1904,3.1582,3.1809,3.2056,3.2232,3.2577,3.3307,3.3723,3.4238,3.4581,3.5119,3.5041,3.4151,3.3742,3.3742,3.3759,3.3793,3.3748,3.3835,3.383,3.3862,3.4064,3.4284,3.4523,4.5895,4.4878,4.5313,4.5335,4.5124,4.5095,4.5226,4.5285,4.4429,4.3819,4.3297,4.2571,4.2092,4.2092,4.2092,4.2092,4.215,4.2469,4.2716,4.3007,4.3311,4.35,4.3456,4.3548,4.3654,4.3511,4.329,4.313,4.329,4.3305,4.3305,4.3105,4.2327,4.1782,4.1302,4.0442,3.9783,3.9523,3.9403,3.9403,3.9388,3.9035,3.8586,3.8108,3.7883,3.7584,3.7166,3.7182,3.7592,3.7848,3.7884,3.8415,3.8772,3.8787,3.8389,3.8672,3.8725,3.8626,3.8311,3.8609,3.856,3.837,3.8195,3.8013,3.7748,3.735,3.6771,3.6108,3.5794,3.5297,3.4965,3.4932,3.497,3.5065,3.5111,3.5198,3.5314,3.5314,3.536,3.5429,3.5344,3.5327,3.5418,3.538,3.529,3.5048,3.4742,3.4387,3.3998,3.344,3.2869,3.2591,3.2309,3.2429,3.2703,3.2932,3.3172,3.3813,3.4447,3.4948,3.5302,3.5786,3.5297,3.4425,3.4232,3.4621,3.4309,3.4363,3.4137,3.4018,3.427,3.4523,3.4614,3.4766,3.5092,4.5608,4.4269,4.4518,4.4591,4.4606,4.4373,4.4843,4.5325,4.4239,4.3705,4.3645,4.2644,4.2092,4.2092,4.2107,4.215,4.2281,4.2803,4.3108,4.3573,4.3921,4.4211,4.4123,4.39,4.3833,4.4022,4.349,4.3245,4.3499,4.3364,4.3305,4.3095,4.2671,4.2066,4.1354,4.0846,4.0202,3.9627,3.9553,3.9553,3.9418,3.9358,3.917,3.8661,3.8586,3.8287,3.7698,3.7851,3.8044,3.8315,3.8473,3.8745,3.9191,3.9315,3.9315,3.9315,3.9315,3.9315,3.9265,3.9232,3.9166,3.905,3.9232,3.895,3.8595,3.8131,3.7608,3.6555,3.6208,3.5909,3.5379,3.5164,3.516,3.5088,3.5135,3.5198,3.5383,3.5452,3.5435,3.5481,3.552,3.5526,3.5554,3.5549,3.5425,3.5403,3.5115,3.5047,3.4658,3.4066,3.3563,3.3345,3.3185,3.321,3.3432,3.3776,3.4089,3.4593,3.5243,3.5851,3.608,3.6345,3.5783,3.553,3.591,3.6191,3.5593,3.5006,3.4968,3.4985,3.5082,3.5188,3.5349,3.5605,3.5917,4.7156,4.6336,4.584,4.5685,4.5489,4.4652,4.4556,4.4819,4.345,4.2794,4.3166,4.2455,4.2092,4.2092,4.2092,4.2382,4.276,4.305,4.3602,4.4342,4.472,4.4924,4.5054,4.464,4.4396,4.4368,4.3681,4.3668,4.3813,4.3529,4.3305,4.3155,4.2746,4.2096,4.1602,4.1392,4.0621,3.9783,3.9993,3.9993,3.9523,3.9418,3.9298,3.9275,3.9221,3.9037,3.8605,3.8793,3.903,3.8567,3.8979,3.9197,3.9315,3.9315,3.9315,3.9315,3.9315,3.9315,3.9315,3.9315,3.9315,3.9315,3.9315,3.9302,3.9106,3.8674,3.805,3.7119,3.697,3.6638,3.6059,3.5876,3.5682,3.5528,3.5492,3.5549,3.5666,3.615,3.6066,3.5785,3.5892,3.5712,3.5616,3.5566,3.552,3.5538,3.5532,3.543,3.5284,3.4692,3.4449,3.4269,3.4149,3.4152,3.446,3.4765,3.5061,3.5479,3.6107,3.6717,3.6875,3.7105,3.7449,3.7359,3.7611,3.708,3.6006,3.5586,3.5791,3.5886,3.5903,3.6009,3.6156,3.645,3.6798,4.6198,4.5285,4.4166,4.4216,4.4883,4.4452,4.4527,4.4614,4.3774,4.3185,4.2906,4.2368,4.2092,4.2092,4.2092,4.2411,4.2963,4.3355,4.4008,4.4908,4.536,4.5683,4.5742,4.5533,4.5243,4.4938,4.4333,4.3977,4.4022,4.3678,4.3305,4.3245,4.303,4.2611,4.1991,4.1961,4.1399,4.0786,4.0472,4.0277,3.9963,3.9612,3.9388,3.9424,3.9773,3.9753,3.9768,4.0195,4.0175,3.9744,3.9832,3.9686,3.9431,3.9315,3.9315,3.9315,3.9315,3.9315,3.9315,3.9315,3.9315,3.9315,3.9315,3.9352,3.9365,3.9132,3.8633,3.7893,3.7783,3.7367,3.682,3.6655,3.6572,3.642,3.6193,3.641,3.6575,3.678,3.6928,3.658,3.6248,3.6146,3.5988,3.5898,3.5785,3.5577,3.5583,3.5532,3.5498,3.5334,3.5244,3.5313,3.5218,3.5155,3.5562,3.5915,3.6139,3.655,3.713,3.7597,3.7686,3.7937,3.8136,3.8062,3.7807,3.7126,3.6252,3.6298,3.6617,3.6655,3.667,3.6835,3.7037,3.7551,3.7881,4.4578,4.3788,4.3171,4.3673,4.4652,4.4406,4.4428,4.4574,4.3819,4.3243,4.2776,4.2295,4.2092,4.2092,4.215,4.2528,4.3282,4.3761,4.4458,4.5185,4.5784,4.6137,4.6094,4.5973,4.5801,4.6022,4.446,4.4112,4.4047,4.3678,4.3305,4.3305,4.3245,4.291,4.2575,4.2447,4.2222,4.1632,4.098,4.0621,4.0307,3.9918,3.9634,3.9685,4.0056,4.0512,4.061,4.1087,4.1067,4.0491,4.0282,4.0011,3.9448,3.9315,3.9315,3.9315,3.9315,3.9315,3.9315,3.9315,3.9315,3.9315,3.9369,3.9422,3.9458,3.9388,3.9256,3.8668,3.8607,3.8131,3.7582,3.7384,3.7244,3.7228,3.7194,3.7475,3.7672,3.7627,3.757,3.7297,3.6992,3.684,3.6671,3.6417,3.6107,3.5718,3.5616,3.565,3.569,3.5746,3.5876,3.595,3.6142,3.6151,3.6595,3.6948,3.7223,3.7611,3.8191,3.8317,3.8264,3.8282,3.8409,3.826,3.8094,3.7776,3.7236,3.7356,3.7442,3.7549,3.7643,3.7731,3.7988,3.8505,3.8854,4.2702,4.2787,4.4733,4.551,4.5553,4.4712,4.426,4.3979,4.3018,4.2509,4.2283,4.2107,4.2092,4.2092,4.2194,4.2716,4.3848,4.395,4.456,4.5374,4.6047,4.6108,4.5961,4.5674,4.5454,4.5714,4.453,4.3992,4.4003,4.3614,4.3349,4.3305,4.3305,4.291,4.2746,4.288,4.2836,4.2252,4.1639,4.0995,4.0636,4.0262,3.9978,3.9679,4.0076,4.0497,4.0535,4.1279,4.1353,4.0642,4.0688,4.026,3.9696,3.9514,3.9497,3.9332,3.9315,3.9315,3.9315,3.9315,3.9315,3.9342,3.9395,3.9475,3.9511,3.9616,3.9516,3.9354,3.9201,3.8906,3.8396,3.8096,3.7965,3.7876,3.7911,3.8028,3.8136,3.8117,3.8022,3.7898,3.7736,3.7584,3.7364,3.711,3.6823,3.6428,3.6242,3.6276,3.6096,3.6107,3.6305,3.6508,3.6856,3.7147,3.7576,3.8007,3.854,3.879,3.917,3.8952,3.8627,3.8681,3.8771,3.8768,3.8638,3.8449,3.8403,3.8611,3.8711,3.8624,3.8634,3.8689,3.8836,3.9221,3.9551,4.3055,4.3529,4.4385,4.4382,4.3877,4.4428,4.4165,4.3487,4.3372,4.2854,4.2107,4.2092,4.2092,4.2107,4.2121,4.2528,4.3297,4.3384,4.4023,4.4545,4.5025,4.5242,4.5191,4.5327,4.5161,4.5039,4.4216,4.3678,4.3574,4.3439,4.3349,4.3305,4.3319,4.3185,4.311,4.3125,4.3105,4.2895,4.2297,4.1707,4.107,4.0531,4.0083,3.9505,4.0634,4.0805,4.0808,4.2092,4.1884,4.1512,4.1502,4.0894,4.0144,3.9995,3.973,3.9398,3.9348,3.9315,3.9315,3.9315,3.9315,3.9299,3.9352,3.9432,3.9563,3.9616,3.9668,3.9642,3.959,3.9251,3.9132,3.8911,3.8811,3.8631,3.8543,3.8613,3.8648,3.8665,3.8654,3.8608,3.8481,3.8328,3.8075,3.7797,3.7493,3.7188,3.7036,3.6874,3.6689,3.6797,3.7102,3.7505,3.7903,3.8441,3.8905,3.9427,3.993,4.0003,4.0111,3.9822,3.9441,3.9134,3.9223,3.9221,3.9345,3.9355,3.9511,3.9918,3.9836,3.9334,3.9405,3.968,3.9845,3.9976,4.0267,4.2808,4.3027,4.3328,4.3387,4.3362,4.4411,4.4385,4.3703,4.3863,4.3413,4.2368,4.2353,4.2368,4.2339,4.2165,4.2426,4.2905,4.3123,4.3602,4.4166,4.4628,4.4709,4.4849,4.4953,4.4949,4.4691,4.4197,4.3783,4.4441,4.3648,4.3514,4.3529,4.3394,4.329,4.3275,4.3305,4.3305,4.3155,4.291,4.2366,4.1722,4.1317,4.0723,4.0338,4.123,4.182,4.1925,4.2793,4.2942,4.2482,4.2173,4.1765,4.1077,4.0448,4.0144,3.9779,3.9448,3.9348,3.9332,3.9315,3.9315,3.9299,3.9299,3.9432,3.9563,3.959,3.9668,3.9772,3.9668,3.959,3.9563,3.9375,3.9262,3.9066,3.9125,3.9163,3.9326,3.9361,3.9379,3.9352,3.9217,3.9108,3.908,3.8809,3.8299,3.7936,3.7493,3.7422,3.735,3.7638,3.8261,3.8685,3.9153,3.9742,4.033,4.0583,4.0763,4.0528,4.0637,4.0763,4.0474,4.0111,3.984,3.9894,4.0071,4.0264,4.042,4.054,4.0221,3.9738,4.0047,4.0469,4.049,4.0636,4.102,4.1649,4.0816,4.1817,4.3167,4.4457,4.4835,4.4705,4.4284,4.4052,4.3573,4.3007,4.2977,4.2919,4.2818,4.2411,4.2498,4.2774,4.2977,4.35,4.4268,4.4422,4.4886,4.4982,4.4923,4.493,4.5514,4.4829,4.4646,4.5828,4.4366,4.3947,4.3913,4.3693,4.3379,4.3319,4.3305,4.3305,4.329,4.3215,4.2836,4.2381,4.2111,4.1678,4.1582,4.1869,4.2414,4.2863,4.3235,4.332,4.3048,4.2739,4.2258,4.1541,4.0945,4.0625,4.0393,3.9796,3.9497,3.9398,3.9365,3.9381,3.9332,3.9315,3.9395,3.9528,3.9616,3.972,3.9798,3.9781,3.9798,3.972,3.959,3.9511,3.9475,3.9484,3.9537,3.9651,3.9729,3.9665,3.9716,3.9817,3.9868,3.9978,3.9858,3.9212,3.8686,3.8099,3.7912,3.8024,3.8711,3.9451,3.9891,4.0359,4.077,4.127,4.1487,4.1524,4.1289,4.1252,4.147,4.1433,4.1089,4.0872,4.0709,4.078,4.1009,4.1023,4.1034,4.1027,4.1111,4.093,4.1132,4.1168,4.137,4.1846,4.1897,4.1619,4.1953,4.2687,4.3573,4.3616,4.3413,4.3108,4.3224,4.3456,4.3645,4.366,4.3355,4.3036,4.2789,4.2586,4.2455,4.2919,4.3471,4.3629,4.3923,4.4358,4.4642,4.473,4.487,4.5274,4.4855,4.4751,4.5514,4.4721,4.4421,4.4302,4.3932,4.3708,4.3424,4.3305,4.3305,4.3305,4.323,4.303,4.2485,4.2404,4.2342,4.2176,4.2492,4.2847,4.3265,4.3571,4.3534,4.33,4.301,4.282,4.2241,4.174,4.1508,4.1193,4.0696,4.0713,4.0547,4.0393,3.9796,3.9547,3.9315,3.9369,3.9501,3.9642,3.9746,3.9824,3.9858,3.9858,3.9807,3.972,3.9616,3.9511,3.9511,3.9563,3.9651,3.9703,3.9723,3.991,4.002,4.0254,4.0402,4.0451,3.997,3.9911,3.9476,3.8959,3.8884,3.9945,4.0854,4.1156,4.1528,4.1854,4.2157,4.2175,4.2266,4.2103,4.2176,4.2411,4.2285,4.1904,4.1922,4.1759,4.1723,4.1719,4.1916,4.2149,4.2529,4.2653,4.2213,4.2121,4.2341,4.2561,4.2873,4.2092,4.2092,4.2092,4.231,4.2687,4.2905,4.2861,4.2818,4.3181,4.3703,4.4168,4.4095,4.3776,4.3369,4.305,4.2673,4.2194,4.2455,4.2919,4.3018,4.3483,4.4091,4.4435,4.4697,4.5173,4.5424,4.5454,4.5454,4.6097,4.5544,4.493,4.4392,4.4052,4.3633,4.3424,4.3469,4.3544,4.3439,4.326,4.314,4.2851,4.2812,4.2948,4.3164,4.3371,4.347,4.3686,4.3807,4.3779,4.3483,4.3361,4.34,4.2969,4.2572,4.2291,4.1877,4.1508,4.1442,4.1193,4.1028,4.0415,3.9846,3.9514,3.9369,3.9432,3.959,3.972,3.9807,3.991,3.9961,3.9935,3.9833,3.9746,3.9616,3.959,3.9651,3.9703,3.9755,3.979,3.9995,4.0146,4.0402,4.0731,4.0802,4.0694,4.0804,4.0891,4.0364,3.9901,4.0831,4.1678,4.1877,4.2167,4.2401,4.2574,4.2683,4.2755,4.2901,4.2919,4.2919,4.2792,4.2429,4.2611,4.2775,4.2541,4.2539,4.2992,4.33,4.3242,4.3167,4.2965,4.3057,4.3442,4.3479,4.3479,4.2121,4.2092,4.2092,4.2107,4.2208,4.2745,4.3326,4.3921,4.395,4.4269,4.4763,4.4168,4.3848,4.3747,4.3253,4.2716,4.2324,4.2295,4.2745,4.3148,4.3717,4.424,4.4775,4.5188,4.5711,4.5918,4.6007,4.6217,4.6995,4.5888,4.496,4.4421,4.3932,4.3574,4.3544,4.3738,4.3753,4.3454,4.329,4.3215,4.3135,4.318,4.367,4.4034,4.435,4.4679,4.4837,4.4861,4.4542,4.423,4.3913,4.3698,4.335,4.2903,4.2655,4.234,4.1877,4.1794,4.1711,4.1657,4.1094,4.0448,3.9839,3.9524,3.9405,3.959,3.9703,3.9833,3.9935,4.0037,4.0062,3.9986,3.9884,3.9807,3.9729,3.9781,3.9849,3.9858,3.9884,3.9969,4.007,4.0336,4.0832,4.1019,4.1338,4.163,4.1721,4.1625,4.1248,4.1345,4.2015,4.2098,4.24,4.2769,4.2919,4.2919,4.2919,4.2919,4.2919,4.2919,4.2865,4.2828,4.2847,4.2884,4.305,4.3214,4.3357,4.3427,4.3461,4.3369,4.3294,4.3314,4.3479,4.3479,4.3479,4.2484,4.2107,4.2092,4.2092,4.2179,4.2745,4.3355,4.395,4.4008,4.4124,4.424,4.4066,4.3718,4.3268,4.3065,4.2861,4.276,4.2876,4.3529,4.3933,4.4231,4.5078,4.5661,4.6036,4.6431,4.6711,4.6845,4.6756,4.6875,4.5963,4.5319,4.4945,4.4257,4.3783,4.3648,4.3917,4.3678,4.3469,4.3319,4.3305,4.3305,4.3305,4.4083,4.483,4.4855,4.5212,4.5501,4.5168,4.4655,4.3992,4.3764,4.3615,4.3565,4.3383,4.3267,4.3267,4.3069,4.2986,4.287,4.2456,4.1839,4.1122,4.0497,3.9964,3.9701,3.9599,3.9729,3.9858,3.9986,4.0087,4.0113,4.0037,3.9961,3.991,3.9858,3.9884,3.991,3.9935,3.9969,4.0154,4.0229,4.0659,4.1116,4.1543,4.1885,4.2259,4.2458,4.238,4.234,4.232,4.232,4.2398,4.2555,4.2881,4.2919,4.2919,4.2919,4.2919,4.2919,4.2919,4.2901,4.2883,4.2901,4.2975,4.3105,4.3268,4.3463,4.3479,4.3479,4.3479,4.3406,4.3442,4.3479,4.3479,4.3479,4.2774,4.244,4.2194,4.2223,4.2498,4.2847,4.3253,4.3558,4.3602,4.3703,4.395,4.3689,4.3369,4.3079,4.2992,4.2832,4.2571,4.2542,4.3036,4.3759,4.4686,4.5387,4.6031,4.6751,4.7146,4.7339,4.7294,4.7189,4.698,4.6352,4.5648,4.52,4.4646,4.3973,4.3589,4.3604,4.3618,4.3424,4.3305,4.3305,4.3305,4.3369,4.4297,4.5238,4.5139,4.552,4.599,4.5483,4.4787,4.4075,4.388,4.3615,4.3615,4.3582,4.3582,4.3549,4.3515,4.3466,4.3333,4.2804,4.2158,4.152,4.094,4.024,3.9874,3.9703,3.9807,3.9901,4.0011,4.0113,4.0113,4.0087,4.0037,4.0003,3.9986,3.9986,3.9986,3.9986,4.0146,4.0377,4.0707,4.1094,4.1543,4.1969,4.2338,4.2595,4.2749,4.2711,4.2673,4.2634,4.2614,4.2634,4.2749,4.2919,4.2919,4.2919,4.2919,4.2919,4.2919,4.2919,4.2919,4.2919,4.2938,4.3031,4.3123,4.3286,4.3444,4.3479,4.3479,4.3479,4.3479,4.3479,4.3479,4.3479,4.3479,4.305,4.2919,4.2353,4.2382,4.2876,4.2948,4.2963,4.2934,4.3021,4.3297,4.3602,4.3181,4.289,4.2789,4.2774,4.2658,4.2455,4.2368,4.2832,4.3179,4.4435,4.537,4.6282,4.7166,4.7146,4.7204,4.7174,4.7025,4.6965,4.6337,4.5603,4.5259,4.4496,4.3798,4.3409,4.3379,4.3409,4.3364,4.3305,4.3305,4.3305,4.3527,4.4043,4.5353,4.5734,4.5974,4.6454,4.6195,4.5531,4.4754,4.4307,4.3929,4.3797,4.3631,4.3615,4.3628,4.3628,4.3674,4.3588,4.3186,4.2477,4.1747,4.0984,4.0711,4.0538,3.988,3.984,3.9952,4.0062,4.0113,4.0113,4.0113,4.0062,4.0062,4.0062,4.0037,4.0037,4.0096,4.0229,4.0507,4.0902,4.1343,4.1864,4.2277,4.2518,4.2825,4.2919,4.2919,4.29,4.2844,4.2825,4.2806,4.2844,4.2919,4.2919,4.2919,4.2919,4.2919,4.2919,4.2919,4.2919,4.2938,4.2957,4.3068,4.3196,4.3304,4.3427,4.3462,4.3479,4.3479,4.3479,4.3479,4.3479,4.3479,4.3479,4.3442,4.2934,4.2353,4.2194,4.2382,4.2803,4.2716,4.2368,4.2803,4.2818,4.2557,4.2411,4.2339,4.2382,4.2382,4.2397,4.26,4.231,4.3094,4.3656,4.4494,4.5296,4.6121,4.6779,4.6832,4.6636,4.6561,4.6606,4.6411,4.5933,4.5484,4.5155,4.4332,4.3559,4.3319,4.3305,4.3305,4.3305,4.3305,4.3305,4.3305,4.3512,4.4028,4.5169,4.5762,4.6177,4.6569,4.6742,4.5814,4.4937,4.5202,4.4953,4.4506,4.3913,4.3648,4.3628,4.3717,4.3763,4.3739,4.3531,4.3015,4.2677,4.2233,4.196,4.1406,4.035,3.9883,4.0037,4.0087,4.0087,4.0113,4.0113,4.0113,4.0113,4.0113,4.0113,4.0113,4.0221,4.0311,4.0713,4.1116,4.1569,4.2115,4.2458,4.2711,4.2844,4.29,4.2919,4.2919,4.2881,4.2881,4.2863,4.2881,4.2919,4.2919,4.2919,4.2919,4.2919,4.2919,4.2919,4.2919,4.2938,4.2957,4.3105,4.3233,4.3322,4.341,4.3462,4.3479,4.3479,4.3479,4.3479,4.3479,4.3479,4.3479,4.3776,4.3369,4.276,4.2498,4.2513,4.2586,4.2397,4.2208,4.2455,4.2411,4.2121,4.2092,4.2092,4.2092,4.2092,4.2208,4.2528,4.2252,4.2858,4.3639,4.4391,4.5178,4.585,4.6509,4.6849,4.6756,4.6396,4.6232,4.5888,4.5574,4.5214,4.484,4.4003,4.3544,4.3379,4.3305,4.3305,4.3305,4.3305,4.3305,4.3305,4.3472,4.4143,4.5221,4.5818,4.6314,4.6897,4.7156,4.6477,4.5616,4.5483,4.5069,4.4522,4.3962,4.3664,4.3674,4.3763,4.3881,4.3873,4.3743,4.3471,4.3136,4.2596,4.2026,4.1764,4.0862,4.054,4.0611,4.0172,4.013,4.0113,4.0113,4.0113,4.0113,4.0113,4.0113,4.0113,4.0146,4.0538,4.1099,4.1459,4.1785,4.2279,4.2691,4.2863,4.2863,4.29,4.2919,4.2919,4.2919,4.2919,4.2919,4.2919,4.2919,4.2919,4.2919,4.2919,4.2919,4.2919,4.2919,4.2919,4.2919,4.2957,4.3123,4.3233,4.3322,4.3375,4.3462,4.3479,4.3479,4.3479,4.3479,4.3479,4.3479,4.3479,4.3921,4.379,4.3224,4.2919,4.2803,4.2339,4.2107,4.2092,4.2107,4.2121,4.2107,4.2092,4.2092,4.2092,4.2092,4.2092,4.2133,4.2189,4.2738,4.3416,4.4005,4.4775,4.5595,4.6358,4.6444,4.6561,4.6426,4.5903,4.5409,4.5244,4.502,4.4451,4.4082,4.3858,4.3469,4.3305,4.3305,4.3305,4.3305,4.3305,4.3329,4.3448,4.445,4.5221,4.5913,4.662,4.7308,4.7504,4.709,4.6311,4.5566,4.5119,4.4655,4.4128,4.379,4.3687,4.3852,4.3939,4.3914,4.3707,4.3411,4.3014,4.2434,4.2204,4.2104,4.1698,4.136,4.0983,4.0561,4.013,4.0113,4.0113,4.0113,4.0197,4.0197,4.0189,4.0189,4.0273,4.0899,4.1498,4.1743,4.2018,4.242,4.2825,4.2919,4.2919,4.2919,4.2919,4.2919,4.2919,4.2919,4.2919,4.2919,4.2919,4.2919,4.2919,4.2919,4.2919,4.2919,4.2919,4.2919,4.2919,4.2975,4.3142,4.3251,4.3304,4.3392,4.3479,4.3479,4.3479,4.3479,4.3479,4.3479,4.3479,4.3479,4.3674,4.3166,4.305,4.2731,4.2324,4.2136,4.2092,4.2092,4.2092,4.2092,4.2092,4.2092,4.2092,4.2092,4.2092,4.2092,4.216,4.2242,4.2704,4.3343,4.3466,4.4205,4.5025,4.5669,4.5394,4.5663,4.6067,4.5903,4.52,4.5155,4.4975,4.4347,4.3663,4.3469,4.3424,4.3319,4.3305,4.3305,4.3305,4.3305,4.3551,4.3927,4.4774,4.5536,4.6288,4.7084,4.7688,4.7852,4.7438,4.6659,4.5665,4.5284,4.487,4.4357,4.3807,4.3793,4.3956,4.4068,4.4004,4.4074,4.3895,4.3809,4.3525,4.3631,4.3238,4.2412,4.2081,4.1685,4.1145,4.0265,4.0113,4.0113,4.013,4.0409,4.0553,4.0493,4.0442,4.092,4.1507,4.1748,4.1849,4.2221,4.2692,4.2919,4.2919,4.2919,4.2919,4.2919,4.2919,4.2919,4.2937,4.2919,4.2919,4.2919,4.2919,4.2919,4.2919,4.2919,4.2919,4.2919,4.2919,4.2919,4.2994,4.316,4.3233,4.3268,4.3375,4.3479,4.3479,4.3479,4.3479,4.3479,4.3479,4.3479,4.3479]}]]